[[{"header":{"parameterUnit":"m.s-1","parameterCategory":1,"la1":30.6,"la2":29.2853,"lo1":-89.7004,"lo2":-87.6739,"dy":0.0162,"dx":0.0183,"nx":112,"ny":82,"refTime":"2023-06-12T12:00:00:Z","depth":0,"parameterNumber":2,"parameterNumberName":"U-component_of_WINDS"},"data":[0.0,0.0,0.0,0.0,0.0,0.0,0.0,0.0,0.0,0.0,0.0,0.0,0.0,0.0,0.0,0.0,0.0,0.0,0.0,0.0,0.0,0.0,0.0,0.0,0.0,0.0,0.0,0.0,0.0,0.0,0.0,0.0,0.0,0.0,0.0,0.0,0.0,0.0,0.0,0.0,0.0,0.0,0.0,0.0,0.0,0.0,0.0,0.0,0.0,0.0,0.0,0.0,0.0,0.0,0.0,0.0,0.0,0.0,0.0,0.0,0.0,0.0,0.0,0.0,0.0,0.0,0.0,0.0,0.0,0.0,0.0,0.0,0.0,0.0,0.0,0.0,0.0,0.0,0.0,0.0,0.0,0.0,0.0,0.0,0.0,0.0,0.0,0.0,0.0,0.0,-3.317,-3.5114,-4.2878,-4.8435,-4.9741,-5.0845,-4.8686,-4.2078,0.0,0.0,0.0,0.0,0.0,0.0,0.0,0.0,0.0,0.0,0.0,0.0,0.0,0.0,0.0,0.0,0.0,0.0,0.0,0.0,0.0,0.0,0.0,0.0,0.0,0.0,0.0,0.0,0.0,0.0,0.0,0.0,0.0,0.0,0.0,0.0,0.0,0.0,0.0,0.0,0.0,0.0,0.0,0.0,0.0,0.0,0.0,0.0,0.0,0.0,0.0,0.0,0.0,0.0,0.0,0.0,0.0,0.0,0.0,0.0,0.0,0.0,0.0,0.0,0.0,0.0,0.0,0.0,0.0,0.0,0.0,0.0,0.0,0.0,0.0,0.0,0.0,0.0,0.0,0.0,0.0,0.0,0.0,0.0,0.0,0.0,0.0,0.0,0.0,0.0,0.0,0.0,0.0,0.0,0.0,0.0,0.0,0.0,0.0,0.0,0.0,0.0,0.0,0.0,-3.5708,-4.1039,-4.5413,-4.8761,-5.0845,-4.949,-4.7079,-4.3639,0.0,0.0,0.0,0.0,0.0,0.0,0.0,0.0,0.0,0.0,0.0,0.0,0.0,0.0,0.0,0.0,0.0,0.0,0.0,0.0,0.0,0.0,0.0,0.0,0.0,0.0,0.0,0.0,0.0,0.0,0.0,0.0,0.0,0.0,0.0,0.0,0.0,0.0,0.0,0.0,0.0,0.0,0.0,0.0,0.0,0.0,0.0,0.0,0.0,0.0,0.0,0.0,0.0,0.0,0.0,0.0,0.0,0.0,0.0,0.0,0.0,0.0,0.0,0.0,0.0,0.0,0.0,0.0,0.0,0.0,0.0,0.0,0.0,0.0,0.0,0.0,0.0,0.0,0.0,0.0,0.0,0.0,0.0,0.0,0.0,0.0,0.0,0.0,0.0,0.0,0.0,0.0,0.0,0.0,0.0,0.0,0.0,0.0,0.0,0.0,0.0,0.0,0.0,-3.513,-3.8115,-4.3313,-4.6301,-4.8686,-5.0645,-4.9314,-4.6803,-4.3137,-4.1605,0.0,0.0,0.0,0.0,0.0,0.0,0.0,0.0,0.0,0.0,0.0,0.0,0.0,0.0,0.0,0.0,0.0,0.0,0.0,0.0,0.0,0.0,0.0,0.0,0.0,0.0,0.0,0.0,0.0,0.0,0.0,0.0,0.0,0.0,0.0,0.0,0.0,0.0,0.0,0.0,0.0,0.0,0.0,0.0,0.0,0.0,0.0,0.0,0.0,0.0,0.0,0.0,0.0,0.0,0.0,0.0,0.0,0.0,0.0,0.0,0.0,0.0,0.0,0.0,0.0,0.0,0.0,0.0,0.0,0.0,0.0,0.0,0.0,0.0,0.0,0.0,0.0,0.0,0.0,0.0,0.0,0.0,0.0,0.0,0.0,0.0,0.0,0.0,0.0,0.0,0.0,0.0,0.0,0.0,0.0,0.0,0.0,0.0,0.0,0.0,0.0,0.0,-3.7588,-3.9647,-4.3966,-4.6527,-4.8535,-5.0092,-4.8862,-4.6376,-4.264,-4.0199,0.0,0.0,0.0,0.0,0.0,0.0,0.0,0.0,0.0,0.0,0.0,0.0,0.0,0.0,0.0,0.0,0.0,0.0,0.0,0.0,0.0,0.0,0.0,0.0,0.0,0.0,0.0,0.0,0.0,0.0,0.0,0.0,0.0,0.0,0.0,0.0,0.0,0.0,0.0,0.0,0.0,0.0,0.0,0.0,0.0,0.0,0.0,0.0,0.0,0.0,0.0,0.0,0.0,0.0,0.0,0.0,0.0,0.0,0.0,0.0,0.0,0.0,0.0,0.0,0.0,0.0,0.0,0.0,0.0,0.0,0.0,0.0,0.0,0.0,0.0,0.0,0.0,0.0,0.0,0.0,0.0,0.0,0.0,0.0,0.0,0.0,0.0,0.0,0.0,0.0,0.0,0.0,0.0,0.0,0.0,0.0,0.0,0.0,0.0,0.0,0.0,0.0,-3.7337,-3.9496,-4.3438,-4.6276,-4.8385,-4.9565,-4.723,-4.492,-4.3037,-3.8969,0.0,0.0,0.0,0.0,0.0,0.0,0.0,0.0,0.0,0.0,0.0,0.0,0.0,0.0,0.0,0.0,0.0,0.0,0.0,0.0,0.0,0.0,0.0,0.0,0.0,0.0,0.0,0.0,0.0,0.0,0.0,0.0,0.0,0.0,0.0,0.0,0.0,0.0,0.0,0.0,0.0,0.0,0.0,0.0,0.0,0.0,0.0,0.0,0.0,0.0,0.0,0.0,0.0,0.0,0.0,0.0,0.0,0.0,0.0,0.0,0.0,0.0,0.0,0.0,0.0,0.0,0.0,0.0,0.0,0.0,0.0,0.0,0.0,0.0,0.0,0.0,0.0,0.0,0.0,0.0,0.0,0.0,0.0,0.0,0.0,0.0,0.0,0.0,0.0,0.0,0.0,0.0,0.0,0.0,0.0,0.0,0.0,0.0,0.0,0.0,0.0,0.0,-3.8442,-4.0651,-4.3489,-4.5974,-4.7732,-4.8485,-4.6979,-4.4844,-4.2133,0.0,0.0,0.0,0.0,0.0,0.0,0.0,0.0,0.0,0.0,0.0,0.0,0.0,0.0,0.0,0.0,0.0,0.0,0.0,0.0,0.0,0.0,0.0,0.0,0.0,0.0,0.0,0.0,0.0,0.0,0.0,0.0,0.0,0.0,0.0,0.0,0.0,0.0,0.0,0.0,0.0,0.0,0.0,0.0,0.0,0.0,0.0,0.0,0.0,0.0,0.0,0.0,0.0,0.0,0.0,0.0,0.0,0.0,0.0,0.0,0.0,0.0,0.0,0.0,0.0,0.0,0.0,0.0,0.0,0.0,0.0,0.0,0.0,0.0,0.0,0.0,0.0,0.0,0.0,0.0,0.0,0.0,0.0,0.0,0.0,0.0,0.0,0.0,0.0,0.0,0.0,0.0,0.0,0.0,0.0,0.0,0.0,0.0,0.0,0.0,0.0,0.0,-3.7211,-3.9245,-4.143,-4.3815,-4.605,-4.7531,-4.7883,-4.6276,-4.4292,-4.2007,0.0,0.0,0.0,0.0,0.0,0.0,0.0,0.0,0.0,0.0,0.0,0.0,0.0,0.0,0.0,0.0,0.0,0.0,0.0,0.0,0.0,0.0,0.0,0.0,0.0,0.0,0.0,0.0,0.0,0.0,0.0,0.0,0.0,0.0,0.0,0.0,0.0,0.0,0.0,0.0,0.0,0.0,0.0,0.0,0.0,0.0,0.0,0.0,0.0,0.0,0.0,0.0,0.0,0.0,0.0,0.0,0.0,0.0,0.0,0.0,0.0,0.0,0.0,0.0,0.0,0.0,0.0,0.0,0.0,0.0,0.0,0.0,0.0,0.0,0.0,0.0,0.0,0.0,0.0,0.0,0.0,0.0,0.0,0.0,0.0,0.0,0.0,0.0,0.0,0.0,0.0,0.0,0.0,0.0,0.0,0.0,0.0,0.0,0.0,0.0,0.0,0.0,-3.7739,-3.9471,-4.158,-4.4342,-4.6577,-4.7908,-4.7908,-4.4895,-4.2986,0.0,0.0,0.0,0.0,0.0,0.0,0.0,0.0,0.0,0.0,0.0,0.0,0.0,0.0,0.0,0.0,0.0,0.0,0.0,0.0,0.0,0.0,0.0,0.0,0.0,0.0,0.0,0.0,0.0,0.0,0.0,0.0,0.0,0.0,0.0,0.0,0.0,0.0,0.0,0.0,0.0,0.0,0.0,0.0,0.0,0.0,0.0,0.0,0.0,0.0,0.0,0.0,0.0,0.0,0.0,0.0,0.0,0.0,0.0,0.0,0.0,0.0,0.0,0.0,0.0,0.0,0.0,0.0,0.0,0.0,0.0,0.0,0.0,0.0,0.0,0.0,0.0,0.0,0.0,0.0,0.0,0.0,0.0,0.0,0.0,0.0,0.0,0.0,0.0,0.0,0.0,0.0,0.0,0.0,0.0,0.0,0.0,0.0,0.0,0.0,0.0,0.0,0.0,-3.8341,-3.9722,-4.158,-4.4342,-4.6276,-4.7355,-4.7355,-4.5372,-4.3639,-4.2514,0.0,0.0,0.0,0.0,0.0,0.0,0.0,0.0,0.0,0.0,0.0,0.0,0.0,0.0,0.0,0.0,0.0,0.0,0.0,0.0,0.0,0.0,0.0,0.0,0.0,0.0,0.0,0.0,0.0,0.0,0.0,0.0,0.0,0.0,0.0,0.0,0.0,0.0,0.0,0.0,0.0,0.0,0.0,0.0,0.0,0.0,0.0,0.0,0.0,0.0,0.0,0.0,0.0,0.0,0.0,0.0,0.0,0.0,0.0,0.0,0.0,0.0,0.0,0.0,0.0,0.0,0.0,0.0,0.0,0.0,0.0,0.0,0.0,0.0,0.0,0.0,0.0,0.0,0.0,0.0,0.0,0.0,0.0,0.0,0.0,0.0,0.0,0.0,0.0,0.0,0.0,0.0,0.0,0.0,0.0,0.0,0.0,0.0,0.0,0.0,0.0,0.0,-3.9245,-4.0676,-4.2559,-4.5321,-4.6928,-4.7782,-4.7782,-4.5849,-4.4016,-4.264,0.0,0.0,0.0,0.0,0.0,0.0,0.0,0.0,0.0,0.0,0.0,0.0,0.0,0.0,0.0,0.0,0.0,0.0,0.0,0.0,0.0,0.0,0.0,0.0,0.0,0.0,0.0,0.0,0.0,0.0,0.0,0.0,0.0,0.0,0.0,0.0,0.0,0.0,0.0,0.0,0.0,0.0,0.0,0.0,0.0,0.0,0.0,0.0,0.0,0.0,0.0,0.0,0.0,0.0,0.0,0.0,0.0,0.0,0.0,0.0,0.0,0.0,0.0,0.0,0.0,0.0,0.0,0.0,0.0,0.0,0.0,0.0,0.0,0.0,0.0,0.0,0.0,0.0,0.0,0.0,0.0,0.0,0.0,0.0,0.0,0.0,0.0,0.0,0.0,0.0,0.0,0.0,0.0,0.0,0.0,0.0,0.0,0.0,0.0,0.0,0.0,0.0,-4.03,-4.1982,-4.4066,-4.6903,-4.8134,-4.8761,-4.8761,-4.6276,-4.4242,-4.3112,0.0,0.0,0.0,0.0,0.0,0.0,0.0,0.0,0.0,0.0,0.0,0.0,0.0,0.0,0.0,0.0,0.0,0.0,0.0,0.0,0.0,0.0,0.0,0.0,0.0,0.0,0.0,0.0,0.0,0.0,0.0,0.0,0.0,0.0,0.0,0.0,0.0,0.0,0.0,0.0,0.0,0.0,0.0,0.0,0.0,0.0,0.0,0.0,0.0,0.0,0.0,0.0,0.0,0.0,0.0,0.0,0.0,0.0,0.0,0.0,-2.878,-2.8561,0.0,0.0,0.0,0.0,0.0,0.0,0.0,0.0,0.0,0.0,0.0,0.0,0.0,0.0,0.0,0.0,0.0,0.0,0.0,0.0,0.0,0.0,0.0,0.0,0.0,0.0,0.0,0.0,0.0,0.0,0.0,0.0,0.0,0.0,0.0,0.0,0.0,0.0,0.0,0.0,-4.0774,-4.2233,-4.4192,-4.7405,-4.836,-4.8761,-4.8761,-4.6627,-4.4819,-4.3689,-4.0626,0.0,0.0,0.0,0.0,0.0,0.0,0.0,0.0,0.0,0.0,0.0,0.0,0.0,0.0,0.0,0.0,0.0,0.0,0.0,0.0,0.0,0.0,0.0,0.0,0.0,0.0,0.0,0.0,0.0,0.0,0.0,0.0,0.0,0.0,0.0,0.0,0.0,0.0,0.0,0.0,0.0,0.0,0.0,0.0,0.0,0.0,0.0,0.0,0.0,0.0,0.0,0.0,0.0,0.0,0.0,0.0,0.0,0.0,0.0,-3.3664,-3.2059,0.0,0.0,0.0,0.0,0.0,0.0,0.0,0.0,0.0,0.0,0.0,0.0,0.0,0.0,0.0,0.0,0.0,0.0,0.0,0.0,0.0,0.0,0.0,0.0,0.0,0.0,0.0,0.0,0.0,0.0,0.0,0.0,0.0,0.0,0.0,0.0,0.0,0.0,0.0,0.0,-4.1806,-4.3338,-4.5246,-4.8033,-4.8837,-4.9063,-4.8786,-4.7004,-4.5171,-4.3514,-4.1053,0.0,0.0,0.0,0.0,0.0,0.0,0.0,0.0,0.0,0.0,0.0,0.0,0.0,0.0,0.0,0.0,0.0,0.0,0.0,0.0,0.0,0.0,0.0,0.0,0.0,0.0,0.0,0.0,0.0,0.0,0.0,0.0,0.0,0.0,0.0,0.0,0.0,0.0,0.0,0.0,0.0,0.0,0.0,0.0,0.0,0.0,0.0,0.0,0.0,0.0,0.0,0.0,0.0,-3.8486,-3.9747,-4.105,-4.0489,-4.1212,-4.276,-3.9589,-3.6749,-3.4365,-3.4639,0.0,0.0,0.0,0.0,0.0,0.0,0.0,0.0,0.0,0.0,0.0,0.0,0.0,0.0,0.0,0.0,0.0,0.0,0.0,0.0,0.0,0.0,-4.0551,-4.2238,-4.2936,-4.2534,-3.9873,0.0,0.0,0.0,0.0,0.0,0.0,0.0,0.0,0.0,0.0,0.0,-4.2685,-4.4443,-4.6376,-4.8661,-4.9238,-4.9264,-4.8812,-4.7179,-4.5347,-4.3388,-4.163,-3.9747,0.0,0.0,0.0,0.0,0.0,0.0,0.0,0.0,0.0,0.0,0.0,0.0,0.0,0.0,0.0,0.0,0.0,0.0,0.0,0.0,0.0,0.0,0.0,0.0,0.0,0.0,0.0,0.0,0.0,0.0,0.0,0.0,-2.3101,-2.3101,0.0,0.0,0.0,0.0,0.0,0.0,0.0,0.0,0.0,0.0,0.0,0.0,0.0,-3.6343,-3.8353,-3.9578,-4.0842,-4.2088,-4.2755,-4.3162,-4.3388,-4.3769,-4.4569,-4.5799,-4.617,0.0,-4.0149,-3.9752,0.0,0.0,0.0,0.0,0.0,0.0,0.0,0.0,0.0,0.0,0.0,0.0,0.0,0.0,0.0,0.0,0.0,0.0,0.0,0.0,0.0,0.0,-4.2313,-4.3915,-4.4342,-4.4418,-4.4493,-4.266,-4.0701,-3.9672,-3.8366,-3.7538,0.0,0.0,0.0,0.0,0.0,0.0,-4.2685,-4.4443,-4.6502,-4.9213,-4.9113,-4.8862,-4.8786,-4.6828,-4.5246,-4.4468,-4.2354,-4.0676,-3.9421,-3.8341,0.0,0.0,0.0,0.0,0.0,0.0,0.0,0.0,0.0,0.0,0.0,0.0,0.0,0.0,0.0,0.0,0.0,0.0,0.0,0.0,0.0,0.0,0.0,0.0,0.0,0.0,0.0,0.0,0.0,-2.3769,-2.4171,-2.4054,-2.4686,-2.5272,0.0,0.0,0.0,0.0,0.0,0.0,0.0,0.0,0.0,-3.8278,-3.9438,-4.0621,-4.191,-4.2725,-4.397,-4.5748,-4.5698,-4.615,-4.7079,-4.7631,-4.8335,-4.9138,-4.9916,-4.8812,-4.6276,-4.4166,-4.2183,-4.0325,0.0,0.0,0.0,0.0,-4.0576,-4.148,-4.2986,-4.3313,-4.3062,-4.3062,0.0,0.0,0.0,0.0,0.0,0.0,0.0,-4.0601,-4.2082,-4.3915,-4.5799,-4.7481,-4.7883,-4.7857,-4.7807,-4.61,-4.389,-4.153,-4.0224,-3.9396,-3.9019,-3.8492,0.0,0.0,0.0,-4.1404,-4.3614,-4.5372,-4.723,-4.9364,-4.9113,-4.851,-4.7908,-4.6677,-4.5296,-4.379,-4.2509,-4.1153,-3.9747,-3.8919,-3.7965,0.0,0.0,0.0,0.0,0.0,0.0,0.0,0.0,0.0,0.0,0.0,0.0,0.0,0.0,0.0,0.0,0.0,0.0,0.0,0.0,0.0,0.0,0.0,0.0,0.0,0.0,0.0,0.0,-2.4703,-2.5635,-2.508,-2.6825,-2.8021,0.0,0.0,0.0,0.0,0.0,0.0,-3.8793,-4.0199,-4.153,-4.273,-4.389,-4.4719,-4.5271,-4.5974,-4.7079,-4.8535,-4.8309,-4.8912,-5.0243,-5.067,-5.1172,-5.1724,-5.2126,-5.1825,-5.082,-4.7631,-4.5347,-4.3714,-4.261,-4.1952,-4.1932,-4.3162,-4.4066,-4.4895,-4.6552,-4.6853,-4.6401,-4.5723,-4.502,-4.379,-4.0174,0.0,0.0,0.0,0.0,-4.263,-4.4895,-4.6903,-4.8761,-5.0444,-5.0845,-5.0695,-5.0142,-4.8736,-4.6602,-4.3413,-4.2233,-4.1455,-4.0475,-3.9873,0.0,-4.0049,-4.1053,-4.2509,-4.4568,-4.6175,-4.7757,-4.9414,-4.8962,-4.8159,-4.7143,-4.6351,-4.5095,-4.3313,-4.259,-4.1584,-4.0174,-3.9446,-3.8542,-3.7412,0.0,0.0,0.0,0.0,0.0,0.0,0.0,0.0,0.0,0.0,0.0,0.0,0.0,0.0,0.0,0.0,0.0,0.0,0.0,0.0,0.0,0.0,0.0,0.0,0.0,0.0,0.0,0.0,0.0,-2.5737,-2.9316,0.0,0.0,0.0,0.0,-3.8266,-3.952,-4.1178,-4.3338,-4.4041,-4.5146,-4.6742,-4.7908,-4.8736,-4.9289,-5.0393,-5.072,-5.0293,-5.082,-5.1398,-5.1975,-5.2,-5.2327,-5.2854,-5.2879,-5.2854,-5.2578,-4.9766,-4.7631,-4.6024,-4.4895,-4.4769,-4.5246,-4.5321,-4.605,-4.6918,-4.7043,-4.7043,-4.7369,-4.9439,-4.9364,-4.7958,-4.5121,-4.389,0.0,0.0,-4.4392,-4.497,-4.7179,-4.8636,-4.9941,-5.1624,-5.2026,-5.1875,-5.1322,-4.9866,-4.7857,-4.5045,-4.3639,-4.271,-4.2187,0.0,-4.1175,-4.12,-4.2183,-4.3514,-4.5221,-4.6426,-4.7757,-4.9414,-4.8611,-4.7732,-4.7179,-4.5648,-4.4443,-4.379,-4.2816,-4.1882,-4.1225,-4.0224,-3.912,-3.799,-3.7437,0.0,0.0,0.0,0.0,0.0,0.0,0.0,0.0,0.0,0.0,0.0,0.0,0.0,0.0,0.0,0.0,0.0,0.0,0.0,0.0,0.0,0.0,0.0,0.0,0.0,0.0,0.0,0.0,-3.231,-3.5348,0.0,-3.7738,-3.883,-4.0081,-4.143,-4.2886,-4.4518,-4.6351,-4.733,-4.8435,-4.9766,-5.0519,-5.1021,-5.1222,-5.1599,-5.1875,-5.2026,-5.1875,-5.2101,-5.2628,-5.2628,-5.2729,-5.2929,-5.2929,-5.313,-5.3356,-5.2352,-5.1197,-4.9967,-4.9213,-4.8812,-4.8736,-4.949,-4.9766,-4.9916,-5.0619,-5.0645,-5.0218,-4.9565,-4.8134,-4.6476,-4.5472,-4.5045,-4.507,-4.5974,-4.6753,-4.7732,-4.959,-5.0645,-5.1448,-5.2402,-5.2352,-5.2051,-5.185,-5.077,-4.9439,-4.8083,-4.6075,-4.4418,-4.384,-4.3288,-4.2936,-4.2936,-4.3564,-4.4392,-4.5372,-4.6451,-4.7481,-4.841,-4.7857,-4.7054,-4.615,-4.4844,-4.3564,-4.2308,-4.1505,-4.0701,-3.9798,-3.9371,-3.8642,-3.7487,-3.7287,-3.6958,0.0,0.0,0.0,0.0,0.0,0.0,0.0,0.0,0.0,0.0,0.0,0.0,0.0,0.0,0.0,0.0,0.0,0.0,0.0,0.0,0.0,0.0,0.0,0.0,0.0,-3.107,-3.429,-3.7168,-4.0456,-4.2446,-4.2424,-4.3438,-4.4418,-4.5146,-4.6602,-4.8083,-4.9515,-5.0318,-5.1071,-5.1825,-5.2201,-5.2302,-5.2101,-5.2277,-5.2477,-5.2653,-5.2477,-5.2578,-5.2929,-5.3105,-5.3181,-5.3206,-5.3406,-5.3683,-5.4009,-5.4185,-5.3858,-5.3155,-5.2603,-5.2151,-5.1875,-5.2452,-5.2402,-5.2176,-5.2729,-5.2678,-5.2101,-5.0444,-4.8912,-4.7682,-4.7506,-4.7305,-4.738,-4.8485,-4.9213,-4.9967,-5.1448,-5.2101,-5.2477,-5.2829,-5.2653,-5.2327,-5.2151,-5.1523,-5.077,-5.0017,-4.8109,-4.6351,-4.5598,-4.5171,-4.492,-4.492,-4.5246,-4.5748,-4.6502,-4.7054,-4.7606,-4.8134,-4.738,-4.6401,-4.5296,-4.4166,-4.2811,-4.1125,-4.0551,-3.9823,-3.8969,-3.8668,-3.814,-3.7211,-3.7642,-3.7778,-3.7574,0.0,0.0,0.0,0.0,0.0,0.0,0.0,0.0,0.0,0.0,0.0,0.0,0.0,0.0,0.0,0.0,0.0,0.0,0.0,0.0,0.0,0.0,0.0,-3.0067,-3.4468,-3.8292,-3.984,-4.4274,-4.6592,-4.5045,-4.6803,-4.851,-4.9615,-5.072,-5.1825,-5.2904,-5.2955,-5.2955,-5.2955,-5.2929,-5.2678,-5.2126,-5.2653,-5.2653,-5.2126,-5.2678,-5.2929,-5.298,-5.3457,-5.3708,-5.3758,-5.4336,-5.4587,-5.4708,-5.5164,-5.539,-5.5365,-5.4838,-5.4612,-5.4511,-5.3934,-5.3708,-5.3607,-5.3105,-5.2929,-5.2829,-5.2302,-5.2126,-5.2026,-5.1498,-5.0946,-5.072,-5.1825,-5.1749,-5.1574,-5.2653,-5.2929,-5.2929,-5.2929,-5.2929,-5.2779,-5.2251,-5.2101,-5.1749,-5.0645,-4.9565,-4.846,-4.738,-4.7143,-4.7143,-4.7093,-4.7118,0.0,-4.856,-4.8209,-4.8083,-4.8636,-4.7255,-4.5849,-4.4694,-4.3614,-4.2313,-4.0654,-4.0,-3.9447,-3.8944,-3.8316,-3.7762,-3.7283,-3.8444,-3.9362,-3.9918,0.0,0.0,0.0,0.0,0.0,0.0,0.0,0.0,0.0,0.0,0.0,0.0,0.0,0.0,0.0,0.0,0.0,0.0,0.0,0.0,0.0,-3.3426,-3.5286,-3.4845,-3.9008,-4.3252,-4.6476,-4.9146,-5.072,-5.0645,-5.1197,-5.1674,-5.1975,-5.2653,-5.3155,-5.3457,-5.3482,-5.3482,-5.3482,-5.313,-5.2854,-5.2703,-5.2854,-5.2854,-5.2703,-5.2854,-5.313,-5.3507,-5.3632,-5.3934,-5.4336,-5.4486,-5.4787,-5.5164,-5.5315,-5.5616,-5.5968,-5.5817,-5.5516,-5.5089,-5.4536,-5.3833,-5.313,-5.298,-5.2929,-5.2904,-5.2754,-5.2703,-5.2678,-5.2528,-5.2352,-5.2302,-5.2603,-5.2578,-5.2553,-5.2854,-5.2929,-5.2929,-5.2929,-5.2929,-5.2879,-5.2729,-5.2076,-5.1423,-5.1096,-5.0142,-4.9264,-4.8962,-4.8912,-4.8636,-4.7807,-4.8058,-4.8008,-4.7104,-4.7205,-4.7255,-4.7004,-4.6577,-4.5698,-4.4166,-4.3388,-4.2518,-4.1359,-4.0343,-3.9537,-3.9081,-3.8413,-3.8205,-3.8559,-3.8383,-3.881,0.0,0.0,0.0,0.0,0.0,0.0,0.0,0.0,0.0,0.0,0.0,0.0,0.0,0.0,0.0,0.0,0.0,0.0,0.0,0.0,0.0,0.0,-3.72,-4.0504,-4.1125,-4.3569,-4.6661,-5.0237,-5.1724,-5.2578,-5.2904,-5.2929,-5.3005,-5.3231,-5.3331,-5.3457,-5.3683,-5.3507,-5.3381,-5.3381,-5.308,-5.2929,-5.2929,-5.2929,-5.2929,-5.2929,-5.3155,-5.3532,-5.4059,-5.431,-5.4712,-5.5265,-5.5265,-5.544,-5.5742,-5.5742,-5.5792,-5.5892,0.0,0.0,0.0,0.0,-5.3858,-5.2929,-5.2929,-5.2929,-5.2929,-5.2929,-5.2929,-5.2929,-5.2929,-5.2929,-5.2929,-5.2929,-5.2929,-5.2929,-5.2929,-5.2929,-5.2929,-5.2929,-5.2929,-5.2929,-5.2929,-5.2427,-5.1825,-5.1373,-5.0745,0.0,-4.9665,-4.959,-4.9364,-4.8711,-4.8912,-4.8761,-4.7807,-4.7556,-4.7255,-4.6702,-4.6024,-4.502,-4.3589,-4.3208,0.0,0.0,0.0,-3.9743,-3.8666,-3.826,0.0,0.0,0.0,-3.9651,-4.061,-3.9884,0.0,0.0,-3.8341,-3.8191,0.0,0.0,0.0,0.0,0.0,0.0,0.0,0.0,0.0,0.0,0.0,0.0,0.0,0.0,0.0,0.0,-4.121,-4.576,-4.7762,-4.8052,-4.9078,-5.1865,-5.2628,-5.2929,-5.2929,-5.2929,-5.313,-5.3582,-5.3306,-5.3306,-5.3783,-5.3356,0.0,0.0,0.0,-5.2929,-5.2929,-5.2929,-5.2955,-5.303,-5.3482,-5.4034,-5.4687,-5.5239,-5.5742,-5.6219,-5.6269,-5.6269,-5.6219,-5.6143,-5.5842,-5.544,-5.5917,-5.6068,-5.5917,-5.4938,-5.3858,-5.2929,-5.2929,0.0,0.0,-5.2929,-5.2929,-5.2929,-5.2929,-5.2929,-5.2929,-5.2929,-5.2929,-5.2929,-5.2929,-5.2929,-5.2929,-5.2929,-5.3042,-5.311,-5.2929,-5.2991,-5.2707,-5.154,-5.1222,-5.0845,-4.9766,-4.959,-4.9565,-4.9515,-4.9565,-4.954,-4.9414,-4.8535,-4.7707,-4.7179,-4.5748,0.0,-4.3162,-4.3353,-4.3095,-4.2054,-4.1462,-4.0297,-3.8362,-3.814,-3.8934,-4.0769,-4.0702,-4.0992,-4.1591,-4.1468,-4.0794,-3.9697,-3.9195,-3.902,0.0,0.0,0.0,0.0,0.0,0.0,0.0,0.0,0.0,0.0,0.0,0.0,0.0,0.0,0.0,-4.3068,-4.6333,-4.9392,-5.1544,-5.1868,-5.2036,-5.266,-5.2854,-5.2929,-5.2929,-5.2929,-5.298,-5.308,-5.3808,-5.4285,-5.4386,-5.431,-5.4235,-5.4235,-5.3381,-5.2929,-5.2929,-5.2929,-5.313,-5.3557,-5.3658,0.0,-5.5239,-5.5792,-5.6118,-5.6244,-5.6671,-5.662,-5.6168,-5.5742,-5.5491,-5.539,-5.5491,-5.5265,-5.4863,-5.4637,-5.3858,-5.2929,-5.2929,-5.2929,-5.2929,-5.2929,-5.2929,-5.2929,-5.2929,-5.2929,0.0,-5.2929,-5.2929,-5.2929,-5.2929,-5.2929,-5.2929,-5.2929,-5.392,-5.4541,-5.3179,-5.3628,-5.3659,-5.1706,-5.0896,-5.0368,-4.9715,-4.959,-4.9439,-4.8987,-4.9314,-4.9264,-4.836,-4.8033,-4.7707,-4.7179,-4.6451,-4.5347,-4.379,-4.4727,-4.5156,-4.4606,-4.3602,-4.2181,-4.0177,-3.9218,-3.9368,-4.0795,-4.0206,-4.0438,-4.1591,-4.0541,-3.9929,-3.9697,-3.9597,-3.9546,0.0,0.0,0.0,0.0,0.0,0.0,0.0,0.0,0.0,0.0,0.0,-3.9233,0.0,0.0,-4.5331,-4.6206,-4.887,-5.1348,-5.2729,-5.2929,-5.2929,-5.2929,-5.2929,-5.2929,-5.2929,-5.3155,-5.3432,-5.3733,-5.426,-5.4561,-5.4561,-5.4285,-5.4009,-5.3758,-5.3206,-5.3055,-5.3306,-5.3306,-5.3582,-5.4135,-5.4687,-5.5265,-5.5817,-5.6671,-5.7047,-5.7047,-5.7047,-5.7362,-5.7899,-5.6765,-5.5835,-5.4938,-5.4662,-5.4712,-5.4938,-5.4662,-5.4034,-5.3281,-5.3005,-5.2929,-5.2929,-5.2929,-5.2929,-5.2929,-5.2929,-5.2929,-5.2929,-5.2929,-5.2929,-5.2929,-5.2929,-5.2929,-5.2929,-5.2929,-5.3538,-5.392,-5.3042,-5.3335,-5.333,-5.1976,-5.1473,-5.1096,-5.0544,-5.0193,-4.9816,-4.9264,-4.9414,-4.9389,-4.8812,-4.851,-4.8134,-4.7581,-4.6803,-4.6121,-4.5762,-4.6217,-4.629,-4.5824,-4.4293,-4.2522,-4.0618,-3.9981,-3.9854,-4.023,-3.988,-4.0032,-4.0642,-4.0032,-3.9697,-3.9697,-3.9697,-3.9697,0.0,0.0,0.0,0.0,0.0,0.0,0.0,0.0,-3.8793,-4.0475,-4.1706,-4.2619,-4.3346,-4.6192,-4.8355,-4.8311,-5.0535,-5.2427,-5.2854,-5.2929,-5.2929,-5.2929,-5.3005,-5.303,-5.2929,-5.3406,-5.3858,-5.421,-5.4336,-5.4411,-5.4411,-5.3959,-5.3557,-5.3256,-5.313,-5.3331,-5.3858,-5.3858,-5.416,-5.4737,-5.5616,-5.6118,-5.6244,-5.7273,-5.7874,-5.8095,-5.7565,-5.8058,-5.9096,-5.7423,-5.5882,-5.4361,-5.3884,-5.4336,-5.5164,-5.4612,-5.4034,-5.3482,-5.308,-5.2929,-5.2929,-5.2929,-5.2929,-5.2929,-5.2929,-5.2929,-5.2929,-5.2929,-5.2929,-5.2929,-5.2929,-5.311,-5.3291,-5.2998,-5.3427,-5.37,-5.3042,-5.3179,-5.3113,-5.2143,-5.195,-5.1724,-5.1071,-5.0569,-5.0142,-4.9816,-4.9665,-4.959,-4.959,-4.9113,-4.8586,-4.8134,-4.7205,-4.69,-4.7784,-4.7325,-4.6791,-4.624,-4.4539,-4.271,-4.0754,-4.0576,-4.0249,-3.9697,-3.9697,-3.9697,-3.9697,-3.9697,-3.9697,-3.9697,-3.9697,-3.9697,-3.468,-3.4675,-3.4977,-3.6458,-3.696,-3.799,0.0,0.0,-4.2811,-4.4493,-4.5723,-4.6642,-4.722,-4.8835,-5.0428,-5.1422,-5.2241,-5.2854,-5.2929,-5.2929,-5.2929,-5.2929,-5.3331,-5.3432,-5.298,-5.3406,-5.3532,-5.313,-5.3532,-5.3808,-5.3808,-5.3733,-5.3909,-5.4361,-5.3884,-5.3884,-5.4461,-5.4461,-5.4737,-5.529,-5.5415,-5.5742,-5.6244,-5.6846,-5.775,-5.8761,-5.8709,-5.8289,-5.7451,-5.5644,-5.4472,-5.3783,-5.3733,-5.411,-5.4587,-5.4009,-5.3457,-5.3005,-5.2955,-5.2929,-5.2929,-5.2929,-5.2929,-5.2929,-5.2929,-5.2929,-5.2929,-5.2929,-5.2929,-5.2929,-5.2929,-5.3987,-5.4742,-5.3222,-5.5207,-5.6596,-5.3563,-5.4055,-5.4363,-5.1883,-5.1373,-5.1046,-4.9967,-4.9715,-4.9841,-5.0268,-4.9916,-4.959,-4.959,-4.9113,-4.8736,-4.8686,-4.8109,-4.7892,-4.83,-4.7347,-4.6506,-4.6005,-4.5234,-4.3697,-4.1279,-4.0724,-4.0249,-3.9697,-3.9697,-3.9697,-3.9697,-3.9697,-3.9697,-3.9697,-3.9697,-3.9697,-3.5232,-3.5859,-3.6885,-3.7914,-3.9371,-4.1153,-4.3413,-4.4694,-4.5773,-4.7129,-4.8284,-4.9314,-5.0193,-5.1197,-5.2026,0.0,-5.2779,-5.2929,-5.2929,-5.2929,-5.2678,-5.2051,-5.2729,-5.3181,-5.2955,-5.3406,-5.3607,-5.3381,-5.3884,-5.4059,-5.3708,-5.4009,-5.416,-5.4059,-5.416,-5.4461,-5.5039,-5.5039,-5.5315,-5.5867,-5.6194,-5.6602,-5.7242,-5.8481,-5.9221,-5.9404,-6.05,-5.8977,-5.5751,-5.6072,-5.5029,-5.3256,-5.3256,-5.3406,-5.3607,-5.3683,-5.3557,-5.3331,-5.303,-5.2929,-5.2929,-5.2929,-5.2929,-5.2929,-5.2929,-5.2929,-5.2929,-5.2929,-5.2929,-5.311,-5.4122,-5.4164,-5.3987,-5.4299,-5.4701,-5.4634,-5.3179,-5.3241,-5.3104,-5.1984,-5.1498,-5.1247,-5.1071,-5.0795,-5.0645,-5.0896,-5.0167,-4.959,-4.959,-4.9389,-4.8987,-4.8335,-4.9121,-4.9386,-4.8548,-4.8026,-4.7423,-4.6555,-4.5093,-4.3394,-4.1404,-4.1075,-4.0576,-3.9722,-3.9697,-3.9697,-3.9697,-3.9697,-3.9697,-3.9697,-3.9697,-3.9697,-3.6257,-3.7337,-3.8718,-3.9747,-4.1856,-4.4066,-4.5648,-4.7054,-4.8435,-4.9841,-5.0645,-5.1398,-5.2377,-5.2754,-5.2929,-5.2929,-5.2929,-5.2929,-5.2929,-5.2678,-5.2126,-5.1147,-5.1473,-5.19,-5.2201,-5.3005,-5.3482,-5.3482,-5.3884,-5.3984,-5.3708,-5.3959,-5.4135,-5.416,-5.4436,-5.4988,-5.5842,-5.5691,-5.5892,-5.6445,-5.6696,-5.6925,-5.7302,-5.8937,-5.9483,-5.9131,-6.0399,-5.8796,-5.5172,-5.5951,-5.4928,-5.2929,-5.2929,-5.2929,-5.298,-5.3356,-5.3482,-5.3432,-5.3055,-5.2929,-5.2929,-5.2929,-5.2929,-5.2929,-5.2929,-5.2929,-5.2929,-5.2929,-5.2929,-5.3179,-5.4433,-5.4164,-5.381,-5.4541,-5.4122,-5.3495,-5.2998,-5.2603,-5.2251,-5.195,-5.2051,-5.2098,-5.1691,-5.1798,-5.1768,-5.1138,-5.071,-5.0256,-4.968,-4.959,-4.9289,-4.846,-4.9471,-4.9655,-4.8432,-4.8042,-4.7424,-4.6334,-4.4846,-4.3212,-4.1351,-4.1275,-4.0902,-3.9948,-3.9772,-3.9848,-4.0149,-3.9848,-3.9772,-3.9923,-3.9772,-3.9697,-3.7638,0.0,-4.0149,-4.2308,-4.4141,-4.6125,-4.8837,-4.9891,-5.0921,-5.3105,-5.3181,-5.3005,-5.3557,-5.3256,-5.2929,-5.2929,-5.2929,-5.2929,-5.2929,-5.2,-5.1096,-5.0519,-4.954,-4.9314,-5.0393,-5.1975,-5.2955,-5.2955,-5.298,-5.3181,-5.3683,-5.3231,-5.3708,-5.529,-5.4838,-5.534,-5.6972,-5.6445,-5.647,-5.6997,-5.6495,-5.5942,-5.5509,-5.6799,-5.7429,-5.7403,-5.7471,-5.7033,-5.625,-5.4516,-5.3476,-5.2929,-5.2929,-5.2929,-5.2929,-5.2955,-5.2955,-5.2955,-5.2929,-5.2929,-5.2929,-5.2929,-5.2929,-5.2929,-5.2929,-5.2929,-5.2929,-5.2929,-5.2929,-5.2929,-5.2998,-5.4122,-5.4916,-5.3359,-5.4164,-5.4849,-5.3222,-5.2904,-5.2578,-5.1523,-5.3059,-5.3622,-5.0882,-5.2233,-5.2943,-5.0756,-5.1743,-5.1955,-4.9833,-4.959,-4.959,-4.954,-4.8649,-4.797,-4.792,-4.6964,-4.5883,-4.4752,-4.4618,-4.3557,-4.1376,-4.1275,-4.1025,-4.0501,-3.9973,-4.0224,-4.1225,-4.0224,-3.9973,-4.0475,-3.9948,-3.9697,-3.927,0.0,-4.3037,-4.5598,-4.723,-4.8736,-5.0795,-5.1674,-5.2302,-5.303,-5.1875,-5.067,-5.0469,-4.969,-4.9314,-5.0067,-5.0795,-5.1649,-5.2779,-5.2603,-5.1749,-5.0067,-5.0218,-5.0142,-4.9389,-5.0494,-5.1724,-5.2854,-5.3256,-5.3507,-5.3683,-5.426,-5.4813,-5.5365,-5.5917,-5.647,-5.7022,-5.7223,-5.7223,-5.7022,-5.6861,-5.6954,-5.7224,-5.804,-5.7998,-5.7324,-5.7324,-5.6259,-5.4533,-5.3961,-5.3381,-5.2929,-5.2929,-5.2929,-5.2929,-5.2929,-5.2929,-5.2929,-5.2929,-5.2929,-5.2929,-5.2929,-5.2929,-5.2929,-5.2929,-5.2929,-5.2929,-5.2929,-5.2929,-5.3179,-5.4231,-5.4164,-5.3852,-5.4433,-5.4122,-5.3606,-5.3042,-5.2628,-5.259,-5.3372,-5.3803,-5.4251,-5.4798,-5.4602,-5.3583,-5.1311,-5.1755,-5.2013,-5.1294,-5.1205,-5.0636,-4.9215,-4.8711,-4.8184,-4.7456,-4.6728,-4.5824,-4.4694,-4.4292,-4.3413,-4.1932,-4.1882,-4.163,-4.1025,-4.0824,-4.0924,-4.1275,-4.0924,-4.0824,-4.1,-4.0877,-4.0724,-4.1178,-4.3438,-4.5824,-4.8209,-4.9665,-5.082,-5.2101,-5.2528,-5.2528,-5.2126,-5.0419,-4.8761,-4.8033,-4.6828,-4.6376,-4.7682,-4.8335,-4.9439,-5.1724,-5.1699,-5.1046,-5.0017,-5.0193,-5.0117,-4.9414,-4.9992,-5.1021,-5.2528,-5.3306,-5.3783,-5.4009,-5.4687,-5.5365,-5.5968,-5.647,-5.7022,-5.7625,-5.7801,-5.76,-5.7022,-5.6502,-5.6461,-5.6842,-5.6796,-5.6412,-5.5725,-5.5725,-5.486,-5.3432,-5.3432,-5.3231,-5.2929,-5.2929,-5.2929,-5.2929,-5.2929,-5.2929,-5.2929,-5.2929,-5.2929,-5.2929,-5.2929,-5.2929,-5.2929,-5.2929,-5.2929,-5.2929,-5.2929,-5.2929,-5.3179,-5.4231,-5.3742,-5.3179,-5.4231,-5.3674,-5.2929,-5.2929,-5.308,-5.3505,-5.4406,-5.5481,-5.6436,-5.7066,-5.577,-5.4144,-5.2679,-5.2855,-5.288,-5.2112,-5.1492,-5.0824,-5.005,-4.9065,-4.8184,-4.7481,-4.6552,-4.5623,-4.4694,-4.4116,-4.3313,-4.2263,-4.2213,-4.2037,-4.163,-4.1376,-4.1476,-4.1932,-4.1476,-4.1376,-4.163,-4.1376,-4.1275,-4.3388,-4.5999,-4.8485,-5.0142,-5.1348,-5.2277,-5.2779,-5.2427,-5.1649,-5.0494,-4.8812,-4.723,0.0,0.0,-4.4166,-4.5924,-4.5874,-4.6778,-5.0092,-4.964,-4.9364,0.0,0.0,0.0,0.0,-5.0494,-5.0996,-5.2076,-5.313,-5.4009,-5.4587,-5.4708,-5.5365,-5.6947,-5.6545,-5.7072,-5.8654,-5.8152,-5.7625,-5.7072,-5.5365,-5.4561,-5.4536,-5.3432,-5.2929,-5.2929,-5.2929,-5.2929,-5.2929,-5.2929,-5.2929,-5.2929,-5.2929,-5.2929,-5.2929,-5.2929,-5.2929,-5.2929,-5.2904,-5.2904,-5.2929,-5.2929,-5.2929,-5.2929,-5.2929,-5.2929,-5.2929,-5.2929,-5.2929,-5.2929,-5.2929,-5.2929,-5.2929,-5.2929,-5.2929,-5.2929,-5.2929,-5.4231,-5.5261,-5.4837,-5.7938,-5.9915,-5.7605,-5.5861,-5.4666,-5.4432,-5.4772,-5.4412,-5.2404,-5.0853,-5.0499,-5.1865,-4.9662,-4.7995,-4.7908,-4.6451,-4.5271,-4.4694,-4.4116,-4.3338,-4.2338,-4.2263,-4.2263,-4.2288,-4.1706,-4.1957,-4.3011,-4.1957,-4.1681,-4.2238,-4.1656,-4.1376,-4.605,-4.8611,-5.072,-5.1975,-5.2503,-5.2653,-5.2377,-5.1222,-4.9816,-4.8284,-4.5321,-4.2685,0.0,0.0,0.0,-4.4593,-4.6301,0.0,-5.1825,-5.2051,0.0,-5.1122,0.0,-5.1473,-5.0519,-5.1548,-5.2402,-5.2703,-5.3733,-5.4587,-5.5139,-5.5566,-5.5993,-5.642,-5.7097,-5.7675,-5.8102,-5.7976,-5.7826,-5.765,-5.5566,-5.4561,-5.4536,-5.3432,-5.2929,-5.2929,-5.2929,-5.2929,-5.2929,-5.2929,-5.2929,-5.2929,-5.2929,-5.2929,-5.2929,-5.2929,-5.2929,-5.2879,-5.2452,-5.2578,-5.2929,-5.2929,-5.2929,-5.2929,-5.2929,-5.2929,-5.2929,-5.2929,-5.2929,-5.2929,-5.2929,-5.2929,-5.2929,-5.2929,-5.2929,-5.2929,-5.2929,-5.4231,-5.5761,-5.6895,-6.003,-6.1408,-5.8286,-5.744,-5.609,-5.3177,-5.3478,-5.4137,-5.4378,-5.4694,-5.4181,-5.2209,-5.1023,-4.9713,-4.8057,-4.6803,-4.5874,-4.5296,-4.4342,-4.3689,-4.3388,-4.2986,-4.2961,-4.3363,-4.2836,-4.2911,-4.3589,-4.2886,-4.2635,-4.276,-4.2635,-4.2559,-4.8309,-5.0469,-5.2151,-5.2779,-5.2578,-5.1925,-5.087,-4.9163,-4.7129,-4.4719,-4.1852,0.0,-3.8442,-3.804,0.0,0.0,0.0,0.0,-5.0896,-5.1674,-5.195,0.0,-5.2879,0.0,-5.2302,-5.308,-5.3758,-5.3984,-5.4361,-5.4813,-5.5365,-5.6143,-5.6696,-5.6947,-5.7801,-5.8378,-5.8604,-5.8127,-5.7901,-5.7876,-5.5892,-5.4787,-5.4607,-5.4465,-5.3861,-5.2929,-5.3674,-5.3538,-5.2929,-5.2929,-5.2929,-5.2929,-5.2929,-5.2929,-5.2929,-5.2929,-5.2929,-5.2879,-5.2578,-5.2678,-5.2879,-5.2653,-5.2729,-5.2929,-5.2929,-5.2929,-5.2929,-5.2929,-5.2929,-5.2929,-5.2929,-5.2929,-5.2929,-5.2929,-5.3495,-5.3987,-5.3987,-5.5945,-5.8139,-5.99,-6.1792,-6.1998,-5.8571,-5.7784,-5.6367,-5.2641,-5.3373,-5.4553,-5.5117,-5.5205,-5.4616,-5.2842,-5.1489,-4.9872,-4.773,-4.6803,-4.6075,-4.5522,-4.4418,-4.379,-4.379,-4.3263,-4.3112,-4.3438,-4.3137,-4.3137,-4.3438,-4.3137,-4.2986,-4.2986,-4.2986,-4.2986,-5.0193,-5.1749,-5.2929,-5.2929,-5.1975,-5.0619,-4.8937,-4.6677,-4.4016,-4.0752,0.0,-3.7287,-3.638,-3.5881,-3.6912,-4.0874,0.0,-4.435,-4.9138,-5.0293,-5.1373,-5.3356,-5.3733,-5.3984,-5.4411,-5.4587,-5.4913,-5.5465,-5.5064,-5.5039,-5.5566,-5.652,-5.7323,-5.7976,-5.8478,-5.8981,-5.9483,-5.8428,-5.7901,-5.7876,-5.6312,-5.5299,-5.4607,-5.5946,-5.5169,-5.2998,-5.4942,-5.4809,-5.3247,-5.3495,-5.3427,-5.3247,-5.3247,-5.311,-5.2929,-5.2929,-5.2929,-5.2929,-5.2854,-5.2879,-5.2854,-5.2377,-5.2528,-5.2929,-5.2929,-5.2929,-5.2929,-5.2929,-5.3042,-5.3179,-5.2998,-5.3247,-5.3495,-5.3316,-5.45,-5.5748,-5.5748,-5.8265,-6.099,-6.2759,-6.3079,-6.1969,-5.8522,-5.7515,-5.6025,-5.2514,-5.3662,-5.505,-5.521,-5.4488,-5.3969,-5.3796,-5.1814,-4.9677,-4.7582,-4.6799,-4.6175,-4.5623,-4.4618,-4.3991,-4.3915,-4.3388,-4.3087,-4.3087,-4.3011,-4.3011,-4.3087,-4.3011,-4.2986,-4.2986,-4.2986,-4.2986,-5.1348,-5.2352,-5.2929,-5.2929,-5.1398,-4.9464,-4.7807,-4.4644,0.0,0.0,-3.6458,-3.5228,-3.5052,-3.568,-3.7638,-4.1982,0.0,0.0,0.0,-5.1473,-5.2126,0.0,-5.3858,-5.426,-5.3884,-5.4712,-5.5465,-5.6018,-5.5993,-5.6168,-5.6721,-5.6922,-5.7499,-5.8504,-5.8654,-5.8981,-5.9483,-5.8428,-5.7901,-5.7876,-5.7145,-5.6037,-5.4653,-5.6743,-5.5947,-5.3042,-5.6233,-5.6596,-5.5049,-5.6531,-5.6271,-5.4982,-5.4982,-5.4122,-5.2929,-5.2929,-5.2929,-5.2854,-5.2402,-5.2553,-5.2904,-5.2804,-5.2854,-5.2929,-5.2929,-5.2929,-5.2929,-5.2929,-5.392,-5.4675,-5.3247,-5.5034,-5.6726,-5.5314,-5.6271,-5.756,-5.756,-5.9104,-6.099,-6.2759,-6.3079,-6.188,-5.8026,-5.7238,-5.5862,-5.2047,-5.2829,-5.4181,-5.5084,-5.645,-5.6782,-5.5421,-5.3412,-5.125,-4.9134,-4.7707,-4.6753,-4.62,-4.5547,-4.497,-4.4493,-4.394,-4.3664,-4.3664,-4.3212,-4.3212,-4.3664,-4.3212,-4.2986,-4.2986,-4.2986,-4.2986,-5.2151,-5.2929,-5.3256,-5.3005,-5.0594,-4.7807,-4.5849,0.0,0.0,0.0,-3.4625,-3.3947,-3.4248,0.0,0.0,0.0,0.0,0.0,0.0,0.0,0.0,-5.3482,-5.4235,-5.4687,-5.4963,-5.5491,-5.5917,-5.6194,-5.647,-5.6897,-5.7449,-5.775,-5.8278,-5.9081,-5.9106,-5.9257,-5.9483,-5.8428,-5.8375,-5.9264,-5.8437,-5.7311,-5.6116,-5.8934,-5.8007,-5.4366,-5.785,-5.8355,-5.6855,-5.7687,-5.6956,-5.5419,-5.5419,-5.4366,-5.2929,-5.2929,-5.2929,-5.2879,-5.2628,-5.2703,-5.2929,-5.2929,-5.2929,-5.2929,-5.2929,-5.3495,-5.4164,-5.4164,-5.5446,-5.6596,-5.5775,-5.679,-5.7815,-5.6956,-5.804,-5.9565,-6.0477,-6.1287,-6.2086,-6.2933,-6.2172,-6.0555,-5.8063,-5.6412,-5.4469,-5.1696,-5.2362,-5.3583,-5.4644,-5.6022,-5.6589,-5.5897,-5.4229,-5.2154,-4.9611,-4.8692,-4.7675,-4.6411,-4.5799,-4.5221,-4.4644,-4.4091,-4.3664,-4.3388,-4.3112,-4.3237,-4.379,-4.3237,-4.3112,-4.3388,-4.3112,-4.2986,-5.2477,-5.313,-5.3406,-5.2879,-4.9741,-4.6225,-4.4116,-4.0099,0.0,0.0,-3.347,-3.3244,-3.3796,0.0,-3.5454,0.0,0.0,0.0,0.0,0.0,0.0,0.0,-5.4411,0.0,-5.5942,-5.6143,-5.6319,-5.657,-5.7544,-5.8398,-5.8855,-5.9287,-5.9922,-6.089,-6.0431,-6.01,-5.9973,-5.8932,-5.9039,-6.023,-5.9787,-5.8734,-5.7206,-6.0843,-5.9907,-5.5617,-5.9413,-6.0116,-5.8571,-5.8946,-5.785,-5.5945,-5.5945,-5.4675,-5.2929,-5.2929,-5.2929,-5.2929,-5.2929,-5.2929,-5.2998,-5.3291,-5.3427,-5.3427,-5.3427,-5.4634,-5.5945,-5.5945,-5.7213,-5.8446,-5.8131,-5.8571,-5.907,-5.907,-6.0144,-6.1437,-6.2817,-6.2817,-6.2555,-6.2555,-6.082,-5.8908,-5.7476,-5.5435,-5.3321,-5.1387,-5.2156,-5.3317,-5.4259,-5.5252,-5.6099,-5.6517,-5.4912,-5.282,-5.0465,-4.9863,-4.8805,-4.69,-4.6408,-4.5725,-4.4819,-4.4392,-4.384,-4.3162,-4.3162,-4.3313,-4.3614,-4.3187,-4.3212,-4.3614,-4.3187,-4.3129,-5.2026,-5.2578,-5.2854,-5.2327,-4.8887,-4.5196,-4.3438,0.0,0.0,-3.4148,-3.347,-3.3244,-3.3796,-3.3947,-3.4876,0.0,0.0,-4.0701,0.0,0.0,0.0,0.0,0.0,0.0,-5.5415,-5.5917,-5.6646,-5.7675,-6.0338,-6.1953,-6.2053,-6.2058,-6.3165,-6.5536,-6.3318,-6.1852,-6.1301,-6.0697,-5.9883,-5.8973,-6.1034,-6.0023,-5.653,-6.103,-6.0259,-5.5683,-6.0718,-6.191,-6.0359,-6.1969,-6.0718,-5.7751,-5.7751,-5.5775,-5.2929,-5.2929,-5.2929,-5.2929,-5.2929,-5.2929,-5.3179,-5.4675,-5.5181,-5.5181,-5.5181,-5.6402,-5.7751,-5.7751,-5.898,-5.9933,-5.8383,-6.0266,-6.2643,-6.2643,-6.2759,-6.2875,-6.3079,-6.1851,-6.075,-6.075,-5.9323,-5.744,-5.529,-5.4678,-5.3635,-5.0882,-5.2233,-5.3707,-5.4314,-5.5619,-5.71,-5.8654,-5.5825,-5.3572,-5.2759,-5.1347,-4.9958,-4.8358,-4.8247,-4.7373,-4.5481,-4.5372,-4.4819,-4.374,-4.374,-4.3514,-4.3062,-4.3011,-4.3011,-4.3062,-4.3011,-4.3657,-5.1172,-5.2477,-5.3181,-5.2327,-4.851,-4.4518,-4.2861,0.0,0.0,-3.3621,-3.3244,-3.3187,-3.337,-3.3395,-3.3872,0.0,0.0,0.0,0.0,0.0,0.0,0.0,-5.2101,0.0,0.0,0.0,-5.7641,-5.9898,-6.118,-6.3223,-6.631,-6.4933,-6.4727,-6.6125,-6.4826,-6.3794,-6.3099,-6.2177,-6.1767,-6.1997,-6.2224,-6.1314,-5.9527,-6.2348,-6.1757,-5.8641,-6.1733,-6.2701,-6.2028,-6.1703,-6.0144,-5.8005,-5.8005,-5.6531,-5.4541,-5.5578,-5.5972,-5.5972,-5.5972,-5.5972,-5.6103,-5.6726,-5.766,-5.8265,-5.7277,-5.8167,-5.9475,-5.9475,-6.075,-6.191,-6.1228,-6.2057,-6.3079,-6.3079,-6.3079,-6.2698,-6.138,-6.0527,-5.9692,-5.8692,-5.6624,-5.5022,-5.5075,-5.3413,-5.2257,-5.2854,-5.3046,-5.3931,-5.6122,-5.6537,-5.7098,-5.8369,-5.6918,-5.5371,-5.4223,-5.3197,-5.1819,-4.996,-4.9847,-4.8926,-4.6939,-4.6797,-4.5879,-4.3815,-4.379,-4.3689,-4.3463,-4.3137,-4.3162,-4.3463,-4.3137,-4.3295,-4.9715,-5.1724,-5.298,-5.1875,-4.8083,-4.4141,0.0,0.0,0.0,-3.352,-3.3194,-3.3111,-3.3111,-3.3111,-3.3269,0.0,0.0,-3.4826,0.0,0.0,0.0,0.0,0.0,-5.1749,-5.5465,-5.7337,-5.9433,-6.2137,-6.3073,-6.5331,-6.969,-6.7816,-6.7012,-6.7834,-6.6483,-6.5321,-6.4538,-6.3436,-6.3028,-6.329,-6.2927,-6.2235,-6.1232,-6.2972,-6.2559,-6.06,-6.235,-6.3079,-6.2991,-6.1762,-6.0266,-5.8731,-5.8731,-5.766,-5.6337,-5.756,-5.8005,-5.8005,-5.8005,-5.8005,-5.8068,-5.8571,-5.9565,-6.0359,-5.9688,-6.0327,-6.1258,-6.1258,-6.2175,-6.3079,-6.3079,-6.3079,-6.3079,-6.3079,-6.2929,-6.2342,-6.0765,-5.9587,-5.8479,-5.7182,-5.5186,-5.4032,-5.4997,-5.3753,-5.3283,-5.5088,-5.5042,-5.5474,-5.7455,-5.7682,-5.7889,-5.8363,-5.7992,-5.7054,-5.5421,-5.4871,-5.365,-5.1537,-5.0933,-4.9854,-4.8008,-4.755,-4.6386,-4.4317,-4.4292,-4.4217,-4.4041,-4.3664,-4.3589,-4.379,-4.3564,-4.3944,-4.7506,-4.9992,-5.185,-5.072,-4.7506,-4.3984,0.0,0.0,-3.4575,-3.3997,-3.3445,-3.3111,-3.3111,-3.3111,-3.3269,-3.3796,0.0,0.0,0.0,0.0,0.0,0.0,0.0,-4.9264,-5.2653,-5.8102,-6.2263,-6.4232,-6.6656,-6.9147,-7.1715,-7.0679,-7.0495,-7.1781,-6.8765,-6.6499,-6.5326,-6.4497,-6.3141,-6.1336,-6.312,-6.2765,-6.0569,-6.2292,-6.2175,-6.06,-6.235,-6.3079,-6.3079,-6.3079,-6.2028,-6.048,-6.048,-5.9413,-5.8005,-5.8005,-5.8005,-5.8005,-5.8005,-5.8005,-5.8257,-5.9933,-6.048,-6.081,-6.2555,-6.3079,-6.3079,-6.3079,-6.3079,-6.3079,-6.3079,-6.3079,-6.3079,-6.3079,-6.257,-6.2091,-6.2091,-5.9408,-5.6865,-5.632,-5.5761,-5.5208,-5.4719,-5.6422,-5.7784,-5.7266,-5.8419,-5.9009,-5.783,-5.9109,-5.9817,-5.9159,-5.9099,-5.8291,-5.6346,-5.6166,-5.5271,-5.3126,-5.1536,-5.0045,-4.8532,-4.7087,-4.605,-4.5472,-4.5472,-4.5196,-4.4618,-4.4618,-4.4317,-4.3815,-4.4342,-4.6091,-4.3539,-4.5447,-4.6828,-4.6075,-4.3564,-4.0877,-3.9396,0.0,-3.4218,-3.4425,-3.4308,-3.4204,-3.4204,-3.4204,-3.4263,-3.4432,0.0,0.0,0.0,0.0,0.0,-4.6903,-5.3582,-5.8433,0.0,-6.3312,-6.6015,-6.7532,-6.8326,-6.9476,-7.1153,-7.044,-7.035,-7.1188,-6.9387,-6.7969,-6.7145,-6.5988,-6.4862,-6.383,-6.3533,-6.2996,-6.2292,-6.2875,-6.2817,-6.2292,-6.2875,-6.3079,-6.3021,-6.1851,-6.099,-6.048,-6.048,-6.0176,-5.9872,-6.1048,-6.1495,-6.1495,-6.1495,-6.1495,-6.1555,-6.2116,-6.2292,-6.2261,-6.2426,-6.272,-6.3079,-6.3079,-6.3079,-6.2959,-6.254,-6.275,-6.2959,-6.251,-6.2241,-6.1776,-6.0706,-5.9241,-5.7881,-5.7071,-5.6389,-5.6177,-5.6832,-5.6863,-5.745,-5.9229,-5.9145,-5.9364,-6.058,-6.0347,-5.9997,-5.9787,-5.9368,-5.868,-5.7603,-5.7064,-5.637,-5.5271,-5.3353,-5.1618,-5.0045,-4.8589,-4.71,-4.5556,-4.5497,-4.5196,-4.4618,-4.4618,-4.5069,-4.5939,-4.6065,-4.7702,0.0,-4.3187,-4.472,-4.4206,-4.2294,0.0,0.0,0.0,-3.5152,-3.5249,-3.4979,-3.4718,-3.4718,-3.4345,-3.4228,-3.4648,0.0,0.0,0.0,0.0,0.0,-5.0349,0.0,0.0,-6.3217,-6.6297,-6.8655,-6.9436,-6.9894,-7.0481,-7.1213,-7.044,-7.0051,-7.0171,-6.8914,-6.8046,-6.7597,-6.6041,-6.5054,-6.4635,-6.3588,-6.3079,-6.3079,-6.3079,-6.3079,-6.3079,-6.3079,-6.3079,0.0,-6.191,-6.1466,-6.1466,-6.1466,-6.1466,-6.1585,-6.2672,-6.3079,-6.3079,-6.3079,-6.3079,-6.3079,-6.3079,-6.3079,-6.2959,-6.2301,-6.2391,-6.272,-6.272,-6.272,-6.254,-6.1912,-6.2032,-6.2241,-6.1822,-6.1523,-6.1148,-6.0354,-5.9393,-5.8488,-5.7902,-5.7833,-5.8058,-5.8559,-5.8771,-5.9468,-6.1201,-6.0618,-6.0409,-6.1559,-6.0775,-5.9997,-5.9727,-5.9338,-5.883,-5.8171,-5.7483,-5.6705,-5.5867,-5.3511,-5.1727,-5.0768,-4.8736,-4.7085,-4.5799,-4.634,-4.6455,-4.6071,-4.6446,-4.69,-4.7506,-4.8408,-4.9923,0.0,0.0,0.0,0.0,0.0,0.0,0.0,0.0,0.0,-3.6457,-3.5588,-3.4965,-3.5044,-3.4173,-3.3819,-3.4888,0.0,0.0,0.0,-4.4121,0.0,0.0,-5.9738,-6.2386,-6.3381,-6.7736,-7.0378,-7.0349,-7.1428,-7.1996,-7.1876,-7.0709,-6.9722,-6.9034,-6.7657,-6.6909,-6.6909,-6.5024,-6.4036,-6.3977,-6.3408,-6.3109,-6.3079,-6.3079,-6.3079,-6.3079,-6.3079,-6.3079,-6.3079,-6.3079,-6.3079,-6.3079,-6.3079,-6.3079,-6.3079,-6.3079,-6.3079,-6.3079,-6.3079,-6.3079,-6.3079,-6.3079,-6.3049,-6.2899,-6.2271,-6.2121,-6.2151,-6.2061,-6.2061,-6.1942,-6.1224,-6.1104,-6.1164,-6.1074,-6.0625,-6.0386,-6.1044,-5.9912,-5.8811,-5.8986,-5.994,-6.0547,-5.9998,-6.1732,-6.3079,-6.3079,-6.257,-6.1942,-6.1343,-6.0625,-5.9907,-5.9308,-5.9159,-5.883,-5.8171,-5.7483,-5.6585,-5.5329,-5.2509,-5.0823,-5.0713,-4.7977,-4.6481,-4.6481,-4.7854,-4.8584,-4.87,-4.9498,-4.9498,-4.8851,-5.1135,-5.2544,-3.8199,0.0,-3.9634,-3.9497,-3.8827,0.0,0.0,0.0,0.0,0.0,0.0,0.0,-3.8382,0.0,0.0,0.0,0.0,0.0,-4.181,0.0,0.0,-5.9589,-6.5193,-6.8377,-6.7581,-7.1297,-7.3536,-7.3032,-7.329,-7.2984,-7.1936,-7.1128,-7.0171,-6.9034,-6.7208,-6.6251,-6.6251,-6.5263,-6.4515,-6.4006,-6.3857,-6.3528,-6.3079,-6.3079,-6.3079,-6.3079,-6.3079,-6.3079,-6.3079,-6.3079,-6.3079,-6.3079,-6.3079,-6.3079,-6.3079,-6.3079,-6.3079,-6.3079,-6.3079,-6.3079,-6.3079,-6.3079,-6.272,-6.2301,-6.2151,-6.245,-6.263,-6.1613,-6.1702,-6.1822,-6.0625,-6.1104,-6.1613,-6.0565,-6.0984,-6.1672,-6.1822,-6.1538,-6.1428,-6.1933,-6.2289,-6.2437,-6.2289,-6.2728,-6.3079,-6.3079,-6.2959,-6.278,-6.263,-6.1583,-6.0805,-6.0655,-5.9727,-5.883,-5.8171,-5.7483,-5.6765,-5.5987,-5.378,-5.1943,-5.0768,-4.8965,-4.7977,-4.7977,-4.872,-4.9721,-5.0923,-4.9906,-5.0315,-5.1972,-5.2525,-5.3477,-3.8397,-3.8562,-3.8617,-3.8617,-3.8359,-3.8265,0.0,0.0,0.0,0.0,0.0,0.0,0.0,0.0,0.0,0.0,-4.0633,0.0,0.0,0.0,-5.9437,-6.4712,-6.8672,-7.1112,-7.161,-7.3634,-7.4719,-7.436,-7.4061,-7.3432,-7.2415,-7.1427,-7.032,-6.9034,-6.7059,-6.6011,-6.6011,-6.4755,-6.4096,-6.4006,-6.3707,-6.3408,-6.3079,-6.3079,-6.3079,-6.3079,-6.3079,-6.3079,-6.3079,-6.3079,-6.3079,-6.3049,-6.275,-6.281,-6.3049,-6.272,-6.281,-6.3019,-6.272,-6.2421,-6.2181,-6.2181,-6.2151,-6.1972,-6.1373,-6.2061,-6.281,-6.1493,-6.1134,-6.1014,-6.0266,-6.0625,-6.0984,-6.0266,-6.0894,-6.1732,-6.2032,-6.2091,-6.2301,-6.2959,-6.3079,-6.3079,-6.3079,-6.2839,-6.272,-6.3019,-6.2301,-6.1822,-6.2121,-6.1014,-6.0176,-6.0176,-5.9548,-5.883,-5.8171,-5.7483,-5.6825,-5.6248,-5.4211,-5.2759,-5.2202,-5.0763,-5.0447,-5.14,-5.1703,-5.2126,-5.2711,-5.2517,-5.2675,-5.3016,-5.3675,-5.4458,-3.9275,-3.9649,-3.9679,-3.9433,-3.9499,-3.9709,0.0,0.0,0.0,0.0,0.0,0.0,0.0,0.0,0.0,0.0,0.0,0.0,-5.5884,-5.9338,-6.3199,-6.9123,-7.0829,-7.2265,-7.424,-7.4689,-7.4869,-7.4869,-7.427,-7.3612,-7.2954,-7.1727,-7.041,-6.9034,-6.7148,-6.6071,-6.5862,-6.4096,-6.3438,-6.3857,-6.3438,-6.3169,-6.3079,-6.3079,-6.3079,-6.3079,-6.3079,-6.3079,-6.3079,-6.2959,-6.2929,-6.2869,-6.2211,-6.2361,-6.2869,-6.2301,-6.245,-6.2839,-6.2181,-6.1583,-6.1104,-6.1104,-6.1553,-6.1852,-6.0625,-6.1493,-6.269,-6.1583,-6.0775,-6.0206,-6.0116,-6.0176,-6.0206,-6.0116,-6.0775,-6.1553,-6.2002,-6.2181,-6.2421,-6.2959,-6.3079,-6.3079,-6.3079,-6.254,-6.2271,-6.2839,-6.1403,-6.0446,-6.1044,-6.0027,-5.9249,-5.9249,-5.9159,-5.889,-5.8321,-5.7633,-5.7034,-5.6496,-5.4573,-5.3661,-5.4054,-5.238,-5.2575,-5.5034,-5.4814,-5.4665,-5.455,-5.5506,-5.5122,-5.3506,-5.4671,-5.5239,-4.0061,-4.0666,-4.0816,-3.9709,-3.9828,-4.0277,0.0,0.0,0.0,0.0,0.0,0.0,0.0,0.0,-4.2979,0.0,0.0,-5.3863,0.0,0.0,-6.6101,-6.8824,-7.2176,-7.3762,-7.2475,-7.3881,-7.4869,-7.4869,-7.427,-7.3612,-7.2954,-7.2176,-7.0889,-6.9064,-6.7597,-6.6311,-6.5173,-6.4306,-6.3647,-6.3228,-6.3647,-6.3588,-6.3079,-6.3079,-6.3079,-6.3079,-6.3079,-6.3079,-6.3019,-6.248,-6.2241,-6.2181,-6.1523,-6.1672,-6.2241,-6.2121,-6.2151,-6.2151,-6.1493,-6.1194,-6.1104,-6.1104,-6.1553,-6.1942,-6.1194,-6.1553,-6.2211,-6.2002,-6.1463,-6.0835,-6.0236,-6.0505,-6.0805,-6.0206,-6.1463,-6.266,-6.2181,-6.254,-6.2959,-6.3049,-6.3079,-6.3079,-6.3079,-6.254,-6.2121,-6.2241,-6.1523,-6.0984,-6.1104,-6.0416,-5.9937,-5.9937,-5.9428,-5.9069,-5.8949,-5.8351,-5.7932,-5.7812,-5.6467,-5.5394,-5.4771,-5.1966,-5.2123,-5.5697,-5.4345,-5.4884,-5.7464,-5.5825,-5.524,-5.573,-5.5347,-5.5478,-3.9798,-4.0337,-4.0786,-4.0546,-4.0965,-4.1482,0.0,0.0,0.0,0.0,0.0,0.0,0.0,0.0,-4.683,-5.099,0.0,-5.7842,-6.2032,-6.4575,-6.6879,-6.9243,-7.1427,-7.2654,-7.2445,-7.3283,-7.3821,-7.3821,-7.3522,-7.3073,-7.2385,-7.1398,-7.029,-6.9034,-6.6999,-6.5652,-6.5024,-6.4006,-6.3348,-6.3079,-6.3378,-6.3348,-6.3079,-6.3079,-6.3079,-6.3049,-6.269,-6.254,-6.251,-6.1852,-6.1553,-6.1493,-6.0835,-6.0984,-6.1553,-6.1553,-6.1792,-6.1942,-6.0924,-6.0565,-6.0505,-6.0146,-6.0475,-6.0954,-6.0655,-6.1283,-6.2091,-6.2091,-6.1613,-6.1134,-6.1164,-6.1403,-6.1553,-6.1253,-6.2151,-6.2989,-6.269,-6.2869,-6.3079,-6.3079,-6.3079,-6.3079,-6.3079,-6.2241,-6.1672,-6.2061,-6.0924,-6.0146,-6.0505,-5.9967,-5.9548,-5.9548,-5.9279,-5.9099,-5.9099,-5.8501,-5.7962,-5.7573,-5.7363,-5.6669,-5.5437,-5.5167,-5.5424,-5.6275,-5.6416,-5.6994,-5.8112,-5.7059,-5.664,-5.6675,-5.6346,-5.6376,-3.9619,-4.0247,-4.0965,-4.1512,0.0,0.0,0.0,0.0,0.0,0.0,0.0,0.0,0.0,-4.6591,0.0,-5.5748,-5.865,-6.1164,-6.3857,-6.5922,-6.7986,-7.0171,-7.0979,-7.1787,-7.2804,-7.2924,-7.2834,-7.2684,-7.2535,-7.2146,-7.1487,-7.038,-6.9363,-6.8555,-6.64,-6.5114,-6.4784,-6.3647,-6.3079,-6.3079,-6.3079,-6.2989,-6.2839,-6.2839,-6.275,-6.26,-6.2091,-6.1882,-6.1822,-6.1134,-6.0864,-6.0805,-6.0116,-6.0266,-6.0864,-6.0864,-6.1194,-6.1463,-6.0266,-5.9847,-5.9757,-5.9279,-5.9548,-6.0116,-6.0266,-6.1164,-6.2121,-6.2271,-6.1972,-6.1613,-6.1822,-6.1972,-6.2061,-6.1912,-6.248,-6.3079,-6.3079,-6.3079,-6.3079,-6.3079,-6.3079,-6.3079,-6.3079,-6.2002,-6.1283,-6.1792,-6.0296,-5.9279,-5.9787,-5.9428,-5.9099,-5.9099,-5.9099,-5.9099,-5.9099,-5.865,-5.8141,-5.7603,-5.7702,-5.7429,-5.663,-5.7485,-5.7749,-5.7272,-5.8081,-5.8505,-5.8351,-5.8201,-5.7842,-5.7334,-5.7184,-5.7184,-4.0157,-4.1265,-4.2261,-4.2321,0.0,0.0,0.0,-4.695,0.0,-4.9299,0.0,0.0,0.0,-4.9673,-5.3204,-5.7304,-6.1164,-6.4575,-6.7238,-6.9303,-7.0859,-7.1667,-7.2355,-7.2804,-7.2894,-7.2924,-7.2654,-7.1996,-7.1398,-7.0769,-7.0141,-6.9453,-6.8465,-6.7178,-6.637,-6.5323,-6.4096,-6.3408,-6.3079,-6.3079,-6.3079,-6.275,-6.2181,-6.2181,-6.1822,-6.1253,-6.1194,-6.1194,-6.1134,-6.0446,-6.0146,-6.0086,-5.9428,-5.9578,-6.0146,-6.0146,-6.0176,-6.0116,-5.9428,-5.9189,-5.9159,-5.9129,-5.9548,-6.0206,-6.0835,-6.1523,-6.2211,-6.2839,-6.2959,-6.266,-6.1493,-6.1642,-6.1942,-6.1343,-6.2151,-6.3079,-6.3079,-6.3079,-6.3079,-6.3079,-6.3079,-6.3079,-6.3079,-6.2002,-6.1134,-6.1164,-5.9997,-5.9129,-5.9159,-5.9129,-5.9099,-5.9099,-5.9099,-5.9099,-5.9099,-5.9069,-5.9009,-5.8949,-5.7576,-5.7438,-5.8793,-5.6194,-5.605,-5.8852,-5.7552,-5.7579,-5.9039,-5.8411,-5.8112,-5.8022,-5.7393,-5.7423,-3.9828,-4.1055,-4.241,-4.241,0.0,0.0,0.0,-4.7908,-4.8476,-5.0451,-5.1289,0.0,0.0,0.0,-5.5837,-5.9398,-6.3288,-6.649,-6.8345,-7.029,-7.1457,-7.1308,-7.1487,-7.1517,-7.1128,-7.0709,-7.0201,-6.9512,-6.9213,-6.8794,-6.8166,-6.7508,-6.6909,-6.64,-6.5323,-6.4515,-6.4006,-6.3378,-6.3079,-6.3079,-6.266,-6.2331,-6.2091,-6.1672,-6.1104,-6.0475,-6.0475,-6.0236,-5.9817,-5.9129,-5.9099,-5.9458,-5.9189,-5.9518,-6.0027,-5.9638,-5.9997,-6.0565,-5.9488,-5.9368,-5.9638,-5.9249,-5.9548,-6.0146,-6.0386,-6.1224,-6.2151,-6.2391,-6.275,-6.2959,-6.248,-6.251,-6.266,-6.2391,-6.272,-6.3079,-6.3079,-6.3079,-6.3079,-6.3079,-6.3079,-6.3079,-6.3079,-6.2331,-6.1583,-6.1164,-6.0326,-5.9578,-5.9159,-5.9099,-5.9099,-5.9099,-5.9099,-5.9099,-5.9099,-5.9099,-5.9099,-5.9099,-5.8495,-5.8026,-5.7608,-5.744,-5.7384,-5.7608,-5.797,-5.8495,-5.9099,-5.886,-5.874,-5.874,-5.8471,-5.8471,-3.9553,-4.0696,-4.2141,0.0,0.0,0.0,0.0,0.0,-5.069,-5.3713,-5.3892,-5.3773,-5.467,0.0,0.0,-6.0535,-6.4425,-6.7478,-6.8824,-7.05,-7.1338,-7.0679,-7.062,-7.029,-6.9423,-6.8944,-6.8315,-6.7418,-6.7358,-6.7059,-6.64,-6.5951,-6.5592,-6.5383,-6.4485,-6.3917,-6.3707,-6.3288,-6.3079,-6.3079,-6.2211,-6.1792,-6.1762,-6.0864,-6.0116,-5.9458,-5.9219,-5.889,-5.8441,-5.7992,-5.8052,-5.8501,-5.871,-5.9069,-5.9428,-5.9189,-5.9697,-6.0356,-5.9428,-5.9398,-5.9697,-5.9249,-5.9398,-5.9817,-6.0027,-6.0894,-6.1822,-6.2032,-6.257,-6.3019,-6.281,-6.2929,-6.3019,-6.281,-6.278,-6.278,-6.278,-6.26,-6.245,-6.245,-6.263,-6.278,-6.278,-6.2211,-6.1702,-6.1463,-6.0475,-5.9697,-5.9458,-5.9219,-5.9099,-5.9099,-5.9099,-5.9099,-5.9099,-5.9099,-5.9099,-5.9099,-5.9099,-5.8634,-5.7496,-5.8495,-5.858,-5.7496,-5.858,-5.9099,-5.9099,-5.9099,-5.9099,-5.9099,-5.9099,-5.9099,-3.9619,-4.0397,-4.1602,0.0,0.0,0.0,0.0,0.0,0.0,-6.0027,-5.7453,-5.464,-5.5957,-5.5658,-5.6526,-6.0475,-6.4425,-6.7448,-6.8794,-7.0081,-7.0649,-7.0021,-6.9961,-6.9423,-6.8076,-6.7956,-6.7388,-6.6071,-6.5981,-6.5712,-6.5054,-6.4994,-6.4695,-6.4006,-6.3977,-6.3707,-6.3079,-6.3079,-6.3079,-6.3049,-6.1732,-6.1104,-6.1074,-5.9697,-5.874,-5.8082,-5.7393,-5.7094,-5.7094,-5.7094,-5.7094,-5.7154,-5.7842,-5.8112,-5.8201,-5.886,-5.9099,-5.9099,-5.9099,-5.9099,-5.9099,-5.9099,-5.9099,-5.9249,-5.9877,-6.0565,-6.1253,-6.1912,-6.254,-6.2929,-6.2241,-6.257,-6.2899,-6.2241,-6.2091,-6.2091,-6.2091,-6.1583,-6.1104,-6.1104,-6.1642,-6.2091,-6.2091,-6.1553,-6.1343,-6.1972,-6.0386,-5.9368,-5.9997,-5.9518,-5.9099,-5.9099,-5.9099,-5.9129,-5.9129,-5.9129,-5.9129,-5.9129,-5.9129,-5.9129,-5.9099,-5.9099,-5.9099,-5.9099,-5.9129,-5.9129,-5.9129,-5.9129,-5.9129,-5.9129,-5.9129,-5.9129,-4.0965,-4.1743,0.0,0.0,0.0,0.0,0.0,0.0,0.0,0.0,-5.889,-5.7214,-5.8082,-5.8441,-5.9189,-6.0835,-6.4036,-6.6759,-6.8076,-6.9034,-6.9303,-6.8645,-6.8166,-6.7537,-6.667,-6.6161,-6.5533,-6.4665,-6.4605,-6.4306,-6.3677,-6.3647,-6.3558,-6.3348,-6.3348,-6.3258,-6.3079,-6.3079,-6.2839,-6.2391,-6.1523,-6.1104,-6.1044,-5.9249,-5.8052,-5.7363,-5.6735,-5.6436,-5.6466,-5.6915,-5.7094,-5.7154,-5.7842,-5.8411,-5.883,-5.9039,-5.9099,-5.9099,-5.9099,-5.9099,-5.9099,-5.9099,-5.9428,-5.9727,-5.9488,-6.0535,-6.1642,-6.0894,-6.1523,-6.2241,-6.1583,-6.1553,-6.1642,-6.1463,-6.1403,-6.1403,-6.1403,-6.1253,-6.1104,-6.1104,-6.1642,-6.1942,-6.1493,-6.2002,-6.2091,-6.0864,-6.0984,-6.0924,-6.0176,-5.9518,-5.9099,-5.9099,-5.9518,-5.9787,-5.9787,-6.0236,-6.0326,-5.9817,-5.9787,-5.9578,-5.9129,-5.9099,-5.9099,-5.9099,-5.9548,-5.9787,-5.9787,-6.0296,-6.0266,-5.9787,-5.9787,-5.9787,-4.1175,0.0,0.0,0.0,0.0,0.0,-5.6436,0.0,0.0,0.0,-6.0505,-5.9518,-6.0176,-5.9967,-6.0176,-6.1642,-6.4216,-6.637,-6.7418,-6.8166,-6.8345,-6.7657,-6.6999,-6.6221,-6.5293,-6.4844,-6.4336,-6.3677,-6.3617,-6.3468,-6.3109,-6.2839,-6.269,-6.269,-6.2421,-6.2301,-6.2301,-6.2301,-6.2091,-6.1702,-6.1014,-6.0565,-6.0266,-5.8501,-5.7363,-5.6675,-5.5777,-5.5388,-5.5448,-5.6077,-5.6346,-5.6406,-5.7094,-5.7752,-5.8351,-5.862,-5.871,-5.874,-5.9009,-5.8949,-5.877,-5.9009,-5.9368,-5.9608,-5.9219,-6.0116,-6.1134,-6.0326,-6.0864,-6.1553,-6.0894,-6.0715,-6.0775,-6.1044,-6.0894,-6.0715,-6.0715,-6.0505,-6.0326,-6.0326,-6.0864,-6.1164,-6.0775,-6.1373,-6.1583,-6.0625,-6.0954,-6.0924,-5.9847,-5.9578,-5.9488,-5.9488,-6.0086,-6.0505,-6.0505,-6.0625,-6.0535,-6.0116,-5.9847,-5.9518,-5.9129,-5.9099,-5.9099,-5.9099,-5.9488,-5.9817,-6.0086,-6.0236,-6.0236,-6.0086,-5.9817,-5.9847,0.0,0.0,0.0,0.0,0.0,0.0,-5.862,-6.2301,-6.4545,-6.3169,0.0,-6.1463,-6.2061,-6.0685,-6.0266,-6.275,-6.4665,-6.6041,-6.6729,-6.7328,-6.7448,-6.6789,-6.6191,-6.5323,-6.4036,-6.3917,-6.3677,-6.3109,-6.3079,-6.3049,-6.2989,-6.2421,-6.2061,-6.2002,-6.1433,-6.1074,-6.1014,-6.1014,-6.0954,-6.0835,-6.0206,-5.9518,-5.88,-5.7633,-5.6645,-5.5888,-5.464,-5.4072,-5.4072,-5.479,-5.5149,-5.5269,-5.5927,-5.6555,-5.7184,-5.7812,-5.8022,-5.8112,-5.871,-5.853,-5.8141,-5.88,-5.9009,-5.9039,-5.9099,-5.9548,-6.0086,-6.0027,-6.0505,-6.0864,-6.0176,-5.9997,-6.0146,-6.0775,-6.0446,-5.9997,-5.9997,-5.9518,-5.9099,-5.9099,-5.9638,-6.0057,-5.9997,-6.0086,-6.0416,-6.1104,-6.0565,-5.9877,-5.9368,-5.9817,-6.0146,-6.0086,-6.0745,-6.1194,-6.1194,-6.0685,-6.0326,-6.0266,-5.9638,-5.9249,-5.9189,-5.9129,-5.9099,-5.9099,-5.9159,-5.9488,-6.0086,-5.9548,-5.9608,-6.0146,-5.9488,-5.9578,0.0,-4.4167,0.0,0.0,0.0,0.0,-6.1792,-6.3258,-6.3707,-6.1912,-6.2121,-6.269,-6.2839,-6.251,-6.257,-6.3617,-6.4156,-6.4665,-6.5353,-6.5562,-6.5413,-6.4725,-6.4515,-6.4126,-6.3348,-6.3258,-6.3228,-6.3079,-6.3079,-6.2839,-6.2331,-6.2181,-6.1852,-6.1343,-6.1194,-6.0864,-6.0326,-6.0296,-5.9787,-5.877,-5.862,-5.7932,-5.6795,-5.7004,-5.5897,-5.3803,-5.3533,-5.3114,-5.2725,-5.3922,-5.473,-5.5269,-5.5927,-5.6555,-5.7124,-5.7274,-5.7304,-5.7334,-5.7483,-5.7423,-5.7423,-5.8112,-5.8351,-5.8441,-5.8949,-5.9548,-5.9967,-5.9458,-5.9787,-6.0146,-5.9488,-5.9308,-5.9338,-5.9488,-5.9428,-5.9308,-5.9308,-5.9189,-5.9099,-5.9099,-5.9638,-5.9907,-5.9398,-6.0206,-6.1104,-6.1792,-6.0864,-6.0236,-6.0625,-6.0805,-6.0685,-6.0146,-6.1164,-6.1882,-6.1882,-6.2211,-6.2211,-6.1702,-6.1044,-6.0446,-5.9907,-5.9368,-5.9099,-5.9099,-5.9608,-5.9937,-6.0086,-6.0475,-6.0745,-6.0864,-6.0206,-6.0505,0.0,0.0,0.0,0.0,0.0,0.0,0.0,-6.3079,-6.2899,-6.2211,-6.2839,-6.3438,-6.3139,-6.3079,-6.3169,-6.3498,-6.3797,-6.4126,-6.4485,-6.4545,-6.4395,-6.4036,-6.3468,-6.2959,-6.263,-6.2331,-6.2121,-6.2121,-6.2121,-6.1852,-6.1164,-6.0835,-6.0356,-5.9697,-5.9368,-5.9009,-5.865,-5.865,-5.8291,-5.7633,-5.7334,-5.6496,-5.5239,-5.5239,-5.4311,-5.2725,-5.2725,-5.2516,-5.2276,-5.3294,-5.4102,-5.476,-5.5089,-5.5807,-5.6645,-5.6645,-5.6645,-5.6705,-5.7004,-5.6885,-5.6765,-5.7423,-5.7842,-5.8201,-5.853,-5.9099,-5.9548,-5.9189,-5.9338,-5.9548,-5.9189,-5.9099,-5.9099,-5.9099,-5.9099,-5.9099,-5.9099,-5.9099,-5.9099,-5.9099,-5.9368,-5.9518,-5.9159,-5.9697,-6.0266,-6.0625,-6.0057,-5.9847,-6.0535,-6.0894,-6.1104,-6.1044,-6.1972,-6.257,-6.257,-6.26,-6.245,-6.2121,-6.1493,-6.0954,-6.0595,-6.0236,-5.9757,-5.9129,-5.9428,-5.9937,-6.0565,-6.0625,-6.0954,-6.1553,-6.0894,-6.1134,0.0,0.0,0.0,0.0,0.0,0.0,0.0,-6.2331,-6.2091,-6.263,-6.3228,-6.3558,-6.3139,-6.3079,-6.3079,-6.3079,-6.3408,-6.3677,-6.3677,-6.3558,-6.3498,-6.3498,-6.257,-6.1942,-6.1942,-6.1313,-6.0924,-6.0924,-6.0835,-6.0475,-5.9787,-5.9219,-5.862,-5.7962,-5.7304,-5.6885,-5.6765,-5.6645,-5.6526,-5.6406,-5.5777,-5.491,-5.3832,-5.3025,-5.2426,-5.2037,-5.2037,-5.1977,-5.1917,-5.2695,-5.3414,-5.4042,-5.4162,-5.494,-5.6068,-5.6068,-5.6068,-5.6077,-5.6585,-5.6436,-5.6107,-5.6735,-5.7334,-5.7812,-5.7932,-5.8411,-5.8949,-5.8949,-5.9009,-5.9099,-5.9099,-5.9099,-5.9099,-5.9099,-5.9099,-5.9099,-5.9099,-5.9099,-5.9099,-5.9099,-5.9099,-5.9099,-5.9099,-5.9099,-5.9189,-5.9428,-5.9458,-5.9697,-6.0356,-6.1044,-6.1613,-6.2061,-6.269,-6.3019,-6.2929,-6.251,-6.2181,-6.1942,-6.1433,-6.1104,-6.1104,-6.1014,-6.0475,-5.9458,-5.9458,-5.9937,-6.0924,-6.0475,-6.0894,-6.2091,-6.1433,-6.1523,0.0,0.0,0.0,0.0,0.0,0.0,0.0,0.0,-6.1283,0.0,-6.1882,-6.251,-6.2989,-6.3079,-6.3079,-6.3079,-6.266,-6.2361,-6.2361,-6.1852,-6.1493,-6.1493,-6.1343,-6.1253,-6.1253,-6.0625,-6.0206,-6.0206,-5.9697,-5.9069,-5.8411,-5.8291,-5.7932,-5.7244,-5.6615,-5.6017,-5.5448,-5.488,-5.4311,-5.3683,-5.3054,-5.2636,-5.2426,-5.1199,-5.09,-5.1349,-5.1349,-5.102,-5.0554,-5.1828,-5.2725,-5.3384,-5.3982,-5.467,-5.5329,-5.5329,-5.5329,-5.5329,-5.5418,-5.5388,-5.5418,-5.6077,-5.6346,-5.6526,-5.7064,-5.7723,-5.8261,-5.8261,-5.865,-5.9099,-5.9099,-5.9099,-5.9099,-5.9099,-5.9099,-5.9099,-5.9099,-5.9099,-5.9099,-5.9099,-5.9099,-5.9099,-5.9099,-5.9099,-5.9488,-6.0655,-6.0835,-6.1074,-6.1732,-6.2421,-6.263,-6.2151,-6.269,-6.2839,-6.2271,-6.266,-6.245,-6.1313,-6.1164,-6.1104,-6.1104,-6.0535,-6.0416,-6.0835,-6.0835,-6.0655,-6.0206,-6.0745,-6.1373,-6.2091,-6.1433,-6.1762,0.0,0.0,0.0,0.0,0.0,0.0,0.0,0.0,-5.9548,-5.9907,-5.9937,-6.0416,-6.2211,-6.254,-6.254,-6.254,-6.2271,-6.1972,-6.1583,-6.0954,-6.0535,-6.0535,-5.9907,-5.9428,-5.9428,-5.88,-5.8411,-5.8411,-5.7812,-5.7184,-5.6526,-5.6137,-5.5628,-5.494,-5.464,-5.4371,-5.4072,-5.3773,-5.3114,-5.2067,-5.1409,-5.09,-5.0541,-4.9942,-5.0062,-5.0614,-5.0614,-5.0465,-5.0255,-5.1259,-5.2037,-5.2695,-5.3384,-5.4042,-5.47,-5.5059,-5.5179,-5.5179,-5.5179,-5.5179,-5.5239,-5.5538,-5.6107,-5.6735,-5.7004,-5.7842,-5.868,-5.868,-5.889,-5.9099,-5.9099,-5.9099,-5.9099,-5.9099,-5.9099,-5.9099,-5.9099,-5.9099,-5.9099,-5.9099,-5.9099,-5.9219,-5.9608,-5.9668,-5.9997,-6.0954,-6.1104,-6.1343,-6.2002,-6.2361,-6.257,-6.263,-6.2899,-6.281,-6.2151,-6.2361,-6.2121,-6.1164,-6.1104,-6.1283,-6.1642,-6.1373,-6.1343,-6.1642,-6.1313,-6.1134,-6.1224,-6.1523,-6.2002,-6.263,-6.2361,-6.254,0.0,0.0,0.0,0.0,0.0,0.0,0.0,0.0,-5.7363,0.0,-5.7962,-5.8351,-6.0655,-6.1343,-6.1642,-6.1822,-6.1702,-6.1343,-6.0685,-6.0027,-5.9518,-5.9338,-5.8471,-5.7872,-5.7872,-5.7094,-5.6615,-5.6615,-5.5867,-5.5209,-5.47,-5.4221,-5.3713,-5.3204,-5.3025,-5.2845,-5.2665,-5.2366,-5.1708,-5.072,-5.0212,-4.9733,-4.9299,-4.9149,-4.9284,-4.9717,-4.9912,-4.9883,-4.9747,-5.0631,-5.1349,-5.2007,-5.2665,-5.3354,-5.4042,-5.47,-5.494,-5.497,-5.5119,-5.5179,-5.5179,-5.5179,-5.5837,-5.6615,-5.6615,-5.7423,-5.8381,-5.856,-5.871,-5.889,-5.9069,-5.9099,-5.9099,-5.9099,-5.9099,-5.9099,-5.9099,-5.9099,-5.9099,-5.9099,-5.9099,-5.9249,-5.9757,-5.9967,-6.0326,-6.1014,-6.1253,-6.1613,-6.2271,-6.2331,-6.254,-6.3019,-6.3079,-6.275,-6.1912,-6.2002,-6.1672,-6.0655,-6.0775,-6.1164,-6.1822,-6.1852,-6.2002,-6.2331,-6.1852,-6.1762,-6.2091,-6.2271,-6.26,-6.3079,-6.3079,-6.3079,0.0,0.0,0.0,0.0,0.0,0.0,0.0,0.0,-5.479,-5.6047,-5.6286,-5.6705,-5.8082,-5.9338,-6.0416,-6.1074,-6.0625,-5.9967,-5.9308,-5.865,-5.7992,-5.7334,-5.7184,-5.7154,-5.7154,-5.6017,-5.5299,-5.5299,-5.4072,-5.3324,-5.3294,-5.3264,-5.3204,-5.3174,-5.2576,-5.1947,-5.1319,-5.0092,-4.9479,-4.9419,-4.9389,-4.9329,-4.9299,-4.8626,-4.8356,-4.8416,-4.9045,-4.9,-4.8476,-4.9763,-5.0644,-5.1319,-5.2007,-5.2665,-5.3324,-5.4012,-5.4251,-5.4341,-5.497,-5.5179,-5.5179,-5.5179,-5.5239,-5.5299,-5.5299,-5.5777,-5.6436,-5.7034,-5.7663,-5.8321,-5.8949,-5.9099,-5.9099,-5.9099,-5.9099,-5.9099,-5.9099,-5.9099,-5.9099,-5.9099,-5.9099,-5.9129,-5.9159,-5.9668,-6.0326,-6.1014,-6.1642,-6.2271,-6.2929,-6.3019,-6.3049,-6.3079,-6.3079,-6.257,-6.1283,-6.1732,-6.1283,-5.9338,-5.9787,-6.0446,-6.1134,-6.1164,-6.1762,-6.2989,-6.2989,-6.269,-6.2091,-6.272,-6.3049,-6.3079,-6.3079,-6.3079,0.0,0.0,0.0,0.0,0.0,0.0,-4.9733,-5.087,-5.187,-5.2815,-5.3324,-5.4042,-5.5359,-5.7723,-5.9548,-5.9787,-5.9967,-5.9697,-5.862,-5.7902,-5.7214,-5.6585,-5.5748,-5.5239,-5.5239,-5.4431,-5.3892,-5.3892,-5.2665,-5.1917,-5.1917,-5.1109,-5.0707,-5.0707,-5.0451,-5.0212,-4.9972,-4.9075,-4.8626,-4.8626,-4.8207,-4.7997,-4.7997,-4.7758,-4.7668,-4.7668,-4.7908,-4.8117,-4.8386,-4.9657,-5.0122,-5.0122,-5.1618,-5.2097,-5.2067,-5.3144,-5.3832,-5.4192,-5.3982,-5.4461,-5.5119,-5.47,-5.5119,-5.5807,-5.5807,-5.6256,-5.6795,-5.7034,-5.7573,-5.8171,-5.8411,-5.88,-5.9099,-5.9099,-5.9099,-5.9099,-5.9099,-5.9099,-5.9099,-5.9099,-5.9458,-5.9877,-6.0326,-6.0954,-6.1613,-6.2271,-6.257,-6.281,-6.3049,-6.3079,-6.3079,-6.3079,-6.3079,-6.254,-6.1224,-6.1343,-6.0984,-5.9817,-5.9967,-6.0595,-6.1702,-6.1732,-6.2181,-6.3049,-6.3079,-6.2959,-6.272,-6.2959,-6.3079,-6.3079,-6.3079,-6.3079,-4.3828,0.0,0.0,0.0,0.0,-4.5622,-4.698,-4.7967,-4.8895,-5.0002,-5.093,-5.1947,-5.3294,-5.5688,-5.7603,-5.8052,-5.865,-5.862,-5.7334,-5.6735,-5.6137,-5.5269,-5.4401,-5.3773,-5.3563,-5.2905,-5.2426,-5.2217,-5.1169,-5.0571,-5.0571,-4.9733,-4.9299,-4.9299,-4.909,-4.897,-4.897,-4.8297,-4.7967,-4.7967,-4.7519,-4.7309,-4.7309,-4.7309,-4.7309,-4.7309,-4.7309,-4.7549,-4.8027,-4.9134,-4.9314,-4.9149,-5.0631,-5.1079,-5.102,-5.2127,-5.2965,-5.3503,-5.3264,-5.3922,-5.479,-5.4341,-5.494,-5.5837,-5.5837,-5.6137,-5.6496,-5.6705,-5.7124,-5.7573,-5.8022,-5.862,-5.9099,-5.9099,-5.9099,-5.9099,-5.9099,-5.9099,-5.9159,-5.9398,-5.9787,-6.0296,-6.0984,-6.1672,-6.2241,-6.269,-6.2929,-6.3079,-6.3079,-6.3079,-6.3079,-6.3079,-6.3079,-6.263,-6.1523,-6.1433,-6.1164,-6.0475,-6.0446,-6.0924,-6.2061,-6.2091,-6.2421,-6.3079,-6.3079,-6.3079,-6.3079,-6.3079,-6.3079,-6.3079,-6.3079,-6.3079,0.0,0.0,0.0,0.0,0.0,0.0,-4.4915,0.0,-4.5783,-4.7758,-4.9224,-5.0495,-5.1858,-5.3174,-5.4521,-5.5777,-5.6555,-5.6585,-5.5299,-5.5119,-5.461,-5.3294,-5.3114,-5.2845,-5.2187,-5.1558,-5.09,-5.0196,-4.9613,-4.9269,-4.9269,-4.9269,-4.9239,-4.9239,-4.8596,-4.8237,-4.8237,-4.7608,-4.7279,-4.7279,-4.7279,-4.7279,-4.7309,-4.7309,-4.7309,-4.7309,-4.7309,-4.7309,-4.7369,-4.8027,-4.8267,-4.8327,-4.906,-4.9643,-5.0255,-5.093,-5.1665,-5.2324,-5.2953,-5.3672,-5.4241,-5.4192,-5.464,-5.5179,-5.5179,-5.5179,-5.5329,-5.5957,-5.6218,-5.6496,-5.7812,-5.862,-5.9099,-5.9099,-5.9099,-5.9099,-5.9099,-5.9099,-5.9279,-5.9937,-6.0086,-6.0326,-6.1014,-6.1672,-6.2121,-6.2121,-6.266,-6.3079,-6.3079,-6.3079,-6.3079,-6.3079,-6.3079,-6.281,-6.2151,-6.2091,-6.1822,-6.1194,-6.1134,-6.1433,-6.2091,-6.2121,-6.2421,-6.3079,-6.3079,-6.3079,-6.3079,-6.3079,-6.3079,-6.3079,-6.3079,-6.3079,-4.329,0.0,0.0,0.0,0.0,0.0,-4.3129,0.0,-4.4167,-4.5214,-4.686,-4.8356,-4.9224,-5.0451,-5.1421,-5.1828,-5.3653,-5.47,-5.3862,-5.3324,-5.2725,-5.1858,-5.1349,-5.0943,-5.0764,-5.0182,-4.9733,-4.9553,-4.8925,-4.8566,-4.8566,-4.8117,-4.7848,-4.7848,-4.7668,-4.7339,-4.686,-4.6681,-4.6591,-4.6591,-4.6591,-4.683,-4.7309,-4.7309,-4.7309,-4.7309,-4.7309,-4.7309,-4.7369,-4.8027,-4.7997,-4.7698,-4.888,-4.9419,-4.9749,-5.1178,-5.244,-5.3484,-5.3668,-5.4451,-5.5272,-5.4488,-5.464,-5.5179,-5.5179,-5.5179,-5.5239,-5.5418,-5.6137,-5.7154,-5.8471,-5.8979,-5.9099,-5.9099,-5.9099,-5.9099,-5.9099,-5.9099,-5.9159,-5.9338,-6.0176,-6.0894,-6.1074,-6.2061,-6.281,-6.281,-6.2959,-6.3079,-6.3079,-6.3079,-6.3079,-6.3079,-6.3079,-6.281,-6.2151,-6.2091,-6.2032,-6.1852,-6.1822,-6.2121,-6.278,-6.281,-6.2899,-6.3079,-6.3079,-6.3079,-6.3079,-6.3079,-6.3079,-6.3079,-6.3079,-6.3079,-4.329,-4.329,-4.3349,-4.3648,0.0,0.0,-4.241,-4.2432,-4.2641,-4.3,-4.4466,-4.5843,-4.6501,-4.7698,-4.8641,-4.891,-5.0301,-5.1468,-5.1887,-5.1618,-5.1139,-5.0481,-5.0062,-4.9733,-4.9434,-4.9075,-4.879,-4.8476,-4.8087,-4.7878,-4.7878,-4.7249,-4.689,-4.689,-4.6621,-4.6292,-4.5903,-4.5903,-4.6022,-4.6279,-4.6279,-4.6681,-4.7309,-4.7309,-4.7309,-4.7309,-4.7309,-4.7309,-4.7339,-4.7728,-4.7638,-4.7369,-4.8147,-4.8876,-4.9661,-5.0981,-5.266,-5.4185,-5.3934,-5.4776,-5.5764,-5.4556,-5.464,-5.5179,-5.5179,-5.5179,-5.5239,-5.5538,-5.6316,-5.7214,-5.7752,-5.8291,-5.871,-5.871,-5.8919,-5.9099,-5.9099,-5.9099,-5.9279,-5.9847,-6.0595,-6.1283,-6.1852,-6.257,-6.3079,-6.3079,-6.3079,-6.3079,-6.3079,-6.3079,-6.3079,-6.3079,-6.3079,-6.2929,-6.254,-6.251,-6.251,-6.251,-6.251,-6.266,-6.3049,-6.3079,-6.3079,-6.3079,-6.3079,-6.3079,-6.3079,-6.3079,-6.3079,-6.3079,-6.3079,-6.3079,-4.329,-4.3349,-4.3529,-4.4077,-4.3389,0.0,-4.244,-4.2021,-4.1594,-4.1542,-4.2491,-4.3469,-4.4107,-4.5203,-4.6249,-4.689,-4.71,-4.7848,-4.9717,-4.9897,-4.9673,-4.906,-4.9,-4.8686,-4.8027,-4.7967,-4.7698,-4.713,-4.707,-4.707,-4.707,-4.6531,-4.6202,-4.6202,-4.5603,-4.5244,-4.5185,-4.5185,-4.5544,-4.6202,-4.6202,-4.6591,-4.7309,-4.7309,-4.7309,-4.7309,-4.7309,-4.7309,-4.7309,-4.7309,-4.7309,-4.7309,-4.7309,-4.8243,-4.9758,-5.0703,-5.2524,-5.4463,-5.4241,-5.5005,-5.5875,-5.4715,-5.47,-5.5179,-5.5179,-5.5179,-5.5329,-5.5987,-5.6615,-5.6974,-5.6526,-5.7184,-5.8052,-5.8201,-5.862,-5.9009,-5.9099,-5.9099,-5.9518,-6.0864,-6.1104,-6.1493,-6.275,-6.3019,-6.3079,-6.3079,-6.3079,-6.3079,-6.3079,-6.3079,-6.3079,-6.3079,-6.3079,-6.3079,-6.3079,-6.3079,-6.3079,-6.3079,-6.3079,-6.3079,-6.3079,-6.3079,-6.3079,-6.3079,-6.3079,-6.3079,-6.3079,-6.3079,-6.3079,-6.3079,-6.3079,-6.3079,-4.329,-4.3678,-4.3977,-4.3589,-4.3718,0.0,-4.265,-4.274,-4.2851,-4.2321,-4.2791,-4.3319,-4.3469,-4.4127,-4.4736,-4.4885,-4.5813,-4.701,-4.8476,-4.8207,-4.7638,-4.698,-4.689,-4.6621,-4.5933,-4.5873,-4.5813,-4.5693,-4.5693,-4.5693,-4.5693,-4.5574,-4.5514,-4.5514,-4.5364,-4.5035,-4.4496,-4.4496,-4.4825,-4.5514,-4.5514,-4.6142,-4.7309,-4.7309,-4.7309,-4.7309,-4.7309,-4.7309,-4.7309,-4.7309,-4.7309,-4.7309,-4.7309,-4.7829,-4.8866,-5.136,-5.294,-5.4013,-5.5493,-5.6157,-5.6244,-5.5323,-5.5089,-5.5179,-5.5179,-5.5179,-5.5329,-5.5987,-5.6615,-5.7184,-5.7633,-5.7513,-5.7573,-5.865,-5.859,-5.8471,-5.8979,-5.9099,-5.9518,-6.0864,-6.1104,-6.1373,-6.2151,-6.272,-6.3079,-6.3079,-6.3079,-6.3079,-6.3079,-6.3079,-6.3079,-6.3079,-6.3079,-6.3079,-6.3079,-6.3079,-6.3079,-6.3079,-6.3079,-6.3079,-6.3079,-6.3079,-6.3079,-6.3079,-6.3079,-6.3079,-6.3079,-6.3079,-6.3079,-6.3079,-6.3079,-6.3079,-4.4317,-4.4556,-4.4736,-4.4407,-4.4317,0.0,0.0,-4.2851,-4.274,-4.2051,-4.1863,-4.1863,-4.1863,-4.2132,-4.2581,-4.324,-4.4167,-4.5263,-4.6621,-4.6501,-4.6052,-4.5394,-4.4994,-4.4665,-4.4347,-4.4317,-4.4466,-4.4796,-4.4796,-4.4945,-4.5274,-4.4975,-4.4796,-4.4796,-4.4496,-4.4167,-4.3798,-4.3798,-4.4317,-4.5304,-4.5304,-4.5992,-4.7309,-4.7309,-4.7309,-4.7309,-4.7309,-4.7309,-4.7309,-4.7309,-4.7309,-4.7309,-4.7309,-4.8371,-5.0092,-5.19,-5.3909,-5.5824,-5.6316,-5.6762,-5.6886,-5.5633,-5.5179,-5.5179,-5.5179,-5.5418,-5.5688,-5.5688,-5.6137,-5.6705,-5.7064,-5.7124,-5.7363,-5.8381,-5.862,-5.871,-5.9039,-5.9099,-5.9518,-6.0864,-6.1104,-6.1433,-6.2421,-6.2869,-6.3079,-6.3079,-6.3079,-6.3079,-6.3079,-6.3079,-6.3079,-6.3079,-6.3079,-6.3079,-6.3079,-6.3079,-6.3079,-6.3079,-6.3079,-6.3079,-6.3079,-6.3079,-6.3079,-6.3079,-6.3079,-6.3079,-6.3079,-6.3079,-6.3079,-6.3079,-6.3079,-6.3079,-4.5304,-4.5484,-4.5603,-4.5364,-4.5185,-4.4855,0.0,0.0,0.0,-4.2282,-4.1504,-4.0965,-4.0965,-4.0876,-4.1085,-4.2051,-4.294,-4.3768,-4.4616,-4.4736,-4.4586,-4.4167,-4.3539,-4.305,-4.2931,-4.309,-4.3389,-4.3898,-4.4047,-4.4347,-4.4885,-4.4407,-4.4137,-4.4137,-4.3559,-4.329,-4.329,-4.329,-4.3947,-4.5304,-4.5304,-4.5992,-4.7309,-4.7309,-4.7309,-4.7309,-4.7309,-4.7309,-4.7309,-4.7309,-4.7309,-4.7309,-4.7495,-4.9068,-5.1359,-5.2459,-5.4771,-5.7297,-5.6589,-5.6774,-5.7026,-5.5512,-5.5089,-5.5179,-5.5179,-5.5658,-5.6047,-5.5388,-5.5658,-5.6248,-5.6316,-5.6645,-5.7154,-5.8082,-5.862,-5.8949,-5.9069,-5.9099,-5.9518,-6.0864,-6.1104,-6.1523,-6.2839,-6.3079,-6.3079,-6.3079,-6.3079,-6.3079,-6.3079,-6.3079,-6.3079,-6.3079,-6.3079,-6.3079,-6.3079,-6.3079,-6.3079,-6.3079,-6.3079,-6.3079,-6.3079,-6.3079,-6.3079,-6.3079,-6.3079,-6.3079,-6.3079,-6.3079,-6.3079,-6.3079,-6.3079,-6.3079,-4.5304,-4.6172,-4.68,-4.5603,-4.6561,-4.7339,-4.5484,0.0,-4.5693,-4.5005,0.0,-4.2961,-4.2961,0.0,0.0,-4.1602,-4.303,-4.3838,-4.289,-4.274,-4.288,-4.3349,-4.2851,-4.2291,-4.1654,-4.2171,-4.256,-4.262,-4.312,-4.3439,-4.3499,-4.3439,-4.3409,-4.3409,-4.3319,-4.329,-4.329,-4.329,-4.3947,-4.5304,-4.5304,-4.5992,-4.7309,-4.7309,-4.7309,-4.7309,-4.7309,-4.7309,-4.7309,-4.7309,-4.7309,-4.7366,-4.8293,-4.9244,-5.036,-5.3006,-5.4628,-5.5589,-5.5679,-5.5762,-5.5661,-5.4661,-5.473,-5.5179,-5.5179,-5.5658,-5.6047,-5.5388,-5.5658,-5.6286,-5.6855,-5.6645,-5.6735,-5.856,-5.859,-5.8411,-5.8979,-5.9099,-5.9518,-6.0864,-6.1104,-6.1523,-6.2839,-6.3079,-6.3079,-6.3079,-6.3079,-6.3079,-6.3079,-6.3079,-6.3079,-6.3079,-6.3079,-6.3079,-6.3079,-6.3079,-6.3079,-6.3079,-6.3079,-6.3079,-6.3079,-6.3079,-6.3079,-6.3079,-6.3079,-6.3079,-6.3079,-6.3079,-6.3079,-6.3079,-6.3079,-6.3079,-4.6471,-4.7429,-4.8117,-4.68,-4.7369,-4.7878,-4.6262,-4.5813,-4.5633,-4.5364,0.0,0.0,0.0,0.0,0.0,0.0,-4.2312,-4.2551,-4.241,-4.1752,-4.1474,-4.2132,-4.1294,-4.0546,-4.0277,-4.0846,-4.1235,-4.1235,-4.2192,-4.2761,-4.2761,-4.3479,-4.3898,-4.3898,-4.4287,-4.4287,-4.3858,-4.3898,-4.4377,-4.5304,-4.5304,-4.5992,-4.7309,-4.7309,-4.7309,-4.7309,-4.7309,-4.7309,-4.7309,-4.7309,-4.7309,-4.7469,-4.8848,-5.0215,-5.162,-5.2817,-5.4782,-5.6663,-5.5877,-5.5602,-5.5439,-5.4539,-5.464,-5.5179,-5.5179,-5.5388,-5.5538,-5.5269,-5.5388,-5.5748,-5.6406,-5.6645,-5.7004,-5.8231,-5.862,-5.886,-5.9548,-5.9668,-6.0086,-6.1433,-6.1672,-6.1972,-6.2929,-6.3079,-6.3079,-6.3079,-6.3079,-6.3079,-6.3079,-6.3079,-6.3079,-6.3079,-6.3079,-6.3079,-6.3079,-6.3079,-6.3079,-6.3079,-6.3079,-6.3079,-6.3079,-6.3079,-6.3079,-6.3079,-6.3079,-6.3079,-6.3079,-6.3079,-6.3079,-6.3079,-6.3079,-6.3079,-4.7486,-4.8386,-4.9164,-4.7668,-4.7788,-4.7997,-4.686,-4.6352,-4.6052,-4.5873,-4.5454,0.0,0.0,0.0,-4.3099,-4.274,0.0,-4.2162,-4.2141,-4.1265,-4.0786,-4.1085,-4.0098,-3.9373,-3.9373,-4.0008,-4.0397,-4.0397,-4.1662,-4.241,-4.241,-4.3419,-4.4137,-4.4317,-4.4766,-4.4885,-4.4586,-4.4407,-4.4736,-4.5574,-4.5394,-4.5992,-4.7309,-4.7309,-4.7309,-4.7309,-4.7309,-4.7309,-4.7309,-4.7309,-4.7452,-4.7825,-4.8943,-5.0859,-5.3025,-5.3219,-5.5034,-5.7252,-5.583,-5.5058,-5.4603,-5.4086,-5.4371,-5.497,-5.5149,-5.5179,-5.5179,-5.5179,-5.5179,-5.5388,-5.6196,-5.6765,-5.7304,-5.8171,-5.877,-5.9279,-5.9937,-6.0086,-6.0475,-6.1822,-6.2091,-6.2301,-6.2959,-6.3079,-6.3079,-6.3079,-6.3079,-6.3079,-6.3079,-6.3079,-6.3079,-6.3079,-6.3079,-6.3079,-6.3079,-6.3079,-6.3079,-6.3079,-6.3079,-6.3079,-6.3079,-6.3079,-6.3079,-6.3079,-6.3079,-6.3079,-6.3079,-6.3079,-6.3079,-6.3079,-6.3079,-6.3079,-4.7912,-4.8716,-4.9687,-4.7788,-4.7788,-4.8117,-4.7429,-4.7758,-4.7997,-4.7369,-4.7219,-4.701,-4.6309,-4.5663,-4.4796,-4.3469,-4.3808,0.0,0.0,-4.1422,-4.1115,-4.0516,-3.9828,-3.9373,-3.9373,-4.0008,-4.0397,-4.0397,-4.1662,-4.241,-4.241,-4.3,-4.3618,-4.4287,-4.4347,-4.4646,-4.5244,-4.4616,-4.4975,-4.6249,-4.5603,-4.5992,-4.7309,-4.7309,-4.7309,-4.7309,-4.7309,-4.7309,-4.7309,-4.7309,-4.7861,-4.8738,-4.8447,-5.0653,-5.4124,-5.4777,-5.5539,-5.6087,-5.5002,-5.3632,-5.2402,-5.3043,-5.3683,-5.4371,-5.4999,-5.5179,-5.5179,-5.5179,-5.5179,-5.5478,-5.6735,-5.7094,-5.7423,-5.877,-5.9099,-5.9279,-5.9937,-6.0086,-6.0475,-6.1822,-6.2091,-6.2301,-6.2959,-6.3079,-6.3079,-6.3079,-6.3079,-6.3079,-6.3079,-6.3079,-6.3079,-6.3079,-6.3079,-6.3079,-6.3079,-6.3079,-6.3079,-6.3079,-6.3079,-6.3079,-6.3079,-6.3079,-6.3079,-6.3079,-6.3079,-6.3079,-6.3079,-6.3079,-6.3079,-6.3079,-6.3079,-6.3079,-5.0703,-5.1274,-5.1618,-4.9194,-4.9434,-4.9703,-4.7758,-4.8147,-4.8626,-4.7519,-4.7997,-4.8147,-4.6621,-4.5753,-4.5005,-4.4137,-4.3449,-4.268,0.0,-4.0636,-4.0008,-3.9768,-3.9559,-3.9373,-3.9373,-4.0008,-4.0217,-3.9798,-4.0965,-4.1534,-4.1085,-4.2521,-4.3409,-4.3688,-4.4526,-4.4855,-4.4646,-4.4855,-4.5185,-4.5633,-4.5873,-4.6441,-4.7309,-4.7309,-4.7309,-4.7309,-4.7309,-4.7309,-4.7309,-4.7309,-4.7861,-4.8893,-4.9701,-5.0807,-5.2096,-5.356,-5.5495,-5.7039,-5.5247,-5.3557,-5.2247,-5.2456,-5.3294,-5.4251,-5.4491,-5.485,-5.5179,-5.5179,-5.5179,-5.5388,-5.6256,-5.6795,-5.7334,-5.8231,-5.88,-5.9428,-6.0535,-6.0775,-6.1164,-6.248,-6.275,-6.281,-6.3049,-6.3079,-6.3079,-6.3079,-6.3079,-6.3079,-6.3079,-6.3079,-6.3079,-6.3079,-6.3079,-6.3079,-6.3079,-6.3079,-6.3079,-6.3079,-6.3079,-6.3079,-6.3079,-6.3079,-6.3079,-6.3079,-6.3079,-6.3079,-6.3079,-6.3079,-6.3079,-6.3079,-6.3079,-6.3079,-5.258,-5.2749,-5.2665,-5.0511,-5.0601,-5.0661,-4.8506,-4.8835,-4.9254,-4.7938,-4.8327,-4.8536,-4.7249,-4.6292,-4.5454,-4.4766,-4.3748,-4.2671,0.0,-4.0247,-3.9373,-3.9373,-3.9373,-3.9373,-3.9373,-3.9798,-3.9888,-3.9403,-4.0427,-4.0846,-4.0427,-4.2043,-4.312,-4.3359,-4.4407,-4.4975,-4.5035,-4.5214,-4.5544,-4.6022,-4.6232,-4.6681,-4.7309,-4.7309,-4.7309,-4.7309,-4.7309,-4.7495,-4.7849,-4.7849,-4.8636,-5.0018,-5.1086,-5.191,-5.2685,-5.3606,-5.4867,-5.5929,-5.4473,-5.3076,-5.1917,-5.2396,-5.3144,-5.3922,-5.4401,-5.485,-5.5179,-5.5179,-5.5359,-5.5688,-5.6346,-5.6974,-5.7633,-5.8321,-5.88,-5.9488,-6.0835,-6.1104,-6.1493,-6.281,-6.3079,-6.3079,-6.3079,-6.3079,-6.3079,-6.3079,-6.3079,-6.3079,-6.3079,-6.3079,-6.3079,-6.3079,-6.3079,-6.3079,-6.3079,-6.3079,-6.3079,-6.3079,-6.3079,-6.3079,-6.3079,-6.3079,-6.3079,-6.3079,-6.3079,-6.3079,-6.3079,-6.3079,-6.3079,-6.3079,-6.3079,-6.3079]},{"header":{"parameterUnit":"m.s-1","parameterCategory":1,"la1":30.6,"la2":29.2853,"lo1":-89.7004,"lo2":-87.6739,"dy":0.0162,"dx":0.0183,"nx":112,"ny":82,"refTime":"2023-06-12T12:00:00:Z","depth":0,"parameterNumber":3,"parameterNumberName":"V-component_of_WINDS"},"data":[0.0,0.0,0.0,0.0,0.0,0.0,0.0,0.0,0.0,0.0,0.0,0.0,0.0,0.0,0.0,0.0,0.0,0.0,0.0,0.0,0.0,0.0,0.0,0.0,0.0,0.0,0.0,0.0,0.0,0.0,0.0,0.0,0.0,0.0,0.0,0.0,0.0,0.0,0.0,0.0,0.0,0.0,0.0,0.0,0.0,0.0,0.0,0.0,0.0,0.0,0.0,0.0,0.0,0.0,0.0,0.0,0.0,0.0,0.0,0.0,0.0,0.0,0.0,0.0,0.0,0.0,0.0,0.0,0.0,0.0,0.0,0.0,0.0,0.0,0.0,0.0,0.0,0.0,0.0,0.0,0.0,0.0,0.0,0.0,0.0,0.0,0.0,0.0,0.0,0.0,-4.0239,-4.4243,-5.2131,-5.7723,-5.9279,-6.0595,-5.8022,-5.0258,0.0,0.0,0.0,0.0,0.0,0.0,0.0,0.0,0.0,0.0,0.0,0.0,0.0,0.0,0.0,0.0,0.0,0.0,0.0,0.0,0.0,0.0,0.0,0.0,0.0,0.0,0.0,0.0,0.0,0.0,0.0,0.0,0.0,0.0,0.0,0.0,0.0,0.0,0.0,0.0,0.0,0.0,0.0,0.0,0.0,0.0,0.0,0.0,0.0,0.0,0.0,0.0,0.0,0.0,0.0,0.0,0.0,0.0,0.0,0.0,0.0,0.0,0.0,0.0,0.0,0.0,0.0,0.0,0.0,0.0,0.0,0.0,0.0,0.0,0.0,0.0,0.0,0.0,0.0,0.0,0.0,0.0,0.0,0.0,0.0,0.0,0.0,0.0,0.0,0.0,0.0,0.0,0.0,0.0,0.0,0.0,0.0,0.0,0.0,0.0,0.0,0.0,0.0,0.0,-4.265,-4.9344,-5.4241,-5.8112,-6.0595,-5.8979,-5.6107,-5.2007,0.0,0.0,0.0,0.0,0.0,0.0,0.0,0.0,0.0,0.0,0.0,0.0,0.0,0.0,0.0,0.0,0.0,0.0,0.0,0.0,0.0,0.0,0.0,0.0,0.0,0.0,0.0,0.0,0.0,0.0,0.0,0.0,0.0,0.0,0.0,0.0,0.0,0.0,0.0,0.0,0.0,0.0,0.0,0.0,0.0,0.0,0.0,0.0,0.0,0.0,0.0,0.0,0.0,0.0,0.0,0.0,0.0,0.0,0.0,0.0,0.0,0.0,0.0,0.0,0.0,0.0,0.0,0.0,0.0,0.0,0.0,0.0,0.0,0.0,0.0,0.0,0.0,0.0,0.0,0.0,0.0,0.0,0.0,0.0,0.0,0.0,0.0,0.0,0.0,0.0,0.0,0.0,0.0,0.0,0.0,0.0,0.0,0.0,0.0,0.0,0.0,0.0,0.0,-4.2522,-4.5424,-5.1618,-5.5179,-5.8022,-6.0356,-5.877,-5.5777,-5.1409,-4.9583,0.0,0.0,0.0,0.0,0.0,0.0,0.0,0.0,0.0,0.0,0.0,0.0,0.0,0.0,0.0,0.0,0.0,0.0,0.0,0.0,0.0,0.0,0.0,0.0,0.0,0.0,0.0,0.0,0.0,0.0,0.0,0.0,0.0,0.0,0.0,0.0,0.0,0.0,0.0,0.0,0.0,0.0,0.0,0.0,0.0,0.0,0.0,0.0,0.0,0.0,0.0,0.0,0.0,0.0,0.0,0.0,0.0,0.0,0.0,0.0,0.0,0.0,0.0,0.0,0.0,0.0,0.0,0.0,0.0,0.0,0.0,0.0,0.0,0.0,0.0,0.0,0.0,0.0,0.0,0.0,0.0,0.0,0.0,0.0,0.0,0.0,0.0,0.0,0.0,0.0,0.0,0.0,0.0,0.0,0.0,0.0,0.0,0.0,0.0,0.0,0.0,0.0,-4.4796,-4.7249,-5.2396,-5.5448,-5.7842,-5.9697,-5.8231,-5.5269,-5.0704,-4.7908,0.0,0.0,0.0,0.0,0.0,0.0,0.0,0.0,0.0,0.0,0.0,0.0,0.0,0.0,0.0,0.0,0.0,0.0,0.0,0.0,0.0,0.0,0.0,0.0,0.0,0.0,0.0,0.0,0.0,0.0,0.0,0.0,0.0,0.0,0.0,0.0,0.0,0.0,0.0,0.0,0.0,0.0,0.0,0.0,0.0,0.0,0.0,0.0,0.0,0.0,0.0,0.0,0.0,0.0,0.0,0.0,0.0,0.0,0.0,0.0,0.0,0.0,0.0,0.0,0.0,0.0,0.0,0.0,0.0,0.0,0.0,0.0,0.0,0.0,0.0,0.0,0.0,0.0,0.0,0.0,0.0,0.0,0.0,0.0,0.0,0.0,0.0,0.0,0.0,0.0,0.0,0.0,0.0,0.0,0.0,0.0,0.0,0.0,0.0,0.0,0.0,0.0,-4.4496,-4.707,-5.1768,-5.5149,-5.7663,-5.9069,-5.6286,-5.3533,-5.1289,-4.6441,0.0,0.0,0.0,0.0,0.0,0.0,0.0,0.0,0.0,0.0,0.0,0.0,0.0,0.0,0.0,0.0,0.0,0.0,0.0,0.0,0.0,0.0,0.0,0.0,0.0,0.0,0.0,0.0,0.0,0.0,0.0,0.0,0.0,0.0,0.0,0.0,0.0,0.0,0.0,0.0,0.0,0.0,0.0,0.0,0.0,0.0,0.0,0.0,0.0,0.0,0.0,0.0,0.0,0.0,0.0,0.0,0.0,0.0,0.0,0.0,0.0,0.0,0.0,0.0,0.0,0.0,0.0,0.0,0.0,0.0,0.0,0.0,0.0,0.0,0.0,0.0,0.0,0.0,0.0,0.0,0.0,0.0,0.0,0.0,0.0,0.0,0.0,0.0,0.0,0.0,0.0,0.0,0.0,0.0,0.0,0.0,0.0,0.0,0.0,0.0,0.0,0.0,-4.5813,-4.8446,-5.1828,-5.479,-5.6885,-5.7782,-5.5987,-5.3443,-5.0212,0.0,0.0,0.0,0.0,0.0,0.0,0.0,0.0,0.0,0.0,0.0,0.0,0.0,0.0,0.0,0.0,0.0,0.0,0.0,0.0,0.0,0.0,0.0,0.0,0.0,0.0,0.0,0.0,0.0,0.0,0.0,0.0,0.0,0.0,0.0,0.0,0.0,0.0,0.0,0.0,0.0,0.0,0.0,0.0,0.0,0.0,0.0,0.0,0.0,0.0,0.0,0.0,0.0,0.0,0.0,0.0,0.0,0.0,0.0,0.0,0.0,0.0,0.0,0.0,0.0,0.0,0.0,0.0,0.0,0.0,0.0,0.0,0.0,0.0,0.0,0.0,0.0,0.0,0.0,0.0,0.0,0.0,0.0,0.0,0.0,0.0,0.0,0.0,0.0,0.0,0.0,0.0,0.0,0.0,0.0,0.0,0.0,0.0,0.0,0.0,0.0,0.0,-4.4347,-4.677,-4.9374,-5.2217,-5.488,-5.6645,-5.7064,-5.5149,-5.2785,-5.0062,0.0,0.0,0.0,0.0,0.0,0.0,0.0,0.0,0.0,0.0,0.0,0.0,0.0,0.0,0.0,0.0,0.0,0.0,0.0,0.0,0.0,0.0,0.0,0.0,0.0,0.0,0.0,0.0,0.0,0.0,0.0,0.0,0.0,0.0,0.0,0.0,0.0,0.0,0.0,0.0,0.0,0.0,0.0,0.0,0.0,0.0,0.0,0.0,0.0,0.0,0.0,0.0,0.0,0.0,0.0,0.0,0.0,0.0,0.0,0.0,0.0,0.0,0.0,0.0,0.0,0.0,0.0,0.0,0.0,0.0,0.0,0.0,0.0,0.0,0.0,0.0,0.0,0.0,0.0,0.0,0.0,0.0,0.0,0.0,0.0,0.0,0.0,0.0,0.0,0.0,0.0,0.0,0.0,0.0,0.0,0.0,0.0,0.0,0.0,0.0,0.0,0.0,-4.4975,-4.704,-4.9553,-5.2845,-5.5508,-5.7094,-5.7094,-5.3503,-5.1229,0.0,0.0,0.0,0.0,0.0,0.0,0.0,0.0,0.0,0.0,0.0,0.0,0.0,0.0,0.0,0.0,0.0,0.0,0.0,0.0,0.0,0.0,0.0,0.0,0.0,0.0,0.0,0.0,0.0,0.0,0.0,0.0,0.0,0.0,0.0,0.0,0.0,0.0,0.0,0.0,0.0,0.0,0.0,0.0,0.0,0.0,0.0,0.0,0.0,0.0,0.0,0.0,0.0,0.0,0.0,0.0,0.0,0.0,0.0,0.0,0.0,0.0,0.0,0.0,0.0,0.0,0.0,0.0,0.0,0.0,0.0,0.0,0.0,0.0,0.0,0.0,0.0,0.0,0.0,0.0,0.0,0.0,0.0,0.0,0.0,0.0,0.0,0.0,0.0,0.0,0.0,0.0,0.0,0.0,0.0,0.0,0.0,0.0,0.0,0.0,0.0,0.0,0.0,-4.5693,-4.7339,-4.9553,-5.2845,-5.5149,-5.6436,-5.6436,-5.4072,-5.2007,-5.0554,0.0,0.0,0.0,0.0,0.0,0.0,0.0,0.0,0.0,0.0,0.0,0.0,0.0,0.0,0.0,0.0,0.0,0.0,0.0,0.0,0.0,0.0,0.0,0.0,0.0,0.0,0.0,0.0,0.0,0.0,0.0,0.0,0.0,0.0,0.0,0.0,0.0,0.0,0.0,0.0,0.0,0.0,0.0,0.0,0.0,0.0,0.0,0.0,0.0,0.0,0.0,0.0,0.0,0.0,0.0,0.0,0.0,0.0,0.0,0.0,0.0,0.0,0.0,0.0,0.0,0.0,0.0,0.0,0.0,0.0,0.0,0.0,0.0,0.0,0.0,0.0,0.0,0.0,0.0,0.0,0.0,0.0,0.0,0.0,0.0,0.0,0.0,0.0,0.0,0.0,0.0,0.0,0.0,0.0,0.0,0.0,0.0,0.0,0.0,0.0,0.0,0.0,-4.677,-4.8476,-5.072,-5.4012,-5.5927,-5.6944,-5.6944,-5.464,-5.2456,-5.0704,0.0,0.0,0.0,0.0,0.0,0.0,0.0,0.0,0.0,0.0,0.0,0.0,0.0,0.0,0.0,0.0,0.0,0.0,0.0,0.0,0.0,0.0,0.0,0.0,0.0,0.0,0.0,0.0,0.0,0.0,0.0,0.0,0.0,0.0,0.0,0.0,0.0,0.0,0.0,0.0,0.0,0.0,0.0,0.0,0.0,0.0,0.0,0.0,0.0,0.0,0.0,0.0,0.0,0.0,0.0,0.0,0.0,0.0,0.0,0.0,0.0,0.0,0.0,0.0,0.0,0.0,0.0,0.0,0.0,0.0,0.0,0.0,0.0,0.0,0.0,0.0,0.0,0.0,0.0,0.0,0.0,0.0,0.0,0.0,0.0,0.0,0.0,0.0,0.0,0.0,0.0,0.0,0.0,0.0,0.0,0.0,0.0,0.0,0.0,0.0,0.0,0.0,-4.8027,-5.0032,-5.2516,-5.5897,-5.7363,-5.8112,-5.8112,-5.5149,-5.2725,-5.1379,0.0,0.0,0.0,0.0,0.0,0.0,0.0,0.0,0.0,0.0,0.0,0.0,0.0,0.0,0.0,0.0,0.0,0.0,0.0,0.0,0.0,0.0,0.0,0.0,0.0,0.0,0.0,0.0,0.0,0.0,0.0,0.0,0.0,0.0,0.0,0.0,0.0,0.0,0.0,0.0,0.0,0.0,0.0,0.0,0.0,0.0,0.0,0.0,0.0,0.0,0.0,0.0,0.0,0.0,0.0,0.0,0.0,0.0,0.0,0.0,-4.4002,-4.3771,0.0,0.0,0.0,0.0,0.0,0.0,0.0,0.0,0.0,0.0,0.0,0.0,0.0,0.0,0.0,0.0,0.0,0.0,0.0,0.0,0.0,0.0,0.0,0.0,0.0,0.0,0.0,0.0,0.0,0.0,0.0,0.0,0.0,0.0,0.0,0.0,0.0,0.0,0.0,0.0,-4.87,-5.0331,-5.2665,-5.6496,-5.7633,-5.8112,-5.8112,-5.5568,-5.3414,-5.2067,-4.8416,0.0,0.0,0.0,0.0,0.0,0.0,0.0,0.0,0.0,0.0,0.0,0.0,0.0,0.0,0.0,0.0,0.0,0.0,0.0,0.0,0.0,0.0,0.0,0.0,0.0,0.0,0.0,0.0,0.0,0.0,0.0,0.0,0.0,0.0,0.0,0.0,0.0,0.0,0.0,0.0,0.0,0.0,0.0,0.0,0.0,0.0,0.0,0.0,0.0,0.0,0.0,0.0,0.0,0.0,0.0,0.0,0.0,0.0,0.0,-4.6229,-4.5362,0.0,0.0,0.0,0.0,0.0,0.0,0.0,0.0,0.0,0.0,0.0,0.0,0.0,0.0,0.0,0.0,0.0,0.0,0.0,0.0,0.0,0.0,0.0,0.0,0.0,0.0,0.0,0.0,0.0,0.0,0.0,0.0,0.0,0.0,0.0,0.0,0.0,0.0,0.0,0.0,-4.9823,-5.1648,-5.3922,-5.7244,-5.8201,-5.8471,-5.8141,-5.6017,-5.3832,-5.1858,-4.8925,0.0,0.0,0.0,0.0,0.0,0.0,0.0,0.0,0.0,0.0,0.0,0.0,0.0,0.0,0.0,0.0,0.0,0.0,0.0,0.0,0.0,0.0,0.0,0.0,0.0,0.0,0.0,0.0,0.0,0.0,0.0,0.0,0.0,0.0,0.0,0.0,0.0,0.0,0.0,0.0,0.0,0.0,0.0,0.0,0.0,0.0,0.0,0.0,0.0,0.0,0.0,0.0,0.0,-4.6792,-4.7369,-4.903,-5.0449,-5.112,-5.096,-4.9217,-4.7676,-4.6441,-4.6919,0.0,0.0,0.0,0.0,0.0,0.0,0.0,0.0,0.0,0.0,0.0,0.0,0.0,0.0,0.0,0.0,0.0,0.0,0.0,0.0,0.0,0.0,-4.8327,-5.0226,-5.1169,-5.069,-4.7519,0.0,0.0,0.0,0.0,0.0,0.0,0.0,0.0,0.0,0.0,0.0,-5.087,-5.2965,-5.5269,-5.7992,-5.868,-5.871,-5.8171,-5.6226,-5.4042,-5.1708,-4.9613,-4.7369,0.0,0.0,0.0,0.0,0.0,0.0,0.0,0.0,0.0,0.0,0.0,0.0,0.0,0.0,0.0,0.0,0.0,0.0,0.0,0.0,0.0,0.0,0.0,0.0,0.0,0.0,0.0,0.0,0.0,0.0,0.0,0.0,-4.0113,-4.0113,0.0,0.0,0.0,0.0,0.0,0.0,0.0,0.0,0.0,0.0,0.0,0.0,0.0,-4.715,-4.9645,-5.0771,-5.1117,-5.0605,-5.1066,-5.1439,-5.1708,-5.251,-5.347,-5.4581,-5.539,0.0,-4.8813,-4.833,0.0,0.0,0.0,0.0,0.0,0.0,0.0,0.0,0.0,0.0,0.0,0.0,0.0,0.0,0.0,0.0,0.0,0.0,0.0,0.0,0.0,0.0,-5.0315,-5.2336,-5.2845,-5.2935,-5.3025,-5.084,-4.8506,-4.7279,-4.5723,-4.4736,0.0,0.0,0.0,0.0,0.0,0.0,-5.087,-5.2965,-5.5418,-5.865,-5.853,-5.8231,-5.8141,-5.5807,-5.3922,-5.2995,-5.0587,-4.8476,-4.698,-4.5693,0.0,0.0,0.0,0.0,0.0,0.0,0.0,0.0,0.0,0.0,0.0,0.0,0.0,0.0,0.0,0.0,0.0,0.0,0.0,0.0,0.0,0.0,0.0,0.0,0.0,0.0,0.0,0.0,0.0,-4.117,-4.1343,-3.964,-4.0581,-4.0542,0.0,0.0,0.0,0.0,0.0,0.0,0.0,0.0,0.0,-4.7164,-4.8486,-4.994,-5.141,-5.2409,-5.3459,-5.4521,-5.4461,-5.4999,-5.6107,-5.6765,-5.7603,-5.856,-5.9488,-5.8171,-5.5149,-5.2636,-5.0272,-4.8057,0.0,0.0,0.0,0.0,-4.8356,-4.9434,-5.1229,-5.1618,-5.1319,-5.1319,0.0,0.0,0.0,0.0,0.0,0.0,0.0,-4.8386,-5.0152,-5.2336,-5.4581,-5.6585,-5.7064,-5.7034,-5.6974,-5.494,-5.2306,-4.9494,-4.7938,-4.695,-4.6501,-4.5873,0.0,0.0,0.0,-4.9344,-5.1977,-5.4072,-5.6286,-5.883,-5.853,-5.7812,-5.7094,-5.5628,-5.3982,-5.2187,-5.0661,-4.9045,-4.7369,-4.6381,-4.5244,0.0,0.0,0.0,0.0,0.0,0.0,0.0,0.0,0.0,0.0,0.0,0.0,0.0,0.0,0.0,0.0,0.0,0.0,0.0,0.0,0.0,0.0,0.0,0.0,0.0,0.0,0.0,0.0,-4.1937,-4.2245,-3.9462,-4.1406,-4.174,0.0,0.0,0.0,0.0,0.0,0.0,-4.6232,-4.7908,-4.9494,-5.1036,-5.2306,-5.3294,-5.3952,-5.479,-5.6107,-5.7842,-5.7573,-5.8291,-5.9877,-6.0386,-6.0984,-6.1642,-6.2121,-6.1762,-6.0565,-5.6765,-5.4042,-5.2097,-5.078,-5.0108,-4.9972,-5.1439,-5.2516,-5.3503,-5.5478,-5.5837,-5.5299,-5.4491,-5.3653,-5.2187,-4.7878,0.0,0.0,0.0,0.0,-5.0917,-5.3503,-5.5897,-5.8112,-6.0116,-6.0595,-6.0416,-5.9757,-5.8082,-5.5538,-5.1738,-5.0331,-4.9404,-4.8237,-4.7519,0.0,-4.7728,-4.8925,-5.0661,-5.3114,-5.5029,-5.6915,-5.889,-5.8351,-5.7393,-5.6308,-5.5239,-5.3743,-5.1618,-5.0644,-4.9448,-4.7878,-4.701,-4.5933,-4.4586,0.0,0.0,0.0,0.0,0.0,0.0,0.0,0.0,0.0,0.0,0.0,0.0,0.0,0.0,0.0,0.0,0.0,0.0,0.0,0.0,0.0,0.0,0.0,0.0,0.0,0.0,0.0,0.0,0.0,-4.0109,-4.2655,0.0,0.0,0.0,0.0,-4.5807,-4.7203,-4.9075,-5.1648,-5.2486,-5.3803,-5.5829,-5.7094,-5.8082,-5.874,-6.0057,-6.0446,-5.9937,-6.0565,-6.1253,-6.1942,-6.1972,-6.2361,-6.2989,-6.3019,-6.2989,-6.266,-5.9308,-5.6765,-5.485,-5.3503,-5.3354,-5.3922,-5.4012,-5.488,-5.6038,-5.6188,-5.6188,-5.6577,-5.8919,-5.883,-5.7154,-5.3773,-5.2306,0.0,0.0,-5.2905,-5.3593,-5.6226,-5.7962,-5.9518,-6.1523,-6.2002,-6.1822,-6.1164,-5.9428,-5.7034,-5.3683,-5.2007,-5.09,-5.0166,0.0,-4.9179,-4.9209,-5.0272,-5.1858,-5.3892,-5.5329,-5.6915,-5.889,-5.7932,-5.6885,-5.6226,-5.4401,-5.2965,-5.2187,-5.0913,-4.9912,-4.9239,-4.7938,-4.6621,-4.5274,-4.4616,0.0,0.0,0.0,0.0,0.0,0.0,0.0,0.0,0.0,0.0,0.0,0.0,0.0,0.0,0.0,0.0,0.0,0.0,0.0,0.0,0.0,0.0,0.0,0.0,0.0,0.0,0.0,0.0,-4.4267,-4.7122,0.0,-4.6395,-4.7419,-4.8514,-4.9374,-5.1109,-5.3054,-5.5239,-5.6406,-5.7723,-5.9308,-6.0206,-6.0805,-6.1044,-6.1493,-6.1822,-6.2002,-6.1822,-6.2091,-6.272,-6.272,-6.2839,-6.3079,-6.3079,-6.3318,-6.3588,-6.2391,-6.1014,-5.9548,-5.865,-5.8171,-5.8082,-5.8979,-5.9308,-5.9488,-6.0326,-6.0356,-5.9847,-5.9069,-5.7363,-5.5388,-5.4192,-5.3683,-5.3713,-5.479,-5.5718,-5.6885,-5.9099,-6.0356,-6.1313,-6.245,-6.2391,-6.2032,-6.1792,-6.0505,-5.8919,-5.7304,-5.491,-5.2935,-5.2247,-5.1588,-5.1169,-5.1169,-5.1917,-5.2905,-5.4072,-5.5359,-5.6585,-5.7693,-5.7034,-5.6077,-5.4999,-5.3443,-5.1917,-5.0421,-4.9464,-4.8506,-4.7429,-4.692,-4.6052,-4.4676,-4.4436,-4.3947,0.0,0.0,0.0,0.0,0.0,0.0,0.0,0.0,0.0,0.0,0.0,0.0,0.0,0.0,0.0,0.0,0.0,0.0,0.0,0.0,0.0,0.0,0.0,0.0,0.0,-4.628,-4.852,-4.7895,-5.0975,-5.2534,-5.0783,-5.1768,-5.2935,-5.3803,-5.5538,-5.7304,-5.9009,-5.9967,-6.0864,-6.1762,-6.2211,-6.2331,-6.2091,-6.2301,-6.254,-6.275,-6.254,-6.266,-6.3079,-6.3288,-6.3378,-6.3408,-6.3647,-6.3977,-6.4366,-6.4575,-6.4186,-6.3348,-6.269,-6.2151,-6.1822,-6.251,-6.245,-6.2181,-6.2839,-6.278,-6.2091,-6.0116,-5.8291,-5.6825,-5.6615,-5.6376,-5.6466,-5.7782,-5.865,-5.9548,-6.1313,-6.2091,-6.254,-6.2959,-6.275,-6.2361,-6.2151,-6.1403,-6.0505,-5.9608,-5.7334,-5.5239,-5.4341,-5.3832,-5.3533,-5.3533,-5.3922,-5.4521,-5.5418,-5.6077,-5.6735,-5.7363,-5.6466,-5.5299,-5.3982,-5.2636,-5.102,-4.912,-4.8327,-4.7459,-4.6339,-4.6082,-4.5454,-4.4347,-4.3879,-4.3555,-4.3319,0.0,0.0,0.0,0.0,0.0,0.0,0.0,0.0,0.0,0.0,0.0,0.0,0.0,0.0,0.0,0.0,0.0,0.0,0.0,0.0,0.0,0.0,0.0,-4.5212,-4.9111,-5.1748,-5.0764,-5.4068,-5.5649,-5.3683,-5.5777,-5.7812,-5.9129,-6.0446,-6.1762,-6.3049,-6.3109,-6.3109,-6.3109,-6.3079,-6.278,-6.2121,-6.275,-6.275,-6.2121,-6.278,-6.3079,-6.3139,-6.3707,-6.4006,-6.4066,-6.4755,-6.5054,-6.5054,-6.5742,-6.6011,-6.5981,-6.5353,-6.5084,-6.4964,-6.4276,-6.4006,-6.3887,-6.3288,-6.3079,-6.2959,-6.2331,-6.2121,-6.2002,-6.1373,-6.0715,-6.0446,-6.1762,-6.1672,-6.1463,-6.275,-6.3079,-6.3079,-6.3079,-6.3079,-6.2899,-6.2271,-6.2091,-6.1672,-6.0356,-5.9069,-5.7752,-5.6466,-5.6308,-5.6308,-5.6248,-5.6278,0.0,-5.7872,-5.7453,-5.7304,-5.7962,-5.6316,-5.464,-5.3264,-5.1977,-5.0315,-4.8342,-4.7565,-4.6907,-4.6207,-4.5562,-4.4904,-4.4236,-4.3073,-4.2768,-4.3372,0.0,0.0,0.0,0.0,0.0,0.0,0.0,0.0,0.0,0.0,0.0,0.0,0.0,0.0,0.0,0.0,0.0,0.0,0.0,0.0,0.0,-4.8978,-5.016,-4.9419,-5.2238,-5.4989,-5.6506,-5.8961,-6.0446,-6.0356,-6.1014,-6.1583,-6.1942,-6.275,-6.3348,-6.3707,-6.3737,-6.3737,-6.3737,-6.3318,-6.2989,-6.281,-6.2989,-6.2989,-6.281,-6.2989,-6.3318,-6.3767,-6.3917,-6.4276,-6.4755,-6.4934,-6.5293,-6.5742,-6.5922,-6.6281,-6.67,-6.652,-6.6161,-6.5652,-6.4994,-6.4156,-6.3318,-6.3139,-6.3079,-6.3049,-6.2869,-6.281,-6.278,-6.26,-6.2391,-6.2331,-6.269,-6.266,-6.263,-6.2989,-6.3079,-6.3079,-6.3079,-6.3079,-6.3019,-6.2839,-6.2061,-6.1283,-6.0894,-5.9757,-5.871,-5.8351,-5.8291,-5.7962,-5.6974,-5.7274,-5.7214,-5.6137,-5.6256,-5.6316,-5.6017,-5.5508,-5.4461,-5.2636,-5.1708,-4.9783,-4.644,-4.52,-4.4297,-4.3499,-4.2944,-4.2711,-4.2918,-4.3961,-4.4158,0.0,0.0,0.0,0.0,0.0,0.0,0.0,0.0,0.0,0.0,0.0,0.0,0.0,0.0,0.0,0.0,0.0,0.0,0.0,0.0,0.0,0.0,-5.2394,-5.4241,-5.4947,-5.6524,-5.8268,-6.0136,-6.1642,-6.266,-6.3049,-6.3079,-6.3169,-6.3438,-6.3558,-6.3707,-6.3977,-6.3767,-6.3617,-6.3617,-6.3258,-6.3079,-6.3079,-6.3079,-6.3079,-6.3079,-6.3348,-6.3797,-6.4425,-6.4725,-6.5203,-6.5862,-6.5862,-6.6071,-6.643,-6.643,-6.649,-6.661,0.0,0.0,0.0,0.0,-6.4186,-6.3079,-6.3079,-6.3079,-6.3079,-6.3079,-6.3079,-6.3079,-6.3079,-6.3079,-6.3079,-6.3079,-6.3079,-6.3079,-6.3079,-6.3079,-6.3079,-6.3079,-6.3079,-6.3079,-6.3079,-6.248,-6.1762,-6.1224,-6.0475,0.0,-5.9189,-5.9099,-5.883,-5.8052,-5.8291,-5.8112,-5.6974,-5.6675,-5.6316,-5.5658,-5.485,-5.3653,-5.1947,-5.0478,0.0,0.0,0.0,-4.3849,-4.3608,-4.3341,0.0,0.0,0.0,-4.4718,-4.4221,-4.4982,0.0,0.0,-4.5693,-4.5514,0.0,0.0,0.0,0.0,0.0,0.0,0.0,0.0,0.0,0.0,0.0,0.0,0.0,0.0,0.0,0.0,-5.5566,-5.7787,-6.0586,-6.0954,-6.1287,-6.2085,-6.272,-6.3079,-6.3079,-6.3079,-6.3318,-6.3857,-6.3528,-6.3528,-6.4096,-6.3588,0.0,0.0,0.0,-6.3079,-6.3079,-6.3079,-6.3109,-6.3199,-6.3737,-6.4395,-6.5173,-6.5832,-6.643,-6.6999,-6.7059,-6.7059,-6.6999,-6.6909,-6.655,-6.6071,-6.664,-6.6819,-6.664,-6.5473,-6.4186,-6.3079,-6.3079,0.0,0.0,-6.3079,-6.3079,-6.3079,-6.3079,-6.3079,-6.3079,-6.3079,-6.3079,-6.3079,-6.3079,-6.3079,-6.3079,-6.3079,-6.2933,-6.2875,-6.3079,-6.2874,-6.2398,-6.1287,-6.1044,-6.0595,-5.9308,-5.9099,-5.9069,-5.9009,-5.9069,-5.9039,-5.889,-5.7842,-5.6855,-5.6226,-5.4521,0.0,-5.1439,-4.911,-4.703,-4.5493,-4.4657,-4.4559,-4.5215,-4.5352,-4.5086,-4.4394,-4.4613,-4.4931,-4.5389,-4.5553,-4.6211,-4.7309,-4.6711,-4.6399,0.0,0.0,0.0,0.0,0.0,0.0,0.0,0.0,0.0,0.0,0.0,0.0,0.0,0.0,0.0,-5.5875,-5.773,-5.9519,-6.225,-6.2642,-6.2705,-6.2897,-6.2989,-6.3079,-6.3079,-6.3079,-6.3139,-6.3258,-6.4126,-6.4695,-6.4814,-6.4725,-6.4635,-6.4635,-6.3617,-6.3079,-6.3079,-6.3079,-6.3318,-6.3827,-6.3947,0.0,-6.5832,-6.649,-6.6879,-6.7029,-6.7537,-6.7478,-6.6939,-6.643,-6.6131,-6.6011,-6.6131,-6.5862,-6.5383,-6.5114,-6.4186,-6.3079,-6.3079,-6.3079,-6.3079,-6.3079,-6.3079,-6.3079,-6.3079,-6.3079,0.0,-6.3079,-6.3079,-6.3079,-6.3079,-6.3079,-6.3079,-6.3079,-6.2028,-6.1377,-6.2817,-6.1556,-6.0385,-6.0942,-6.0655,-6.0027,-5.9249,-5.9099,-5.8919,-5.8381,-5.877,-5.871,-5.7633,-5.7244,-5.6855,-5.6226,-5.5359,-5.4042,-5.2187,-5.0554,-4.8424,-4.549,-4.4177,-4.3871,-4.472,-4.5615,-4.5588,-4.4422,-4.5947,-4.6315,-4.5389,-4.6432,-4.7062,-4.7309,-4.7189,-4.713,0.0,0.0,0.0,0.0,0.0,0.0,0.0,0.0,0.0,0.0,0.0,-4.7593,0.0,0.0,-5.4868,-5.848,-5.9948,-6.1194,-6.2839,-6.3079,-6.3079,-6.3079,-6.3079,-6.3079,-6.3079,-6.3348,-6.3677,-6.4036,-6.4665,-6.5024,-6.5024,-6.4695,-6.4366,-6.4066,-6.3408,-6.3228,-6.3528,-6.3528,-6.3857,-6.4515,-6.5173,-6.5862,-6.652,-6.7537,-6.7986,-6.7986,-6.7986,-6.7311,-6.6021,-6.4729,-6.4658,-6.5473,-6.5144,-6.5203,-6.5473,-6.5144,-6.4395,-6.3498,-6.3169,-6.3079,-6.3079,-6.3079,-6.3079,-6.3079,-6.3079,-6.3079,-6.3079,-6.3079,-6.3079,-6.3079,-6.3079,-6.3079,-6.3079,-6.3079,-6.2409,-6.2028,-6.2933,-6.2172,-6.1349,-6.1533,-6.1343,-6.0894,-6.0236,-5.9817,-5.9368,-5.871,-5.889,-5.886,-5.8171,-5.7812,-5.7363,-5.6705,-5.5777,-5.436,-5.2297,-4.9997,-4.783,-4.5824,-4.5468,-4.5699,-4.6417,-4.7019,-4.687,-4.5874,-4.6797,-4.6975,-4.6344,-4.6975,-4.7309,-4.7309,-4.7309,-4.7309,0.0,0.0,0.0,0.0,0.0,0.0,0.0,0.0,-4.6232,-4.8237,-4.9703,-5.1586,-5.4616,-5.6537,-5.8399,-6.0599,-6.1715,-6.248,-6.2989,-6.3079,-6.3079,-6.3079,-6.3169,-6.3199,-6.3079,-6.3647,-6.4186,-6.4605,-6.4755,-6.4844,-6.4844,-6.4306,-6.3827,-6.3468,-6.3318,-6.3558,-6.4186,-6.4186,-6.4545,-6.5233,-6.6281,-6.6879,-6.7029,-6.8256,-6.8515,-6.8021,-6.7549,-6.6348,-6.4634,-6.3357,-6.3581,-6.4784,-6.4216,-6.4755,-6.5742,-6.5084,-6.4395,-6.3737,-6.3258,-6.3079,-6.3079,-6.3079,-6.3079,-6.3079,-6.3079,-6.3079,-6.3079,-6.3079,-6.3079,-6.3079,-6.3079,-6.2875,-6.2672,-6.3021,-6.2555,-6.2321,-6.2933,-6.2817,-6.2463,-6.2005,-6.1912,-6.1642,-6.0864,-6.0266,-5.9757,-5.9368,-5.9189,-5.9099,-5.9099,-5.853,-5.7902,-5.7363,-5.6256,-5.4671,-5.2376,-4.9545,-4.7615,-4.6952,-4.745,-4.7957,-4.8462,-4.8356,-4.7967,-4.7309,-4.7309,-4.7309,-4.7309,-4.7309,-4.7309,-4.7309,-4.7309,-4.7309,-4.1422,-4.1324,-4.1683,-4.3449,-4.4047,-4.5274,0.0,0.0,-5.102,-5.3025,-5.4491,-5.5709,-5.665,-5.8458,-6.0231,-6.1691,-6.2535,-6.2989,-6.3079,-6.3079,-6.3079,-6.3079,-6.3558,-6.3677,-6.3139,-6.3647,-6.3797,-6.3318,-6.3797,-6.4126,-6.4126,-6.4036,-6.4246,-6.4784,-6.4216,-6.4216,-6.4904,-6.4904,-6.5233,-6.5892,-6.6041,-6.643,-6.7029,-6.7747,-6.6875,-6.4833,-6.4775,-6.389,-6.2697,-6.4152,-6.4487,-6.4096,-6.4036,-6.4485,-6.5054,-6.4366,-6.3707,-6.3169,-6.3109,-6.3079,-6.3079,-6.3079,-6.3079,-6.3079,-6.3079,-6.3079,-6.3079,-6.3079,-6.3079,-6.3079,-6.3079,-6.1969,-6.1198,-6.273,-6.0779,-5.938,-6.2438,-6.191,-6.0908,-6.1151,-6.1224,-6.0835,-5.9548,-5.9249,-5.9398,-5.9907,-5.9488,-5.9099,-5.9099,-5.853,-5.8082,-5.8022,-5.7334,-5.5827,-5.3174,-5.1558,-5.0421,-4.9767,-4.9256,-4.9066,-4.9194,-4.864,-4.7967,-4.7309,-4.7309,-4.7309,-4.7309,-4.7309,-4.7309,-4.7309,-4.7309,-4.7309,-4.2081,-4.283,-4.3958,-4.5185,-4.692,-4.9045,-5.1738,-5.3264,-5.4551,-5.6166,-5.7543,-5.877,-5.9817,-6.1014,-6.2002,0.0,-6.2899,-6.3079,-6.3079,-6.3079,-6.278,-6.2032,-6.2839,-6.3378,-6.3109,-6.3647,-6.3887,-6.3617,-6.4216,-6.4425,-6.4006,-6.4366,-6.4545,-6.4425,-6.4545,-6.4904,-6.5592,-6.5592,-6.5922,-6.658,-6.6969,-6.6419,-6.4986,-6.6393,-6.6206,-6.4828,-6.3753,-6.3522,-6.3852,-6.3517,-6.3444,-6.3468,-6.3468,-6.3647,-6.3887,-6.3977,-6.3827,-6.3558,-6.3199,-6.3079,-6.3079,-6.3079,-6.3079,-6.3079,-6.3079,-6.3079,-6.3079,-6.3079,-6.3079,-6.2875,-6.1851,-6.1762,-6.1969,-6.1644,-6.1287,-6.1347,-6.2817,-6.22,-6.1494,-6.1679,-6.1373,-6.1074,-6.0864,-6.0535,-6.0356,-6.0655,-5.9787,-5.9099,-5.9099,-5.886,-5.8381,-5.7603,-5.6882,-5.5454,-5.3213,-5.2526,-5.1753,-5.0695,-5.0856,-5.0473,-4.9344,-4.906,-4.8356,-4.7339,-4.7309,-4.7309,-4.7309,-4.7309,-4.7309,-4.7309,-4.7309,-4.7309,-4.321,-4.4496,-4.6142,-4.7369,-4.9883,-5.2516,-5.4401,-5.6077,-5.7723,-5.9398,-6.0356,-6.1253,-6.2421,-6.2869,-6.3079,-6.3079,-6.3079,-6.3079,-6.3079,-6.278,-6.2121,-6.0954,-6.1343,-6.1852,-6.2211,-6.3169,-6.3737,-6.3737,-6.4216,-6.4336,-6.4006,-6.4306,-6.4515,-6.4545,-6.4874,-6.5533,-6.655,-6.637,-6.661,-6.7268,-6.7567,-6.6503,-6.4202,-6.4885,-6.4915,-6.439,-6.3094,-6.3051,-6.3889,-6.3103,-6.291,-6.3079,-6.3079,-6.3079,-6.3139,-6.3588,-6.3737,-6.3677,-6.3228,-6.3079,-6.3079,-6.3079,-6.3079,-6.3079,-6.3079,-6.3079,-6.3079,-6.3079,-6.3079,-6.2817,-6.1525,-6.1762,-6.2175,-6.1377,-6.1851,-6.2497,-6.3021,-6.269,-6.2271,-6.1912,-6.1213,-6.0865,-6.1466,-6.0916,-6.0479,-6.0809,-5.9636,-5.8842,-5.9075,-5.9099,-5.874,-5.7752,-5.6785,-5.5634,-5.4264,-5.3827,-5.3017,-5.1686,-5.2161,-5.1498,-4.9389,-4.9299,-4.8745,-4.7608,-4.7399,-4.7489,-4.7848,-4.7489,-4.7399,-4.7578,-4.7399,-4.7309,-4.4855,0.0,-4.7848,-5.0421,-5.2606,-5.497,-5.8201,-5.9458,-6.0685,-6.3288,-6.3378,-6.3169,-6.3827,-6.3468,-6.3079,-6.3079,-6.3079,-6.3079,-6.3079,-6.1972,-6.0894,-6.0206,-5.9039,-5.877,-6.0057,-6.1942,-6.3109,-6.3109,-6.3139,-6.3378,-6.3977,-6.3438,-6.4006,-6.5892,-6.5353,-6.5951,-6.7897,-6.7268,-6.7298,-6.7926,-6.7328,-6.667,-6.586,-6.3499,-6.2399,-6.2371,-6.2308,-6.1968,-6.152,-6.3268,-6.3589,-6.3079,-6.3079,-6.3079,-6.3079,-6.3109,-6.3109,-6.3109,-6.3079,-6.3079,-6.3079,-6.3079,-6.3079,-6.3079,-6.3079,-6.3079,-6.3079,-6.3079,-6.3079,-6.3079,-6.3021,-6.1851,-6.099,-6.2613,-6.1762,-6.105,-6.273,-6.3049,-6.266,-6.1403,-6.0237,-5.9684,-6.0104,-5.9299,-5.8929,-5.9955,-5.8742,-5.8083,-5.8996,-5.9099,-5.9099,-5.9039,-5.7849,-5.7042,-5.6982,-5.5846,-5.456,-5.3215,-5.3174,-5.2025,-4.9419,-4.9299,-4.9,-4.8267,-4.7638,-4.7938,-4.9239,-4.7938,-4.7638,-4.8237,-4.7608,-4.7309,-4.68,0.0,-5.1289,-5.4341,-5.6286,-5.8082,-6.0535,-6.1583,-6.2331,-6.3199,-6.1822,-6.0386,-6.0146,-5.9219,-5.877,-5.9668,-6.0535,-6.1553,-6.2899,-6.269,-6.1672,-5.9668,-5.9847,-5.9757,-5.886,-6.0176,-6.1642,-6.2989,-6.3468,-6.3767,-6.3977,-6.4665,-6.5323,-6.5981,-6.664,-6.7298,-6.7956,-6.8196,-6.8196,-6.7956,-6.5267,-6.4093,-6.4114,-6.1295,-6.085,-6.2284,-6.2284,-6.2619,-6.315,-6.3742,-6.3617,-6.3079,-6.3079,-6.3079,-6.3079,-6.3079,-6.3079,-6.3079,-6.3079,-6.3079,-6.3079,-6.3079,-6.3079,-6.3079,-6.3079,-6.3079,-6.3079,-6.3079,-6.3079,-6.2817,-6.1703,-6.1762,-6.2086,-6.1525,-6.1851,-6.235,-6.2933,-6.272,-6.1985,-6.0326,-5.9363,-5.8688,-5.8124,-5.8682,-5.951,-6.0611,-5.8627,-5.7137,-5.747,-5.7496,-5.7739,-5.8393,-5.8052,-5.7423,-5.6555,-5.5688,-5.461,-5.3264,-5.2785,-5.1738,-4.9972,-4.9912,-4.9613,-4.9,-4.876,-4.888,-4.9299,-4.888,-4.876,-4.897,-4.8716,-4.864,-4.9075,-5.1768,-5.461,-5.7453,-5.9189,-6.0565,-6.2091,-6.26,-6.26,-6.2121,-6.0086,-5.8112,-5.7244,-5.5807,-5.5269,-5.6825,-5.7603,-5.8919,-6.1642,-6.1613,-6.0835,-5.9608,-5.9817,-5.9727,-5.889,-5.9578,-6.0805,-6.26,-6.3528,-6.4096,-6.4366,-6.5173,-6.5981,-6.67,-6.7298,-6.7956,-6.8675,-6.8884,-6.8645,-6.7956,-6.4855,-6.3538,-6.3826,-6.1442,-6.1159,-6.2572,-6.2572,-6.297,-6.3677,-6.3677,-6.3438,-6.3079,-6.3079,-6.3079,-6.3079,-6.3079,-6.3079,-6.3079,-6.3079,-6.3079,-6.3079,-6.3079,-6.3079,-6.3079,-6.3079,-6.3079,-6.3079,-6.3079,-6.3079,-6.2817,-6.1703,-6.2233,-6.2817,-6.1703,-6.2292,-6.3079,-6.3079,-6.2286,-6.1145,-5.9765,-5.8338,-5.7305,-5.7066,-5.8386,-5.9739,-6.0467,-5.8061,-5.6336,-5.6622,-5.7187,-5.7573,-5.7576,-5.7702,-5.7423,-5.6585,-5.5478,-5.4371,-5.3264,-5.2576,-5.1618,-5.0255,-5.0196,-4.9986,-4.9613,-4.9419,-4.9539,-4.9972,-4.9539,-4.9419,-4.9613,-4.9419,-4.9299,-5.1708,-5.482,-5.7782,-5.9757,-6.1194,-6.2301,-6.2899,-6.248,-6.1553,-6.0176,-5.8171,-5.6286,0.0,0.0,-5.2636,-5.473,-5.467,-5.5748,-5.9697,-5.9159,-5.883,0.0,0.0,0.0,0.0,-6.0176,-6.0775,-6.2061,-6.3318,-6.4366,-6.5054,-6.5054,-6.5981,-6.7867,-6.7388,-6.8016,-6.9901,-6.9303,-6.8675,-6.8016,-6.5981,-6.5024,-6.4994,-6.3677,-6.3079,-6.3079,-6.3079,-6.3079,-6.3079,-6.3079,-6.3079,-6.3079,-6.3079,-6.3079,-6.3079,-6.3079,-6.3079,-6.3079,-6.3049,-6.3049,-6.3079,-6.3079,-6.3079,-6.3079,-6.3079,-6.3079,-6.3079,-6.3079,-6.3079,-6.3079,-6.3079,-6.3079,-6.3079,-6.3079,-6.3079,-6.3079,-6.3079,-6.1703,-6.0307,-5.9583,-5.7185,-5.5628,-5.6856,-5.8353,-5.9527,-5.9794,-5.7341,-5.5734,-5.6566,-5.786,-5.8221,-5.6849,-5.6878,-5.7072,-5.7094,-5.5359,-5.3952,-5.3264,-5.2576,-5.1648,-5.0345,-5.0255,-5.0255,-5.0285,-4.9703,-5.0002,-5.1259,-5.0002,-4.9673,-5.0226,-4.9643,-4.9419,-5.488,-5.7932,-6.0446,-6.1942,-6.257,-6.275,-6.2421,-6.1044,-5.9368,-5.7543,-5.4012,-5.087,0.0,0.0,0.0,-5.3144,-5.5179,0.0,-6.1762,-6.2032,0.0,-6.0924,0.0,-6.1343,-6.0206,-6.1433,-6.245,-6.281,-6.4036,-6.5054,-6.5712,-6.6221,-6.6729,-6.7238,-6.8046,-6.8734,-6.9243,-6.9093,-6.8914,-6.8704,-6.6221,-6.5024,-6.4994,-6.3677,-6.3079,-6.3079,-6.3079,-6.3079,-6.3079,-6.3079,-6.3079,-6.3079,-6.3079,-6.3079,-6.3079,-6.3079,-6.3079,-6.3019,-6.251,-6.266,-6.3079,-6.3079,-6.3079,-6.3079,-6.3079,-6.3079,-6.3079,-6.3079,-6.3079,-6.3079,-6.3079,-6.3079,-6.3079,-6.3079,-6.3079,-6.3079,-6.3079,-6.1703,-6.0058,-5.8659,-5.5734,-5.4448,-5.7277,-5.807,-5.9107,-6.1173,-5.9393,-5.7298,-5.5821,-5.4575,-5.4536,-5.648,-5.6295,-5.6314,-5.7019,-5.5777,-5.467,-5.3982,-5.2845,-5.2067,-5.1708,-5.1229,-5.1199,-5.1678,-5.105,-5.1139,-5.1947,-5.1109,-5.081,-5.096,-5.081,-5.072,-5.7573,-6.0146,-6.2151,-6.2899,-6.266,-6.1882,-6.0625,-5.859,-5.6166,-5.3294,-4.9988,0.0,-4.5813,-4.5334,0.0,0.0,0.0,0.0,-6.0655,-6.1583,-6.1912,0.0,-6.3019,0.0,-6.2331,-6.3258,-6.4066,-6.4336,-6.4784,-6.5323,-6.5981,-6.6909,-6.7567,-6.7867,-6.8884,-6.9572,-6.9842,-6.9273,-6.9004,-6.8974,-6.661,-6.5293,-6.4934,-6.3209,-6.2647,-6.3079,-6.2292,-6.2409,-6.3079,-6.3079,-6.3079,-6.3079,-6.3079,-6.3079,-6.3079,-6.3079,-6.3079,-6.3019,-6.266,-6.278,-6.3019,-6.275,-6.2839,-6.3079,-6.3079,-6.3079,-6.3079,-6.3079,-6.3079,-6.3079,-6.3079,-6.3079,-6.3079,-6.3079,-6.2497,-6.1969,-6.1969,-5.9994,-5.776,-5.6103,-5.419,-5.4013,-5.7432,-5.7784,-5.8626,-6.1634,-5.9277,-5.6739,-5.5478,-5.3779,-5.3321,-5.5079,-5.5336,-5.5754,-5.6631,-5.5777,-5.491,-5.4251,-5.2935,-5.2187,-5.2187,-5.1558,-5.1379,-5.1768,-5.1409,-5.1409,-5.1768,-5.1409,-5.1229,-5.1229,-5.1229,-5.1229,-5.9817,-6.1672,-6.3079,-6.3079,-6.1942,-6.0326,-5.8321,-5.5628,-5.2456,-4.8566,0.0,-4.4436,-4.326,-4.2761,-4.4088,-4.882,0.0,-5.2737,-5.856,-5.9937,-6.1224,-6.3588,-6.4036,-6.4336,-6.4844,-6.5054,-6.5443,-6.6101,-6.5622,-6.5592,-6.6221,-6.7358,-6.8315,-6.9093,-6.9692,-7.029,-7.0889,-6.9632,-6.9004,-6.8974,-6.6665,-6.5322,-6.4934,-6.227,-6.1812,-6.3021,-6.1019,-6.1139,-6.2759,-6.2497,-6.2555,-6.2759,-6.2759,-6.2875,-6.3079,-6.3079,-6.3079,-6.3079,-6.2989,-6.3019,-6.2989,-6.2421,-6.26,-6.3079,-6.3079,-6.3079,-6.3079,-6.3079,-6.2933,-6.2817,-6.3021,-6.2759,-6.2497,-6.2701,-6.1466,-6.0176,-6.0176,-5.7633,-5.4916,-5.3247,-5.2929,-5.3987,-5.7259,-5.739,-5.8142,-6.1486,-5.8434,-5.5654,-5.533,-5.3897,-5.292,-5.3096,-5.4008,-5.4931,-5.5835,-5.5526,-5.5029,-5.4371,-5.3174,-5.2426,-5.2336,-5.1708,-5.1349,-5.1349,-5.1259,-5.1259,-5.1349,-5.1259,-5.1229,-5.1229,-5.1229,-5.1229,-6.1194,-6.2391,-6.3079,-6.3079,-6.1253,-5.8949,-5.6974,-5.3204,0.0,0.0,-4.3449,-4.1983,-4.1773,-4.2521,-4.4855,-5.0032,0.0,0.0,0.0,-6.1343,-6.2121,0.0,-6.4186,-6.4665,-6.4216,-6.5203,-6.6101,-6.6759,-6.6729,-6.6939,-6.7597,-6.7837,-6.8525,-6.9722,-6.9901,-7.029,-7.0889,-6.9632,-6.9004,-6.8974,-6.5019,-6.3757,-6.4845,-6.0584,-6.0259,-6.2933,-5.9777,-5.938,-6.087,-5.9442,-5.9688,-6.093,-6.093,-6.1851,-6.3079,-6.3079,-6.3079,-6.2989,-6.245,-6.263,-6.3049,-6.2929,-6.2989,-6.3079,-6.3079,-6.3079,-6.3079,-6.3079,-6.2028,-6.1258,-6.2759,-6.0988,-5.9256,-6.0629,-5.9688,-5.8446,-5.8446,-5.6828,-5.4916,-5.3247,-5.2929,-5.3792,-5.665,-5.7114,-5.7973,-6.0805,-5.945,-5.7471,-5.5566,-5.1954,-5.0126,-5.1455,-5.2373,-5.3304,-5.4211,-5.5367,-5.5718,-5.5059,-5.4281,-5.3593,-5.3025,-5.2366,-5.2037,-5.2037,-5.1498,-5.1498,-5.2037,-5.1498,-5.1229,-5.1229,-5.1229,-5.1229,-6.2151,-6.3079,-6.3468,-6.3169,-6.0296,-5.6974,-5.464,0.0,0.0,0.0,-4.1265,-4.0457,-4.0816,0.0,0.0,0.0,0.0,0.0,0.0,0.0,0.0,-6.3737,-6.4635,-6.5173,-6.5503,-6.6131,-6.664,-6.6969,-6.7298,-6.7807,-6.8465,-6.8824,-6.9453,-7.041,-7.044,-7.062,-7.0889,-6.9632,-6.85,-6.7577,-6.4758,-6.3511,-6.3427,-5.945,-5.9157,-6.1585,-5.8103,-5.7596,-5.9132,-5.832,-5.898,-6.048,-6.048,-6.1585,-6.3079,-6.3079,-6.3079,-6.3019,-6.272,-6.281,-6.3079,-6.3079,-6.3079,-6.3079,-6.3079,-6.2497,-6.1762,-6.1762,-6.0508,-5.938,-6.0205,-5.9194,-5.8194,-5.898,-5.7914,-5.6402,-5.5538,-5.4701,-5.3852,-5.3042,-5.3335,-5.4524,-5.7058,-5.7657,-5.8539,-6.0797,-5.9446,-5.7336,-5.5122,-5.2013,-5.0286,-5.0996,-5.1014,-5.1701,-5.3669,-5.4555,-5.5086,-5.5188,-5.4581,-5.3892,-5.3204,-5.2546,-5.2037,-5.1708,-5.1379,-5.1528,-5.2187,-5.1528,-5.1379,-5.1708,-5.1379,-5.1229,-6.254,-6.3318,-6.3647,-6.3019,-5.9279,-5.5089,-5.2576,-4.7788,0.0,0.0,-3.9888,-3.9619,-4.0277,0.0,-4.2252,0.0,0.0,0.0,0.0,0.0,0.0,0.0,-6.4844,0.0,-6.667,-6.6909,-6.7119,-6.7418,-6.7823,-6.8224,-6.8758,-6.9263,-6.9696,-6.9892,-7.0134,-7.0212,-7.0064,-6.9001,-6.7618,-6.5873,-6.3834,-6.2573,-6.2021,-5.8118,-5.7852,-6.0298,-5.6504,-5.5814,-5.7432,-5.7048,-5.8103,-5.9994,-5.9994,-6.1258,-6.3079,-6.3079,-6.3079,-6.3079,-6.3079,-6.3079,-6.3021,-6.2672,-6.2555,-6.2555,-6.2555,-6.1347,-5.9994,-5.9994,-5.8731,-5.756,-5.7878,-5.7432,-5.6919,-5.6919,-5.5841,-5.4474,-5.3179,-5.3179,-5.3427,-5.3427,-5.4403,-5.5902,-5.798,-5.8544,-5.9219,-6.0701,-5.9211,-5.705,-5.4734,-5.2661,-5.118,-5.0777,-4.9988,-5.0344,-5.2487,-5.3006,-5.3612,-5.4671,-5.4217,-5.3774,-5.3414,-5.2905,-5.2247,-5.1439,-5.1439,-5.1618,-5.1977,-5.1468,-5.1498,-5.1977,-5.1468,-5.1058,-6.2002,-6.266,-6.2989,-6.2361,-5.8261,-5.3862,-5.1768,0.0,0.0,-4.0696,-3.9888,-3.9619,-4.0277,-4.0457,-4.1564,0.0,0.0,-4.8506,0.0,0.0,0.0,0.0,0.0,0.0,-6.6041,-6.664,-6.7508,-6.8734,-6.8349,-6.8056,-6.8017,-6.8171,-6.7736,-6.6545,-6.7752,-6.8094,-6.7487,-6.6822,-6.5926,-6.464,-6.0109,-5.9243,-6.1422,-5.5801,-5.5947,-6.0237,-5.5274,-5.4055,-5.5551,-5.3987,-5.5274,-5.8257,-5.8257,-6.0205,-6.3079,-6.3079,-6.3079,-6.3079,-6.3079,-6.3079,-6.2817,-6.1258,-6.075,-6.075,-6.075,-5.9565,-5.8257,-5.8257,-5.6956,-5.601,-5.7624,-5.5709,-5.3384,-5.3384,-5.3247,-5.311,-5.2929,-5.4122,-5.5181,-5.5181,-5.6542,-5.807,-5.9162,-5.941,-5.9568,-6.0104,-5.9299,-5.7594,-5.479,-5.3012,-5.1413,-4.9874,-4.9498,-4.9197,-4.8983,-5.0238,-5.162,-5.3121,-5.3116,-5.3428,-5.4082,-5.4072,-5.3414,-5.2127,-5.2127,-5.1858,-5.1319,-5.1259,-5.1259,-5.1319,-5.1259,-5.0555,-6.0984,-6.254,-6.3378,-6.2361,-5.7812,-5.3054,-5.1079,0.0,0.0,-4.0068,-3.9619,-3.9463,-3.9768,-3.9798,-4.0367,0.0,0.0,0.0,0.0,0.0,0.0,0.0,-6.2091,0.0,0.0,0.0,-6.7638,-6.7852,-6.7649,-6.6769,-6.5163,-6.5933,-6.6299,-6.6125,-6.6256,-6.6061,-6.5484,-6.4527,-6.3129,-6.1191,-5.8535,-5.7678,-5.8243,-5.4918,-5.4879,-5.725,-5.4257,-5.3316,-5.392,-5.4231,-5.5841,-5.8005,-5.8005,-5.9442,-6.1377,-6.0387,-6.0022,-6.0022,-6.0022,-6.0022,-5.99,-5.9256,-5.8292,-5.7633,-5.8669,-5.7787,-5.644,-5.644,-5.5181,-5.4055,-5.4768,-5.3945,-5.2929,-5.2929,-5.2929,-5.3078,-5.3711,-5.4379,-5.5179,-5.6185,-5.712,-5.8235,-5.9841,-5.9976,-5.985,-5.9741,-5.8784,-5.6955,-5.3842,-5.2607,-5.1299,-4.9304,-4.872,-4.8773,-4.9469,-4.9716,-5.037,-5.1509,-5.1618,-5.201,-5.2822,-5.2895,-5.2662,-5.2217,-5.2187,-5.2067,-5.1798,-5.1409,-5.1439,-5.1798,-5.1409,-5.0917,-5.9249,-6.1642,-6.3139,-6.1822,-5.7304,-5.2606,0.0,0.0,0.0,-3.9948,-3.9559,-3.9373,-3.9373,-3.9373,-3.9649,0.0,0.0,-4.1504,0.0,0.0,0.0,0.0,0.0,-6.1672,-6.6101,-6.7281,-6.7324,-6.6343,-6.5887,-6.4764,-6.2474,-6.2964,-6.3592,-6.4372,-6.4201,-6.3772,-6.3008,-6.2067,-6.0468,-5.8249,-5.6909,-5.616,-5.5986,-5.4261,-5.4142,-5.5287,-5.3606,-5.2929,-5.2973,-5.4164,-5.5709,-5.7213,-5.7213,-5.8292,-5.9626,-5.8446,-5.8005,-5.8005,-5.8005,-5.8005,-5.7941,-5.7432,-5.6402,-5.5551,-5.6271,-5.5643,-5.4675,-5.4675,-5.381,-5.2929,-5.2929,-5.2929,-5.2929,-5.2929,-5.2804,-5.2894,-5.3642,-5.4601,-5.5616,-5.6561,-5.7648,-5.8837,-6.0019,-5.9829,-5.9306,-5.8817,-5.7623,-5.5839,-5.3111,-5.2051,-5.0879,-4.919,-4.8661,-4.8621,-4.9248,-4.8867,-4.9054,-4.9987,-5.0491,-5.1176,-5.2277,-5.2694,-5.2893,-5.2815,-5.2785,-5.2695,-5.2486,-5.2037,-5.1947,-5.2187,-5.1917,-5.1339,-5.6615,-5.9578,-6.1792,-6.0446,-5.6615,-5.2534,0.0,0.0,-4.1205,-4.0516,-3.9858,-3.9373,-3.9373,-3.9373,-3.9649,-4.0277,0.0,0.0,0.0,0.0,0.0,0.0,0.0,-5.871,-6.275,-6.5529,-6.6332,-6.4372,-6.3116,-6.1851,-6.0443,-5.9307,-5.9284,-6.0365,-6.1106,-6.0935,-5.9729,-5.936,-5.8239,-5.6451,-5.4628,-5.4321,-5.538,-5.3674,-5.381,-5.5287,-5.3606,-5.2929,-5.2929,-5.2929,-5.392,-5.5419,-5.5419,-5.6504,-5.8005,-5.8005,-5.8005,-5.8005,-5.8005,-5.8005,-5.7751,-5.601,-5.5419,-5.5115,-5.3427,-5.2929,-5.2929,-5.2929,-5.2929,-5.2929,-5.2929,-5.2929,-5.2929,-5.2929,-5.2503,-5.2101,-5.2101,-5.4796,-5.699,-5.632,-5.8503,-6.0249,-5.9585,-5.8682,-5.7784,-5.7141,-5.568,-5.4191,-5.2991,-5.1383,-5.0193,-4.964,-4.959,-4.8912,-4.728,-4.7129,-4.752,-4.8469,-4.9876,-5.1372,-5.2963,-5.4406,-5.488,-5.4192,-5.4192,-5.3862,-5.3174,-5.3174,-5.2815,-5.2217,-5.2845,-5.1641,-5.1887,-5.4162,-5.5807,-5.491,-5.1917,-4.8716,-4.695,0.0,-4.033,-3.8911,-3.8439,-3.8323,-3.8323,-3.8323,-3.8898,-4.0763,0.0,0.0,0.0,0.0,0.0,-5.5897,-6.1233,-6.5182,0.0,-6.7009,-6.6015,-6.3667,-6.316,-6.201,-5.9837,-5.9106,-5.9031,-5.9734,-5.9262,-5.8695,-5.7856,-5.6984,-5.6136,-5.5121,-5.3785,-5.333,-5.3674,-5.311,-5.3179,-5.3674,-5.311,-5.2929,-5.2998,-5.4122,-5.4916,-5.5419,-5.5419,-5.5748,-5.6076,-5.4968,-5.4526,-5.4526,-5.4526,-5.4526,-5.4459,-5.3878,-5.3674,-5.353,-5.2614,-5.2628,-5.2929,-5.2929,-5.2929,-5.2829,-5.2477,-5.2653,-5.2829,-5.2452,-5.2226,-5.2413,-5.3472,-5.4285,-5.5168,-5.6451,-5.7132,-5.7668,-5.8339,-5.7487,-5.6456,-5.5961,-5.4793,-5.3569,-5.2429,-5.12,-5.0343,-5.0167,-4.9816,-4.9238,-4.8335,-4.7883,-4.7615,-4.752,-4.8568,-4.9847,-5.1372,-5.291,-5.3825,-5.4172,-5.4221,-5.3862,-5.3174,-5.3174,-5.2536,-5.1358,-5.1612,-5.0157,0.0,-4.9463,-5.0769,-5.0076,-4.7804,0.0,0.0,0.0,-3.8784,-3.7471,-3.751,-3.7805,-3.7805,-3.8144,-3.8772,-3.9858,0.0,0.0,0.0,0.0,0.0,-5.5429,0.0,0.0,-6.6182,-6.6009,-6.5152,-6.3627,-6.2657,-6.1403,-5.9887,-5.9106,-5.878,-5.888,-5.7826,-5.7097,-5.6721,-5.5415,-5.4587,-5.4235,-5.3356,-5.2929,-5.2929,-5.2929,-5.2929,-5.2929,-5.2929,-5.2929,0.0,-5.4055,-5.45,-5.45,-5.45,-5.45,-5.4366,-5.3291,-5.2929,-5.2929,-5.2929,-5.2929,-5.2929,-5.2929,-5.2929,-5.2829,-5.2277,-5.2352,-5.2628,-5.2628,-5.2628,-5.2477,-5.195,-5.2051,-5.2226,-5.1875,-5.1624,-5.1766,-5.3045,-5.3478,-5.4065,-5.5429,-5.5727,-5.5943,-5.6549,-5.5649,-5.4731,-5.4504,-5.3631,-5.2745,-5.1884,-5.0996,-5.0343,-5.0117,-4.9791,-4.9364,-4.8812,-4.8234,-4.7581,-4.6878,-4.8393,-4.9734,-5.0657,-5.2722,-5.4046,-5.4581,-5.4018,-5.3558,-5.3116,-5.2267,-5.186,-5.173,-5.0347,-4.8845,0.0,0.0,0.0,0.0,0.0,0.0,0.0,0.0,0.0,-3.6298,-3.6933,-3.7577,-3.7663,-3.8456,-3.8819,-3.8073,0.0,0.0,0.0,-4.3547,0.0,0.0,-5.8195,-6.0907,-6.2013,-6.3165,-6.3927,-6.3901,-6.1682,-6.0412,-6.0311,-5.9332,-5.8504,-5.7926,-5.6771,-5.6143,-5.6143,-5.4561,-5.3733,-5.3683,-5.3206,-5.2955,-5.2929,-5.2929,-5.2929,-5.2929,-5.2929,-5.2929,-5.2929,-5.2929,-5.2929,-5.2929,-5.2929,-5.2929,-5.2929,-5.2929,-5.2929,-5.2929,-5.2929,-5.2929,-5.2929,-5.2929,-5.2904,-5.2779,-5.2251,-5.2126,-5.2151,-5.2076,-5.2076,-5.1975,-5.1373,-5.1272,-5.1322,-5.1247,-5.087,-5.067,-5.1222,-5.2541,-5.3655,-5.3579,-5.4446,-5.4997,-5.4498,-5.3545,-5.2929,-5.2929,-5.2503,-5.1975,-5.1473,-5.087,-5.0268,-4.9766,-4.964,-4.9364,-4.8812,-4.8234,-4.7481,-4.6426,-4.8965,-5.0602,-5.0713,-5.3518,-5.5027,-5.5027,-5.3733,-5.302,-5.2914,-5.0923,-5.0923,-5.2615,-4.9166,-4.7832,-3.6808,0.0,-4.0244,-4.0105,-3.9339,0.0,0.0,0.0,0.0,0.0,0.0,0.0,-3.6503,0.0,0.0,0.0,0.0,0.0,-4.1993,0.0,0.0,-5.9459,-6.2273,-6.3623,-6.3158,-6.3078,-6.2945,-6.2513,-6.1907,-6.124,-6.0362,-5.9684,-5.888,-5.7926,-5.6394,-5.5591,-5.5591,-5.4762,-5.4135,-5.3708,-5.3582,-5.3306,-5.2929,-5.2929,-5.2929,-5.2929,-5.2929,-5.2929,-5.2929,-5.2929,-5.2929,-5.2929,-5.2929,-5.2929,-5.2929,-5.2929,-5.2929,-5.2929,-5.2929,-5.2929,-5.2929,-5.2929,-5.2628,-5.2277,-5.2151,-5.2402,-5.2553,-5.1699,-5.1774,-5.1875,-5.087,-5.1272,-5.1699,-5.082,-5.1172,-5.1749,-5.1875,-5.2211,-5.2581,-5.3013,-5.3318,-5.3445,-5.3318,-5.3103,-5.2929,-5.2929,-5.2829,-5.2678,-5.2553,-5.1674,-5.1021,-5.0896,-5.0117,-4.9364,-4.8812,-4.8234,-4.7631,-4.6979,-4.8212,-4.9508,-5.0657,-5.2509,-5.3518,-5.3518,-5.3637,-5.3086,-5.1933,-5.259,-5.1763,-4.9535,-4.866,-4.773,-3.4121,-3.4874,-3.5854,-3.5854,-3.5615,-3.5372,0.0,0.0,0.0,0.0,0.0,0.0,0.0,0.0,0.0,0.0,-3.8898,0.0,0.0,0.0,-5.4822,-5.9819,-6.1562,-6.2638,-6.3077,-6.289,-6.2697,-6.2395,-6.2144,-6.1617,-6.0763,-5.9935,-5.9006,-5.7926,-5.6269,-5.539,-5.539,-5.4336,-5.3783,-5.3708,-5.3457,-5.3206,-5.2929,-5.2929,-5.2929,-5.2929,-5.2929,-5.2929,-5.2929,-5.2929,-5.2929,-5.2904,-5.2653,-5.2703,-5.2904,-5.2628,-5.2703,-5.2879,-5.2628,-5.2377,-5.2176,-5.2176,-5.2151,-5.2,-5.1498,-5.2076,-5.2703,-5.1599,-5.1297,-5.1197,-5.0569,-5.087,-5.1172,-5.0569,-5.1096,-5.18,-5.2051,-5.2101,-5.2277,-5.2829,-5.2929,-5.2929,-5.2929,-5.2729,-5.2628,-5.2879,-5.2277,-5.1875,-5.2126,-5.1197,-5.0494,-5.0494,-4.9967,-4.9364,-4.8812,-4.8234,-4.7682,-4.7093,-4.7962,-4.8983,-4.9973,-5.1544,-5.2125,-5.1737,-5.2042,-5.1673,-5.057,-5.0715,-4.9986,-4.8474,-4.7802,-4.7027,-3.347,-3.3269,-3.3294,-3.3162,-3.3144,-3.3319,0.0,0.0,0.0,0.0,0.0,0.0,0.0,0.0,0.0,0.0,0.0,0.0,-4.7101,-4.9791,-5.303,-5.8001,-5.9433,-6.0638,-6.2295,-6.2672,-6.2822,-6.2822,-6.232,-6.1768,-6.1215,-6.0186,-5.9081,-5.7926,-5.6344,-5.544,-5.5265,-5.3783,-5.3231,-5.3582,-5.3231,-5.3005,-5.2929,-5.2929,-5.2929,-5.2929,-5.2929,-5.2929,-5.2929,-5.2829,-5.2804,-5.2754,-5.2201,-5.2327,-5.2754,-5.2277,-5.2402,-5.2729,-5.2176,-5.1674,-5.1272,-5.1272,-5.1649,-5.19,-5.087,-5.1599,-5.2603,-5.1674,-5.0996,-5.0519,-5.0444,-5.0494,-5.0519,-5.0444,-5.0996,-5.1649,-5.2026,-5.2176,-5.2377,-5.2829,-5.2929,-5.2929,-5.2929,-5.2477,-5.2251,-5.2729,-5.1523,-5.072,-5.1222,-5.0368,-4.9715,-4.9715,-4.964,-4.9414,-4.8937,-4.836,-4.7857,-4.7405,-4.7965,-4.8635,-4.9423,-5.1137,-5.1552,-5.0319,-5.0559,-5.0201,-4.9225,-4.8144,-4.7812,-4.8283,-4.69,-4.6351,-3.369,-3.4123,-3.4248,-3.3319,-3.342,-3.3796,0.0,0.0,0.0,0.0,0.0,0.0,0.0,0.0,-3.6951,0.0,0.0,-4.5498,0.0,0.0,-5.5465,-5.775,-6.0563,-6.1893,-6.0814,-6.1994,-6.2822,-6.2822,-6.232,-6.1768,-6.1215,-6.0563,-5.9483,-5.7951,-5.6721,-5.5641,-5.4687,-5.3959,-5.3406,-5.3055,-5.3406,-5.3356,-5.2929,-5.2929,-5.2929,-5.2929,-5.2929,-5.2929,-5.2879,-5.2427,-5.2226,-5.2176,-5.1624,-5.1749,-5.2226,-5.2126,-5.2151,-5.2151,-5.1599,-5.1348,-5.1272,-5.1272,-5.1649,-5.1975,-5.1348,-5.1649,-5.2201,-5.2026,-5.1574,-5.1046,-5.0544,-5.077,-5.1021,-5.0519,-5.1574,-5.2578,-5.2176,-5.2477,-5.2829,-5.2904,-5.2929,-5.2929,-5.2929,-5.2477,-5.2126,-5.2226,-5.1624,-5.1172,-5.1272,-5.0695,-5.0293,-5.0293,-4.9866,-4.9565,-4.9464,-4.8962,-4.8611,-4.851,-4.7803,-4.8154,-4.9969,-5.2881,-5.3273,-5.0925,-5.2252,-5.1629,-4.8862,-4.9498,-4.898,-4.7283,-4.6648,-4.6552,-3.3395,-3.3847,-3.4223,-3.4022,-3.4374,-3.4731,0.0,0.0,0.0,0.0,0.0,0.0,0.0,0.0,-3.9295,-4.2785,0.0,-4.8535,-5.2051,-5.4185,-5.6118,-5.8102,-5.9935,-6.0964,-6.0788,-6.1492,-6.1943,-6.1943,-6.1692,-6.1316,-6.0738,-5.991,-5.8981,-5.7926,-5.6219,-5.5089,-5.4561,-5.3708,-5.3155,-5.2929,-5.3181,-5.3155,-5.2929,-5.2929,-5.2929,-5.2904,-5.2603,-5.2477,-5.2452,-5.19,-5.1649,-5.1599,-5.1046,-5.1172,-5.1649,-5.1649,-5.185,-5.1975,-5.1122,-5.082,-5.077,-5.0469,-5.0745,-5.1147,-5.0896,-5.1423,-5.2101,-5.2101,-5.1699,-5.1297,-5.1322,-5.1523,-5.1649,-5.1398,-5.2151,-5.2854,-5.2603,-5.2754,-5.2929,-5.2929,-5.2929,-5.2929,-5.2929,-5.2226,-5.1749,-5.2076,-5.1122,-5.0469,-5.077,-5.0318,-4.9967,-4.9967,-4.9741,-4.959,-4.959,-4.9088,-4.8636,-4.8309,-4.8134,-4.8829,-5.0688,-5.1556,-5.191,-5.1566,-5.147,-5.0535,-4.8761,-4.9274,-4.8804,-4.7556,-4.728,-4.7305,-3.3244,-3.3771,-3.4374,-3.4756,0.0,0.0,0.0,0.0,0.0,0.0,0.0,0.0,0.0,-3.9094,0.0,-4.6778,-4.9213,-5.1322,-5.3582,-5.5315,-5.7047,-5.888,-5.9558,-6.0236,-6.109,-6.119,-6.1115,-6.0989,-6.0864,-6.0537,-5.9985,-5.9056,-5.8202,-5.7524,-5.5717,-5.4637,-5.4361,-5.3406,-5.2929,-5.2929,-5.2929,-5.2854,-5.2729,-5.2729,-5.2653,-5.2528,-5.2101,-5.1925,-5.1875,-5.1297,-5.1071,-5.1021,-5.0444,-5.0569,-5.1071,-5.1071,-5.1348,-5.1574,-5.0569,-5.0218,-5.0142,-4.9741,-4.9967,-5.0444,-5.0569,-5.1322,-5.2126,-5.2251,-5.2,-5.1699,-5.1875,-5.2,-5.2076,-5.195,-5.2427,-5.2929,-5.2929,-5.2929,-5.2929,-5.2929,-5.2929,-5.2929,-5.2929,-5.2026,-5.1423,-5.185,-5.0594,-4.9741,-5.0167,-4.9866,-4.959,-4.959,-4.959,-4.959,-4.959,-4.9213,-4.8786,-4.8335,-4.9065,-4.9922,-5.0767,-5.0747,-5.0979,-5.1455,-5.06,-4.9748,-4.8962,-4.8837,-4.8535,-4.8109,-4.7983,-4.7983,-3.3696,-3.4625,-3.5382,-3.5433,0.0,0.0,0.0,-3.9396,0.0,-4.1458,0.0,0.0,0.0,-4.1681,-4.4644,-4.8083,-5.1322,-5.4185,-5.642,-5.8152,-5.9458,-6.0136,-6.0713,-6.109,-6.1165,-6.119,-6.0964,-6.0412,-5.991,-5.9382,-5.8855,-5.8278,-5.7449,-5.6369,-5.5691,-5.4813,-5.3783,-5.3206,-5.2929,-5.2929,-5.2929,-5.2653,-5.2176,-5.2176,-5.1875,-5.1398,-5.1348,-5.1348,-5.1297,-5.072,-5.0469,-5.0419,-4.9866,-4.9992,-5.0469,-5.0469,-5.0494,-5.0444,-4.9866,-4.9665,-4.964,-4.9615,-4.9967,-5.0519,-5.1046,-5.1624,-5.2201,-5.2729,-5.2829,-5.2578,-5.1599,-5.1724,-5.1975,-5.1473,-5.2151,-5.2929,-5.2929,-5.2929,-5.2929,-5.2929,-5.2929,-5.2929,-5.2929,-5.2026,-5.1297,-5.1322,-5.0343,-4.9615,-4.964,-4.9615,-4.959,-4.959,-4.959,-4.959,-4.959,-4.9565,-4.9515,-4.9464,-5.0939,-5.1153,-4.9772,-5.2516,-5.2727,-4.9822,-5.1142,-5.1053,-4.954,-4.9012,-4.8761,-4.8686,-4.8159,-4.8184,-3.342,-3.4449,-3.5508,-3.5508,0.0,0.0,0.0,-4.0199,-4.0676,-4.2333,-4.3037,0.0,0.0,0.0,-4.6853,-4.9841,-5.3105,-5.5792,-5.7349,-5.8981,-5.996,-5.9834,-5.9985,-6.001,-5.9684,-5.9332,-5.8905,-5.8328,-5.8077,-5.7725,-5.7198,-5.6646,-5.6143,-5.5717,-5.4813,-5.4135,-5.3708,-5.3181,-5.2929,-5.2929,-5.2578,-5.2302,-5.2101,-5.1749,-5.1272,-5.0745,-5.0745,-5.0544,-5.0193,-4.9615,-4.959,-4.9891,-4.9665,-4.9941,-5.0368,-5.0042,-5.0343,-5.082,-4.9916,-4.9816,-5.0042,-4.9715,-4.9967,-5.0469,-5.067,-5.1373,-5.2151,-5.2352,-5.2653,-5.2829,-5.2427,-5.2452,-5.2578,-5.2352,-5.2628,-5.2929,-5.2929,-5.2929,-5.2929,-5.2929,-5.2929,-5.2929,-5.2929,-5.2302,-5.1674,-5.1322,-5.0619,-4.9992,-4.964,-4.959,-4.959,-4.959,-4.959,-4.959,-4.959,-4.959,-4.959,-4.959,-5.0181,-5.0664,-5.1079,-5.1268,-5.133,-5.1079,-5.0727,-5.0181,-4.959,-4.9389,-4.9289,-4.9289,-4.9063,-4.9063,-3.3262,-3.4148,-3.5282,0.0,0.0,0.0,0.0,0.0,-4.2534,-4.507,-4.5221,-4.5121,-4.5874,0.0,0.0,-5.0795,-5.4059,-5.662,-5.775,-5.9156,-5.9859,-5.9307,-5.9257,-5.8981,-5.8252,-5.7851,-5.7323,-5.657,-5.652,-5.6269,-5.5717,-5.534,-5.5039,-5.4863,-5.411,-5.3632,-5.3457,-5.3105,-5.2929,-5.2929,-5.2201,-5.185,-5.1825,-5.1071,-5.0444,-4.9891,-4.969,-4.9414,-4.9038,-4.8661,-4.8711,-4.9088,-4.9264,-4.9565,-4.9866,-4.9665,-5.0092,-5.0645,-4.9866,-4.9841,-5.0092,-4.9715,-4.9841,-5.0193,-5.0368,-5.1096,-5.1875,-5.2051,-5.2503,-5.2879,-5.2703,-5.2804,-5.2879,-5.2703,-5.2678,-5.2678,-5.2678,-5.2528,-5.2402,-5.2402,-5.2553,-5.2678,-5.2678,-5.2201,-5.1774,-5.1574,-5.0745,-5.0092,-4.9891,-4.969,-4.959,-4.959,-4.959,-4.959,-4.959,-4.959,-4.959,-4.959,-4.959,-5.0078,-5.1205,-5.0181,-5.0142,-5.1205,-5.0142,-4.959,-4.959,-4.959,-4.959,-4.959,-4.959,-4.959,-3.3244,-3.3897,-3.4831,0.0,0.0,0.0,0.0,0.0,0.0,-5.0368,-4.8209,-4.5849,-4.6954,-4.6702,-4.7431,-5.0745,-5.4059,-5.6595,-5.7725,-5.8805,-5.9282,-5.8755,-5.8704,-5.8252,-5.7123,-5.7022,-5.6545,-5.544,-5.5365,-5.5139,-5.4587,-5.4536,-5.4285,-5.3708,-5.3683,-5.3457,-5.2929,-5.2929,-5.2929,-5.2904,-5.18,-5.1272,-5.1247,-5.0092,-4.9289,-4.8736,-4.8159,-4.7908,-4.7908,-4.7908,-4.7908,-4.7958,-4.8535,-4.8761,-4.8837,-4.9389,-4.959,-4.959,-4.959,-4.959,-4.959,-4.959,-4.959,-4.9715,-5.0243,-5.082,-5.1398,-5.195,-5.2477,-5.2804,-5.2226,-5.2503,-5.2779,-5.2226,-5.2101,-5.2101,-5.2101,-5.1674,-5.1272,-5.1272,-5.1724,-5.2101,-5.2101,-5.1649,-5.1473,-5.2,-5.067,-4.9816,-5.0343,-4.9941,-4.959,-4.959,-4.959,-4.9615,-4.9615,-4.9615,-4.9615,-4.9615,-4.9615,-4.9615,-4.959,-4.959,-4.959,-4.959,-4.9615,-4.9615,-4.9615,-4.9615,-4.9615,-4.9615,-4.9615,-4.9615,-3.4374,-3.5027,0.0,0.0,0.0,0.0,0.0,0.0,0.0,0.0,-4.9414,-4.8008,-4.8736,-4.9038,-4.9665,-5.1046,-5.3733,-5.6018,-5.7123,-5.7926,-5.8152,-5.76,-5.7198,-5.6671,-5.5942,-5.5516,-5.4988,-5.426,-5.421,-5.3959,-5.3432,-5.3406,-5.3331,-5.3155,-5.3155,-5.308,-5.2929,-5.2929,-5.2729,-5.2352,-5.1624,-5.1272,-5.1222,-4.9715,-4.8711,-4.8134,-4.7606,-4.7355,-4.738,-4.7757,-4.7908,-4.7958,-4.8535,-4.9012,-4.9364,-4.954,-4.959,-4.959,-4.959,-4.959,-4.959,-4.959,-4.9866,-5.0117,-4.9916,-5.0795,-5.1724,-5.1096,-5.1624,-5.2226,-5.1674,-5.1649,-5.1724,-5.1574,-5.1523,-5.1523,-5.1523,-5.1398,-5.1272,-5.1272,-5.1724,-5.1975,-5.1599,-5.2026,-5.2101,-5.1071,-5.1172,-5.1122,-5.0494,-4.9941,-4.959,-4.959,-4.9941,-5.0167,-5.0167,-5.0544,-5.0619,-5.0193,-5.0167,-4.9992,-4.9615,-4.959,-4.959,-4.959,-4.9967,-5.0167,-5.0167,-5.0594,-5.0569,-5.0167,-5.0167,-5.0167,-3.455,0.0,0.0,0.0,0.0,0.0,-4.7355,0.0,0.0,0.0,-5.077,-4.9941,-5.0494,-5.0318,-5.0494,-5.1724,-5.3884,-5.5691,-5.657,-5.7198,-5.7349,-5.6771,-5.6219,-5.5566,-5.4787,-5.4411,-5.3984,-5.3432,-5.3381,-5.3256,-5.2955,-5.2729,-5.2603,-5.2603,-5.2377,-5.2277,-5.2277,-5.2277,-5.2101,-5.1774,-5.1197,-5.082,-5.0569,-4.9088,-4.8134,-4.7556,-4.6803,-4.6476,-4.6527,-4.7054,-4.728,-4.733,-4.7908,-4.846,-4.8962,-4.9188,-4.9264,-4.9289,-4.9515,-4.9464,-4.9314,-4.9515,-4.9816,-5.0017,-4.969,-5.0444,-5.1297,-5.0619,-5.1071,-5.1649,-5.1096,-5.0946,-5.0996,-5.1222,-5.1096,-5.0946,-5.0946,-5.077,-5.0619,-5.0619,-5.1071,-5.1322,-5.0996,-5.1498,-5.1674,-5.087,-5.1147,-5.1122,-5.0218,-4.9992,-4.9916,-4.9916,-5.0419,-5.077,-5.077,-5.087,-5.0795,-5.0444,-5.0218,-4.9941,-4.9615,-4.959,-4.959,-4.959,-4.9916,-5.0193,-5.0419,-5.0544,-5.0544,-5.0419,-5.0193,-5.0218,0.0,0.0,0.0,0.0,0.0,0.0,-4.9188,-5.2277,-5.416,-5.3005,0.0,-5.1574,-5.2076,-5.0921,-5.0569,-5.2653,-5.426,-5.5415,-5.5993,-5.6495,-5.6595,-5.6043,-5.5541,-5.4813,-5.3733,-5.3632,-5.3432,-5.2955,-5.2929,-5.2904,-5.2854,-5.2377,-5.2076,-5.2026,-5.1548,-5.1247,-5.1197,-5.1197,-5.1147,-5.1046,-5.0519,-4.9941,-4.9339,-4.836,-4.7531,-4.6792,-4.5849,-4.5372,-4.5372,-4.5974,-4.6276,-4.6376,-4.6928,-4.7456,-4.7983,-4.851,-4.8686,-4.8761,-4.9264,-4.9113,-4.8786,-4.9339,-4.9515,-4.954,-4.959,-4.9967,-5.0419,-5.0368,-5.077,-5.1071,-5.0494,-5.0343,-5.0469,-5.0996,-5.072,-5.0343,-5.0343,-4.9941,-4.959,-4.959,-5.0042,-5.0393,-5.0343,-5.0419,-5.0695,-5.1272,-5.082,-5.0243,-4.9816,-5.0193,-5.0469,-5.0419,-5.0971,-5.1348,-5.1348,-5.0921,-5.0619,-5.0569,-5.0042,-4.9715,-4.9665,-4.9615,-4.959,-4.959,-4.964,-4.9916,-5.0419,-4.9967,-5.0017,-5.0469,-4.9916,-4.9992,0.0,-3.7061,0.0,0.0,0.0,0.0,-5.185,-5.308,-5.3457,-5.195,-5.2126,-5.2603,-5.2729,-5.2452,-5.2503,-5.3381,-5.3833,-5.426,-5.4838,-5.5013,-5.4888,-5.431,-5.4135,-5.3808,-5.3155,-5.308,-5.3055,-5.2929,-5.2929,-5.2729,-5.2302,-5.2176,-5.19,-5.1473,-5.1348,-5.1071,-5.0619,-5.0594,-5.0167,-4.9314,-4.9188,-4.8611,-4.7657,-4.7832,-4.6903,-4.5146,-4.492,-4.4568,-4.4242,-4.5246,-4.5924,-4.6376,-4.6928,-4.7456,-4.7933,-4.8058,-4.8083,-4.8109,-4.8234,-4.8184,-4.8184,-4.8761,-4.8962,-4.9038,-4.9464,-4.9967,-5.0318,-4.9891,-5.0167,-5.0469,-4.9916,-4.9766,-4.9791,-4.9916,-4.9866,-4.9766,-4.9766,-4.9665,-4.959,-4.959,-5.0042,-5.0268,-4.9841,-5.0519,-5.1272,-5.185,-5.1071,-5.0544,-5.087,-5.1021,-5.0921,-5.0469,-5.1322,-5.1925,-5.1925,-5.2201,-5.2201,-5.1774,-5.1222,-5.072,-5.0268,-4.9816,-4.959,-4.959,-5.0017,-5.0293,-5.0419,-5.0745,-5.0971,-5.1071,-5.0519,-5.077,0.0,0.0,0.0,0.0,0.0,0.0,0.0,-5.2929,-5.2779,-5.2201,-5.2729,-5.3231,-5.298,-5.2929,-5.3005,-5.3281,-5.3532,-5.3808,-5.411,-5.416,-5.4034,-5.3733,-5.3256,-5.2829,-5.2553,-5.2302,-5.2126,-5.2126,-5.2126,-5.19,-5.1322,-5.1046,-5.0645,-5.0092,-4.9816,-4.9515,-4.9213,-4.9213,-4.8912,-4.836,-4.8109,-4.7405,-4.6351,-4.6351,-4.5573,-4.4242,-4.4242,-4.4066,-4.3865,-4.4719,-4.5397,-4.5949,-4.6225,-4.6828,-4.7531,-4.7531,-4.7531,-4.7581,-4.7832,-4.7732,-4.7631,-4.8184,-4.8535,-4.8837,-4.9113,-4.959,-4.9967,-4.9665,-4.9791,-4.9967,-4.9665,-4.959,-4.959,-4.959,-4.959,-4.959,-4.959,-4.959,-4.959,-4.959,-4.9816,-4.9941,-4.964,-5.0092,-5.0569,-5.087,-5.0393,-5.0218,-5.0795,-5.1096,-5.1272,-5.1222,-5.2,-5.2503,-5.2503,-5.2528,-5.2402,-5.2126,-5.1599,-5.1147,-5.0845,-5.0544,-5.0142,-4.9615,-4.9866,-5.0293,-5.082,-5.087,-5.1147,-5.1649,-5.1096,-5.1297,0.0,0.0,0.0,0.0,0.0,0.0,0.0,-5.2302,-5.2101,-5.2553,-5.3055,-5.3331,-5.298,-5.2929,-5.2929,-5.2929,-5.3206,-5.3432,-5.3432,-5.3331,-5.3281,-5.3281,-5.2503,-5.1975,-5.1975,-5.1448,-5.1122,-5.1122,-5.1046,-5.0745,-5.0167,-4.969,-4.9188,-4.8636,-4.8083,-4.7732,-4.7631,-4.7531,-4.7431,-4.733,-4.6803,-4.6075,-4.5171,-4.4493,-4.3991,-4.3664,-4.3664,-4.3614,-4.3564,-4.4217,-4.4819,-4.5347,-4.5447,-4.61,-4.6943,-4.6943,-4.6943,-4.7054,-4.7481,-4.7355,-4.7079,-4.7606,-4.8109,-4.851,-4.8611,-4.9012,-4.9464,-4.9464,-4.9515,-4.959,-4.959,-4.959,-4.959,-4.959,-4.959,-4.959,-4.959,-4.959,-4.959,-4.959,-4.959,-4.959,-4.959,-4.959,-4.9665,-4.9866,-4.9891,-5.0092,-5.0645,-5.1222,-5.1699,-5.2076,-5.2603,-5.2879,-5.2804,-5.2452,-5.2176,-5.1975,-5.1548,-5.1272,-5.1272,-5.1197,-5.0745,-4.9891,-4.9891,-5.0293,-5.1122,-5.0745,-5.1096,-5.2101,-5.1548,-5.1624,0.0,0.0,0.0,0.0,0.0,0.0,0.0,0.0,-5.1423,0.0,-5.1925,-5.2452,-5.2854,-5.2929,-5.2929,-5.2929,-5.2578,-5.2327,-5.2327,-5.19,-5.1599,-5.1599,-5.1473,-5.1398,-5.1398,-5.087,-5.0519,-5.0519,-5.0092,-4.9565,-4.9012,-4.8912,-4.8611,-4.8033,-4.7506,-4.7004,-4.6527,-4.605,-4.5573,-4.5045,-4.4518,-4.4166,-4.3991,-4.2961,-4.271,-4.3087,-4.3087,-4.2811,-4.2514,-4.3489,-4.4242,-4.4794,-4.5296,-4.5874,-4.6426,-4.6426,-4.6426,-4.6426,-4.6502,-4.6476,-4.6502,-4.7054,-4.728,-4.7431,-4.7883,-4.8435,-4.8887,-4.8887,-4.9213,-4.959,-4.959,-4.959,-4.959,-4.959,-4.959,-4.959,-4.959,-4.959,-4.959,-4.959,-4.959,-4.959,-4.959,-4.959,-4.9916,-5.0896,-5.1046,-5.1247,-5.18,-5.2377,-5.2553,-5.2151,-5.2603,-5.2729,-5.2251,-5.2578,-5.2402,-5.1448,-5.1322,-5.1272,-5.1272,-5.0795,-5.0695,-5.1046,-5.1046,-5.0896,-5.0519,-5.0971,-5.1498,-5.2101,-5.1548,-5.1825,0.0,0.0,0.0,0.0,0.0,0.0,0.0,0.0,-4.9967,-5.0268,-5.0293,-5.0695,-5.2201,-5.2477,-5.2477,-5.2477,-5.2251,-5.2,-5.1674,-5.1147,-5.0795,-5.0795,-5.0268,-4.9866,-4.9866,-4.9339,-4.9012,-4.9012,-4.851,-4.7983,-4.7431,-4.7104,-4.6677,-4.61,-4.5849,-4.5623,-4.5372,-4.5121,-4.4568,-4.3689,-4.3137,-4.271,-4.2409,-4.1907,-4.2007,-4.2564,-4.2564,-4.2439,-4.2263,-4.3011,-4.3664,-4.4217,-4.4794,-4.5347,-4.5899,-4.62,-4.6301,-4.6301,-4.6301,-4.6301,-4.6351,-4.6602,-4.7079,-4.7606,-4.7832,-4.8535,-4.9238,-4.9238,-4.9414,-4.959,-4.959,-4.959,-4.959,-4.959,-4.959,-4.959,-4.959,-4.959,-4.959,-4.959,-4.959,-4.969,-5.0017,-5.0067,-5.0343,-5.1147,-5.1272,-5.1473,-5.2026,-5.2327,-5.2503,-5.2553,-5.2779,-5.2703,-5.2151,-5.2327,-5.2126,-5.1322,-5.1272,-5.1423,-5.1724,-5.1498,-5.1473,-5.1724,-5.1448,-5.1297,-5.1373,-5.1624,-5.2026,-5.2553,-5.2327,-5.2477,0.0,0.0,0.0,0.0,0.0,0.0,0.0,0.0,-4.8134,0.0,-4.8636,-4.8962,-5.0896,-5.1473,-5.1724,-5.1875,-5.1774,-5.1473,-5.0921,-5.0368,-4.9941,-4.9791,-4.9063,-4.856,-4.856,-4.7908,-4.7506,-4.7506,-4.6878,-4.6326,-4.5899,-4.5497,-4.507,-4.4644,-4.4493,-4.4342,-4.4192,-4.394,-4.3388,-4.2559,-4.2133,-4.1731,-4.1275,-4.115,-4.1354,-4.181,-4.1882,-4.1856,-4.1835,-4.2484,-4.3087,-4.3639,-4.4192,-4.4769,-4.5347,-4.5899,-4.61,-4.6125,-4.625,-4.6301,-4.6301,-4.6301,-4.6853,-4.7506,-4.7506,-4.8184,-4.8987,-4.9138,-4.9264,-4.9414,-4.9565,-4.959,-4.959,-4.959,-4.959,-4.959,-4.959,-4.959,-4.959,-4.959,-4.959,-4.9715,-5.0142,-5.0318,-5.0619,-5.1197,-5.1398,-5.1699,-5.2251,-5.2302,-5.2477,-5.2879,-5.2929,-5.2653,-5.195,-5.2026,-5.1749,-5.0896,-5.0996,-5.1322,-5.1875,-5.19,-5.2026,-5.2302,-5.19,-5.1825,-5.2101,-5.2251,-5.2528,-5.2929,-5.2929,-5.2929,0.0,0.0,0.0,0.0,0.0,0.0,0.0,0.0,-4.5974,-4.7029,-4.723,-4.7581,-4.8736,-4.9791,-5.0695,-5.1247,-5.087,-5.0318,-4.9766,-4.9213,-4.8661,-4.8109,-4.7983,-4.7958,-4.7958,-4.7004,-4.6401,-4.6401,-4.5372,-4.4744,-4.4719,-4.4694,-4.4644,-4.4618,-4.4116,-4.3589,-4.3062,-4.2032,-4.1426,-4.1376,-4.1351,-4.13,-4.1275,-4.0802,-4.0576,-4.0626,-4.1153,-4.1025,-4.0676,-4.1756,-4.259,-4.3062,-4.3639,-4.4192,-4.4744,-4.5321,-4.5522,-4.5598,-4.6125,-4.6301,-4.6301,-4.6301,-4.6351,-4.6401,-4.6401,-4.6803,-4.7355,-4.7857,-4.8385,-4.8937,-4.9464,-4.959,-4.959,-4.959,-4.959,-4.959,-4.959,-4.959,-4.959,-4.959,-4.959,-4.9615,-4.964,-5.0067,-5.0619,-5.1197,-5.1724,-5.2251,-5.2804,-5.2879,-5.2904,-5.2929,-5.2929,-5.2503,-5.1423,-5.18,-5.1423,-4.9791,-5.0167,-5.072,-5.1297,-5.1322,-5.1825,-5.2854,-5.2854,-5.2603,-5.2101,-5.2628,-5.2904,-5.2929,-5.2929,-5.2929,0.0,0.0,0.0,0.0,0.0,0.0,-4.1731,-4.2685,-4.362,-4.4317,-4.4744,-4.5347,-4.6451,-4.8435,-4.9967,-5.0167,-5.0318,-5.0092,-4.9188,-4.8586,-4.8008,-4.7481,-4.6778,-4.6351,-4.6351,-4.5673,-4.5221,-4.5221,-4.4192,-4.3564,-4.3564,-4.2886,-4.2454,-4.2454,-4.2333,-4.2133,-4.1932,-4.1178,-4.0802,-4.0802,-4.045,-4.0275,-4.0275,-4.0074,-3.9998,-3.9998,-4.0199,-4.0375,-4.0601,-4.176,-4.2057,-4.2057,-4.3313,-4.3714,-4.3689,-4.4593,-4.5171,-4.5472,-4.5296,-4.5698,-4.625,-4.5899,-4.625,-4.6828,-4.6828,-4.7205,-4.7657,-4.7857,-4.8309,-4.8812,-4.9012,-4.9339,-4.959,-4.959,-4.959,-4.959,-4.959,-4.959,-4.959,-4.959,-4.9891,-5.0243,-5.0619,-5.1147,-5.1699,-5.2251,-5.2503,-5.2703,-5.2904,-5.2929,-5.2929,-5.2929,-5.2929,-5.2477,-5.1373,-5.1473,-5.1172,-5.0193,-5.0318,-5.0845,-5.1774,-5.18,-5.2176,-5.2904,-5.2929,-5.2829,-5.2628,-5.2829,-5.2929,-5.2929,-5.2929,-5.2929,-3.6857,0.0,0.0,0.0,0.0,-3.8366,-3.9421,-4.0249,-4.1028,-4.1957,-4.2735,-4.3589,-4.4719,-4.6728,-4.8335,-4.8711,-4.9213,-4.9188,-4.8109,-4.7606,-4.7104,-4.6376,-4.5648,-4.5121,-4.4945,-4.4392,-4.3991,-4.3815,-4.2936,-4.2434,-4.2434,-4.1731,-4.1275,-4.1275,-4.11,-4.1,-4.1,-4.0526,-4.0249,-4.0249,-3.9873,-3.9697,-3.9697,-3.9697,-3.9697,-3.9697,-3.9697,-3.9898,-4.03,-4.1229,-4.1379,-4.115,-4.2484,-4.2861,-4.2811,-4.374,-4.4443,-4.4895,-4.4694,-4.5246,-4.5974,-4.5598,-4.61,-4.6853,-4.6853,-4.7104,-4.7405,-4.7581,-4.7933,-4.8309,-4.8686,-4.9188,-4.959,-4.959,-4.959,-4.959,-4.959,-4.959,-4.964,-4.9841,-5.0167,-5.0594,-5.1172,-5.1749,-5.2226,-5.2603,-5.2804,-5.2929,-5.2929,-5.2929,-5.2929,-5.2929,-5.2929,-5.2553,-5.1624,-5.1548,-5.1322,-5.0745,-5.072,-5.1122,-5.2076,-5.2101,-5.2377,-5.2929,-5.2929,-5.2929,-5.2929,-5.2929,-5.2929,-5.2929,-5.2929,-5.2929,0.0,0.0,0.0,0.0,0.0,0.0,-3.7688,0.0,-3.8417,-4.0074,-4.1304,-4.2464,-4.3514,-4.4618,-4.5748,-4.6803,-4.7456,-4.7481,-4.6401,-4.625,-4.5824,-4.4719,-4.4568,-4.4342,-4.379,-4.3263,-4.271,-4.2213,-4.163,-4.125,-4.125,-4.125,-4.1225,-4.1225,-4.0777,-4.0475,-4.0475,-3.9948,-3.9672,-3.9672,-3.9672,-3.9672,-3.9697,-3.9697,-3.9697,-3.9697,-3.9697,-3.9697,-3.9747,-4.03,-4.0501,-4.0551,-4.1075,-4.1656,-4.2263,-4.2735,-4.3256,-4.3808,-4.4335,-4.4937,-4.5413,-4.5472,-4.5849,-4.6301,-4.6301,-4.6301,-4.6426,-4.6954,-4.7068,-4.7405,-4.851,-4.9188,-4.959,-4.959,-4.959,-4.959,-4.959,-4.959,-4.9741,-5.0293,-5.0419,-5.0619,-5.1197,-5.1749,-5.2126,-5.2126,-5.2578,-5.2929,-5.2929,-5.2929,-5.2929,-5.2929,-5.2929,-5.2703,-5.2151,-5.2101,-5.1875,-5.1348,-5.1297,-5.1548,-5.2101,-5.2126,-5.2377,-5.2929,-5.2929,-5.2929,-5.2929,-5.2929,-5.2929,-5.2929,-5.2929,-5.2929,-3.6405,0.0,0.0,0.0,0.0,0.0,-3.611,0.0,-3.7061,-3.7939,-3.932,-4.0576,-4.1304,-4.2333,-4.3243,-4.3489,-4.502,-4.5899,-4.5196,-4.4744,-4.4242,-4.3514,-4.3087,-4.2841,-4.269,-4.2108,-4.1731,-4.158,-4.1053,-4.0752,-4.0752,-4.0375,-4.0149,-4.0149,-3.9998,-3.9722,-3.932,-3.917,-3.9094,-3.9094,-3.9094,-3.9295,-3.9697,-3.9697,-3.9697,-3.9697,-3.9697,-3.9697,-3.9747,-4.03,-4.0275,-4.0023,-4.0924,-4.1376,-4.1468,-4.0891,-4.1248,-4.2069,-4.2214,-4.2925,-4.3965,-4.5116,-4.5849,-4.6301,-4.6301,-4.6301,-4.6351,-4.6502,-4.7104,-4.7958,-4.9063,-4.949,-4.959,-4.959,-4.959,-4.959,-4.959,-4.959,-4.964,-4.9791,-5.0494,-5.1096,-5.1247,-5.2076,-5.2703,-5.2703,-5.2829,-5.2929,-5.2929,-5.2929,-5.2929,-5.2929,-5.2929,-5.2703,-5.2151,-5.2101,-5.2051,-5.19,-5.1875,-5.2126,-5.2678,-5.2703,-5.2779,-5.2929,-5.2929,-5.2929,-5.2929,-5.2929,-5.2929,-5.2929,-5.2929,-5.2929,-3.6405,-3.6405,-3.6455,-3.6707,0.0,0.0,-3.5508,-3.5604,-3.578,-3.6081,-3.7312,-3.8467,-3.9019,-4.0023,-4.0905,-4.1131,-4.2208,-4.3187,-4.3539,-4.3313,-4.2911,-4.2359,-4.2007,-4.1731,-4.148,-4.1178,-4.0849,-4.0676,-4.035,-4.0174,-4.0174,-3.9647,-3.9346,-3.9346,-3.912,-3.8843,-3.8517,-3.8517,-3.8617,-3.8919,-3.8919,-3.917,-3.9697,-3.9697,-3.9697,-3.9697,-3.9697,-3.9697,-3.9722,-4.0049,-3.9973,-3.9747,-4.04,-4.038,-4.0035,-3.9563,-3.9682,-4.0186,-4.1105,-4.2126,-4.3275,-4.4973,-4.5849,-4.6301,-4.6301,-4.6301,-4.6351,-4.6602,-4.7255,-4.8008,-4.846,-4.8912,-4.9264,-4.9264,-4.9439,-4.959,-4.959,-4.959,-4.9741,-5.0218,-5.0845,-5.1423,-5.19,-5.2503,-5.2929,-5.2929,-5.2929,-5.2929,-5.2929,-5.2929,-5.2929,-5.2929,-5.2929,-5.2804,-5.2477,-5.2452,-5.2452,-5.2452,-5.2452,-5.2578,-5.2904,-5.2929,-5.2929,-5.2929,-5.2929,-5.2929,-5.2929,-5.2929,-5.2929,-5.2929,-5.2929,-5.2929,-3.6405,-3.6455,-3.6606,-3.6985,-3.6408,0.0,-3.5533,-3.5182,-3.4901,-3.4781,-3.5655,-3.6556,-3.701,-3.8014,-3.8894,-3.9346,-3.9521,-4.0149,-4.181,-4.1961,-4.1681,-4.1075,-4.1025,-4.0852,-4.03,-4.0249,-4.0023,-3.9546,-3.9496,-3.9496,-3.9496,-3.9044,-3.8768,-3.8768,-3.8266,-3.7965,-3.7914,-3.7914,-3.8216,-3.8768,-3.8768,-3.9094,-3.9697,-3.9697,-3.9697,-3.9697,-3.9697,-3.9697,-3.9697,-3.9697,-3.9697,-3.9697,-3.9697,-3.9241,-3.8527,-3.8643,-3.8424,-3.8402,-4.0504,-4.1827,-4.2875,-4.4903,-4.5899,-4.6301,-4.6301,-4.6301,-4.6426,-4.6979,-4.7506,-4.7807,-4.7431,-4.7983,-4.8711,-4.8837,-4.9188,-4.9515,-4.959,-4.959,-4.9941,-5.1071,-5.1272,-5.1599,-5.2653,-5.2879,-5.2929,-5.2929,-5.2929,-5.2929,-5.2929,-5.2929,-5.2929,-5.2929,-5.2929,-5.2929,-5.2929,-5.2929,-5.2929,-5.2929,-5.2929,-5.2929,-5.2929,-5.2929,-5.2929,-5.2929,-5.2929,-5.2929,-5.2929,-5.2929,-5.2929,-5.2929,-5.2929,-5.2929,-3.6405,-3.6732,-3.6983,-3.6656,-3.6684,0.0,-3.5708,-3.5784,-3.5956,-3.5433,-3.5906,-3.643,-3.6556,-3.7109,-3.7538,-3.7663,-3.8442,-3.9446,-4.0676,-4.045,-3.9973,-3.9421,-3.9346,-3.912,-3.8542,-3.8492,-3.8442,-3.8341,-3.8341,-3.8341,-3.8341,-3.8241,-3.8191,-3.8191,-3.8065,-3.7789,-3.7337,-3.7337,-3.7613,-3.8191,-3.8191,-3.8718,-3.9697,-3.9697,-3.9697,-3.9697,-3.9697,-3.9697,-3.9697,-3.9697,-3.9697,-3.9697,-3.9697,-3.9867,-3.9837,-3.7831,-3.7241,-3.782,-3.9583,-4.0334,-4.1145,-4.4899,-4.6225,-4.6301,-4.6301,-4.6301,-4.6426,-4.6979,-4.7506,-4.7983,-4.836,-4.8259,-4.8309,-4.9213,-4.9163,-4.9063,-4.949,-4.959,-4.9941,-5.1071,-5.1272,-5.1498,-5.2151,-5.2628,-5.2929,-5.2929,-5.2929,-5.2929,-5.2929,-5.2929,-5.2929,-5.2929,-5.2929,-5.2929,-5.2929,-5.2929,-5.2929,-5.2929,-5.2929,-5.2929,-5.2929,-5.2929,-5.2929,-5.2929,-5.2929,-5.2929,-5.2929,-5.2929,-5.2929,-5.2929,-5.2929,-5.2929,-3.7186,-3.7387,-3.7538,-3.7262,-3.7186,0.0,0.0,-3.5956,-3.5784,-3.5207,-3.5127,-3.5127,-3.5127,-3.5353,-3.573,-3.6282,-3.7061,-3.8064,-3.912,-3.9019,-3.8642,-3.809,-3.7838,-3.7561,-3.7211,-3.7186,-3.7312,-3.7588,-3.7588,-3.7713,-3.799,-3.7739,-3.7588,-3.7588,-3.7337,-3.7061,-3.6832,-3.6832,-3.7186,-3.8015,-3.8015,-3.8592,-3.9697,-3.9697,-3.9697,-3.9697,-3.9697,-3.9697,-3.9697,-3.9697,-3.9697,-3.9697,-3.9697,-3.9083,-3.8091,-3.702,-3.6106,-3.5821,-3.8886,-4.0023,-4.0858,-4.495,-4.6301,-4.6301,-4.6301,-4.6502,-4.6728,-4.6728,-4.7104,-4.7581,-4.7883,-4.7933,-4.8134,-4.8987,-4.9188,-4.9264,-4.954,-4.959,-4.9941,-5.1071,-5.1272,-5.1548,-5.2377,-5.2754,-5.2929,-5.2929,-5.2929,-5.2929,-5.2929,-5.2929,-5.2929,-5.2929,-5.2929,-5.2929,-5.2929,-5.2929,-5.2929,-5.2929,-5.2929,-5.2929,-5.2929,-5.2929,-5.2929,-5.2929,-5.2929,-5.2929,-5.2929,-5.2929,-5.2929,-5.2929,-5.2929,-5.2929,-3.8015,-3.8165,-3.8266,-3.8065,-3.7914,-3.7638,0.0,0.0,0.0,-3.5479,-3.4826,-3.4374,-3.4374,-3.4299,-3.4474,-3.5207,-3.6031,-3.6807,-3.7437,-3.7538,-3.7412,-3.7061,-3.6533,-3.6204,-3.6103,-3.6157,-3.6408,-3.6835,-3.696,-3.7211,-3.7663,-3.7262,-3.7036,-3.7036,-3.6631,-3.6405,-3.6405,-3.6405,-3.6958,-3.8015,-3.8015,-3.8592,-3.9697,-3.9697,-3.9697,-3.9697,-3.9697,-3.9697,-3.9697,-3.9697,-3.9697,-3.9697,-3.9413,-3.8078,-3.6297,-3.6223,-3.5146,-3.4258,-3.835,-3.9938,-4.0864,-4.4852,-4.6225,-4.6301,-4.6301,-4.6702,-4.7029,-4.6476,-4.6702,-4.7093,-4.7255,-4.7531,-4.7958,-4.8736,-4.9188,-4.9464,-4.9565,-4.959,-4.9941,-5.1071,-5.1272,-5.1624,-5.2729,-5.2929,-5.2929,-5.2929,-5.2929,-5.2929,-5.2929,-5.2929,-5.2929,-5.2929,-5.2929,-5.2929,-5.2929,-5.2929,-5.2929,-5.2929,-5.2929,-5.2929,-5.2929,-5.2929,-5.2929,-5.2929,-5.2929,-5.2929,-5.2929,-5.2929,-5.2929,-5.2929,-5.2929,-5.2929,-3.8015,-3.8743,-3.927,-3.8266,-3.9069,-3.9722,-3.8165,0.0,-3.8341,-3.7764,0.0,-3.6128,-3.6128,0.0,0.0,-3.4831,-3.6107,-3.6784,-3.5909,-3.5784,-3.5981,-3.6455,-3.5956,-3.5408,-3.4951,-3.5307,-3.5633,-3.5683,-3.6182,-3.6531,-3.6581,-3.6531,-3.6505,-3.6505,-3.643,-3.6405,-3.6405,-3.6405,-3.6958,-3.8015,-3.8015,-3.8592,-3.9697,-3.9697,-3.9697,-3.9697,-3.9697,-3.9697,-3.9697,-3.9697,-3.9697,-3.9569,-3.8243,-3.7786,-3.7606,-3.5418,-3.4718,-3.5244,-3.8089,-3.9136,-3.9886,-4.4165,-4.5924,-4.6301,-4.6301,-4.6702,-4.7029,-4.6476,-4.6702,-4.723,-4.7707,-4.7531,-4.7606,-4.9138,-4.9163,-4.9012,-4.949,-4.959,-4.9941,-5.1071,-5.1272,-5.1624,-5.2729,-5.2929,-5.2929,-5.2929,-5.2929,-5.2929,-5.2929,-5.2929,-5.2929,-5.2929,-5.2929,-5.2929,-5.2929,-5.2929,-5.2929,-5.2929,-5.2929,-5.2929,-5.2929,-5.2929,-5.2929,-5.2929,-5.2929,-5.2929,-5.2929,-5.2929,-5.2929,-5.2929,-5.2929,-5.2929,-3.8994,-3.9798,-4.0375,-3.927,-3.9747,-4.0174,-3.8818,-3.8442,-3.8291,-3.8065,0.0,0.0,0.0,0.0,0.0,0.0,-3.5504,-3.5705,-3.5508,-3.4956,-3.4801,-3.5353,-3.465,-3.4022,-3.3796,-3.4274,-3.46,-3.46,-3.5403,-3.5881,-3.5881,-3.6483,-3.6835,-3.6835,-3.7161,-3.7161,-3.6883,-3.6835,-3.7236,-3.8015,-3.8015,-3.8592,-3.9697,-3.9697,-3.9697,-3.9697,-3.9697,-3.9697,-3.9697,-3.9697,-3.9697,-3.9567,-3.8422,-3.7668,-3.7075,-3.6046,-3.4984,-3.4553,-3.7867,-3.9023,-3.9727,-4.4067,-4.5849,-4.6301,-4.6301,-4.6476,-4.6602,-4.6376,-4.6476,-4.6778,-4.733,-4.7531,-4.7832,-4.8862,-4.9188,-4.9389,-4.9967,-5.0067,-5.0419,-5.1548,-5.1749,-5.2,-5.2804,-5.2929,-5.2929,-5.2929,-5.2929,-5.2929,-5.2929,-5.2929,-5.2929,-5.2929,-5.2929,-5.2929,-5.2929,-5.2929,-5.2929,-5.2929,-5.2929,-5.2929,-5.2929,-5.2929,-5.2929,-5.2929,-5.2929,-5.2929,-5.2929,-5.2929,-5.2929,-5.2929,-5.2929,-5.2929,-3.9669,-4.0601,-4.1254,-3.9998,-4.0099,-4.0275,-3.932,-3.8894,-3.8642,-3.8492,-3.814,0.0,0.0,0.0,-3.6085,-3.5784,0.0,-3.5378,-3.5282,-3.4625,-3.4223,-3.4474,-3.3646,-3.3111,-3.3111,-3.3571,-3.3897,-3.3897,-3.4881,-3.5508,-3.5508,-3.6433,-3.7036,-3.7186,-3.7563,-3.7663,-3.7412,-3.7262,-3.7538,-3.8241,-3.809,-3.8592,-3.9697,-3.9697,-3.9697,-3.9697,-3.9697,-3.9697,-3.9697,-3.9697,-3.9465,-3.9074,-3.8931,-3.772,-3.6019,-3.615,-3.5315,-3.4485,-3.7658,-3.9454,-4.0867,-4.419,-4.5623,-4.6125,-4.6276,-4.6301,-4.6301,-4.6301,-4.6301,-4.6476,-4.7154,-4.7631,-4.8083,-4.8812,-4.9314,-4.9741,-5.0293,-5.0419,-5.0745,-5.1875,-5.2101,-5.2277,-5.2829,-5.2929,-5.2929,-5.2929,-5.2929,-5.2929,-5.2929,-5.2929,-5.2929,-5.2929,-5.2929,-5.2929,-5.2929,-5.2929,-5.2929,-5.2929,-5.2929,-5.2929,-5.2929,-5.2929,-5.2929,-5.2929,-5.2929,-5.2929,-5.2929,-5.2929,-5.2929,-5.2929,-5.2929,-5.2929,-3.9583,-4.0877,-4.1785,-4.0099,-4.0099,-4.0375,-3.9798,-4.0074,-4.0275,-3.9747,-3.9622,-3.9446,-3.8944,-3.8316,-3.7588,-3.6556,-3.6759,0.0,0.0,-3.468,-3.45,-3.3997,-3.342,-3.3111,-3.3111,-3.3571,-3.3897,-3.3897,-3.4881,-3.5508,-3.5508,-3.6081,-3.6681,-3.7161,-3.7211,-3.7462,-3.7965,-3.7437,-3.7739,-3.8894,-3.8266,-3.8592,-3.9697,-3.9697,-3.9697,-3.9697,-3.9697,-3.9697,-3.9697,-3.9697,-3.8844,-3.7737,-3.9671,-3.7997,-3.4564,-3.5065,-3.5468,-3.599,-3.7626,-4.0598,-4.3776,-4.441,-4.5045,-4.5623,-4.615,-4.6301,-4.6301,-4.6301,-4.6301,-4.6552,-4.7606,-4.7908,-4.8184,-4.9314,-4.959,-4.9741,-5.0293,-5.0419,-5.0745,-5.1875,-5.2101,-5.2277,-5.2829,-5.2929,-5.2929,-5.2929,-5.2929,-5.2929,-5.2929,-5.2929,-5.2929,-5.2929,-5.2929,-5.2929,-5.2929,-5.2929,-5.2929,-5.2929,-5.2929,-5.2929,-5.2929,-5.2929,-5.2929,-5.2929,-5.2929,-5.2929,-5.2929,-5.2929,-5.2929,-5.2929,-5.2929,-5.2929,-3.9792,-4.1706,-4.3313,-4.1279,-4.148,-4.1706,-4.0074,-4.04,-4.0802,-3.9873,-4.0275,-4.04,-3.912,-3.8391,-3.7764,-3.7036,-3.6458,-3.5734,0.0,-3.4098,-3.3571,-3.337,-3.3194,-3.3111,-3.3111,-3.3571,-3.3746,-3.3395,-3.4374,-3.4851,-3.4474,-3.568,-3.6505,-3.6659,-3.7362,-3.7638,-3.7462,-3.7638,-3.7914,-3.8291,-3.8492,-3.8969,-3.9697,-3.9697,-3.9697,-3.9697,-3.9697,-3.9697,-3.9697,-3.9697,-3.8844,-3.7601,-3.8918,-3.8635,-3.7417,-3.6897,-3.561,-3.4612,-3.7265,-4.0633,-4.384,-4.4016,-4.4719,-4.5522,-4.5723,-4.6024,-4.6301,-4.6301,-4.6301,-4.6476,-4.7205,-4.7657,-4.8109,-4.8862,-4.9339,-4.9866,-5.0795,-5.0996,-5.1322,-5.2427,-5.2653,-5.2703,-5.2904,-5.2929,-5.2929,-5.2929,-5.2929,-5.2929,-5.2929,-5.2929,-5.2929,-5.2929,-5.2929,-5.2929,-5.2929,-5.2929,-5.2929,-5.2929,-5.2929,-5.2929,-5.2929,-5.2929,-5.2929,-5.2929,-5.2929,-5.2929,-5.2929,-5.2929,-5.2929,-5.2929,-5.2929,-5.2929,-3.9982,-4.2241,-4.4192,-4.2384,-4.2459,-4.2509,-4.0701,-4.0978,-4.1329,-4.0224,-4.0551,-4.0727,-3.9647,-3.8843,-3.814,-3.7563,-3.6709,-3.5805,0.0,-3.3771,-3.3111,-3.3111,-3.3111,-3.3111,-3.3111,-3.3395,-3.347,-3.3136,-3.3922,-3.4274,-3.3922,-3.5278,-3.6182,-3.6383,-3.7262,-3.7739,-3.7789,-3.7939,-3.8216,-3.8617,-3.8793,-3.917,-3.9697,-3.9697,-3.9697,-3.9697,-3.9697,-3.9413,-3.8921,-3.8921,-3.7743,-3.6091,-3.7544,-3.7542,-3.6719,-3.7448,-3.6921,-3.6234,-3.832,-4.1004,-4.3564,-4.3966,-4.4593,-4.5246,-4.5648,-4.6024,-4.6301,-4.6301,-4.6451,-4.6728,-4.728,-4.7807,-4.836,-4.8937,-4.9339,-4.9916,-5.1046,-5.1272,-5.1599,-5.2703,-5.2929,-5.2929,-5.2929,-5.2929,-5.2929,-5.2929,-5.2929,-5.2929,-5.2929,-5.2929,-5.2929,-5.2929,-5.2929,-5.2929,-5.2929,-5.2929,-5.2929,-5.2929,-5.2929,-5.2929,-5.2929,-5.2929,-5.2929,-5.2929,-5.2929,-5.2929,-5.2929,-5.2929,-5.2929,-5.2929,-5.2929,-5.2929]}]]